ECMWFNIL_250_spd_003.txt.gz
Wind_Speed
49 48 47 48 48 48 48 48 48 49 49 49 48 48 49 49 49 50 50 51 51 51 52 52 53 54 54 55 55 55 56 57 57 59 61 63 62 61 59 60 62 66
51 51 50 50 50 50 50 50 50 51 51 51 50 50 50 50 50 51 52 52 53 54 55 55 55 55 56 56 57 57 58 58 59 60 61 63 64 64 63 62 61 62
55 54 53 52 52 52 52 53 53 53 53 53 52 52 52 51 52 52 53 53 54 55 56 57 57 57 57 58 58 59 59 60 61 62 63 64 65 65 65 65 65 64
58 57 57 56 56 55 55 55 55 55 55 55 55 54 54 53 53 53 54 55 55 56 57 58 59 59 60 60 60 60 61 61 62 63 64 65 66 67 67 67 67 67
61 60 60 60 59 59 58 57 57 57 57 57 57 57 56 56 56 55 56 56 57 57 58 59 60 60 61 61 62 62 63 63 64 64 65 66 67 68 69 69 70 70
64 63 62 62 63 63 62 61 60 60 60 60 60 59 59 58 58 58 58 58 59 59 60 60 61 61 62 62 63 64 65 65 66 66 66 67 68 69 70 71 71 72
67 66 66 65 65 65 65 65 64 63 63 63 63 62 61 61 61 61 61 60 60 61 61 62 63 63 63 63 64 64 65 66 67 67 68 68 69 69 70 71 72 73
70 69 69 69 69 68 68 68 67 66 66 66 66 65 65 64 64 64 64 63 63 63 64 64 64 65 65 66 66 66 66 66 67 68 68 69 70 71 71 72 73 74
74 73 72 72 72 72 71 71 70 69 69 69 68 68 68 68 68 68 67 67 67 67 66 66 66 67 67 67 68 68 68 68 68 68 69 69 70 70 71 72 73 75
76 76 75 75 75 75 74 73 73 72 72 71 71 71 71 71 71 71 70 70 70 70 70 70 69 69 69 69 69 69 70 70 70 70 70 70 71 71 71 72 73 74
78 78 78 78 77 77 76 75 74 74 74 74 74 73 74 74 74 74 74 74 74 74 73 73 73 72 72 72 72 72 72 72 71 71 71 71 72 73 73 73 74 75
80 80 79 79 79 78 77 76 76 76 77 76 76 76 76 76 76 77 77 77 77 77 77 77 76 76 75 75 75 75 75 75 74 74 74 74 74 74 74 75 75 76
83 83 82 81 80 79 77 76 77 78 79 79 79 79 78 78 78 79 79 79 79 79 80 79 79 79 78 78 78 78 78 78 78 78 78 78 78 77 77 77 77 77
86 87 87 84 82 81 79 78 79 80 80 81 81 81 81 80 80 80 81 81 81 81 81 81 81 81 81 81 81 81 81 81 80 80 81 81 81 81 81 80 80 80
86 87 88 87 85 84 82 81 82 83 83 84 84 84 83 82 82 82 82 82 82 82 82 83 83 83 83 83 83 83 83 83 83 83 83 83 83 84 84 83 83 83
87 87 86 86 87 87 86 86 86 87 87 88 88 87 86 85 84 84 84 83 83 84 84 84 85 85 85 85 85 84 84 84 84 85 85 85 85 85 85 85 85 85
85 83 82 84 87 87 87 88 89 88 89 90 91 90 89 88 87 87 87 87 87 86 86 87 87 87 87 87 86 85 85 85 85 86 86 86 86 86 86 87 87 86
83 79 76 79 83 85 87 88 88 89 89 90 90 90 90 90 90 90 90 90 90 90 91 91 91 91 90 89 88 87 86 86 86 86 86 87 87 87 87 87 87 87
82 80 77 76 77 79 81 83 84 87 89 90 89 89 90 90 91 92 93 93 93 94 95 95 95 94 93 92 91 90 89 89 88 87 87 88 88 88 88 88 89 89
80 79 77 76 76 77 76 78 80 83 87 90 91 90 90 91 91 92 93 94 95 96 98 98 98 97 96 95 94 94 92 91 91 90 90 90 90 90 90 90 91 91
76 74 71 70 74 78 78 78 80 82 85 89 91 91 91 92 93 93 94 96 96 97 97 98 99 99 98 98 97 96 94 93 92 92 93 93 93 94 94 94 95 95
73 72 71 70 73 77 80 80 82 84 85 88 90 91 91 92 94 95 96 96 96 96 96 96 97 98 99 99 99 98 97 96 95 94 94 96 97 97 98 98 98 99
70 72 74 75 75 78 80 81 83 87 89 90 91 92 91 92 93 95 96 96 95 95 95 95 95 96 96 97 97 96 96 96 96 95 97 99 100 101 101 102 102 102
68 70 72 73 76 78 79 80 83 88 92 93 94 94 93 93 93 94 94 94 94 93 92 91 92 92 93 93 92 92 91 92 92 93 95 98 100 101 103 104 105 104
64 66 69 71 74 77 80 83 86 89 92 94 94 94 93 92 92 92 93 93 93 92 89 87 85 84 83 83 82 81 81 82 84 87 90 93 97 99 102 103 104 103
62 64 67 70 74 78 83 86 89 91 93 93 92 90 89 88 89 90 91 92 93 92 88 84 81 78 76 74 71 69 69 70 73 76 81 87 92 97 99 99 99 99

ECMWFNIL_250_spd_006.txt.gz
Wind_Speed
47 47 45 45 44 44 44 45 45 45 45 44 45 45 46 45 44 44 43 43 43 43 44 44 44 44 44 45 45 46 46 47 47 48 49 49 50 53 58 60 59 60
49 49 49 48 48 47 46 46 45 45 45 45 46 46 47 47 47 46 46 45 45 44 44 45 45 46 46 46 47 47 48 49 49 50 51 51 51 51 55 60 62 62
52 51 51 51 51 50 50 49 48 47 46 46 47 47 47 48 48 48 48 47 47 46 46 46 47 47 48 48 49 49 50 51 51 52 53 53 54 54 54 57 61 64
55 54 54 53 53 53 53 52 51 50 49 48 48 48 48 49 49 49 49 49 49 49 48 48 48 49 49 50 51 51 52 53 53 54 55 55 56 57 57 57 59 62
59 58 57 56 55 55 54 54 53 53 52 51 50 50 50 50 51 51 51 51 51 51 50 50 50 50 51 51 52 53 53 54 55 55 56 57 58 58 60 60 60 61
62 61 61 60 58 58 57 56 55 55 54 54 53 52 52 52 53 53 53 54 53 53 53 53 53 53 53 53 54 54 55 56 57 57 58 59 59 60 61 62 63 63
64 64 63 63 62 61 60 59 58 57 57 57 56 55 55 55 55 56 56 56 56 56 56 56 56 55 55 55 55 56 57 57 58 59 60 61 61 62 63 63 64 65
67 66 66 65 64 64 63 62 61 60 60 60 59 59 59 58 59 59 59 59 59 60 60 59 59 58 58 58 58 58 58 59 60 60 62 63 63 64 65 65 66 66
71 70 68 66 66 65 65 64 63 63 63 63 63 62 62 62 62 62 62 62 62 63 63 63 62 61 61 61 61 61 61 61 62 62 63 64 65 66 66 67 68 68
75 73 70 68 67 67 67 66 66 65 65 66 66 66 66 66 66 66 65 65 65 66 66 66 65 65 64 64 64 64 64 64 64 64 64 65 65 66 67 68 69 70
79 77 75 73 71 69 69 68 68 67 68 69 69 70 70 70 69 69 69 69 69 69 69 68 68 68 68 67 67 67 67 67 67 67 67 66 66 67 68 69 70 72
81 81 80 78 76 74 72 71 70 70 70 70 71 72 73 73 73 73 72 72 72 72 71 71 71 71 70 70 70 70 71 71 71 70 70 69 69 70 70 71 72 72
81 82 82 81 80 77 75 74 74 73 73 73 73 74 75 76 76 75 75 75 76 75 74 74 74 73 73 73 73 74 74 74 73 73 73 73 73 74 74 74 74 74
80 82 83 82 81 79 77 78 79 78 77 77 76 77 77 77 77 77 78 78 77 77 76 76 76 76 76 77 77 77 77 76 76 76 76 76 77 77 77 77 77 77
80 81 82 82 81 80 79 80 82 82 80 80 80 81 80 80 79 79 80 80 79 78 78 78 78 79 79 80 80 80 80 79 79 79 79 79 80 80 80 80 80 80
80 80 81 81 81 81 80 80 81 82 81 80 81 83 83 83 83 83 83 83 81 80 79 79 80 81 82 82 82 82 82 82 82 82 82 82 82 82 83 83 83 83
81 81 81 81 82 81 81 80 80 79 78 78 81 84 85 86 86 86 86 86 85 83 82 82 83 83 84 84 84 83 84 84 84 84 84 84 84 84 85 85 85 84
80 81 81 81 82 82 82 81 80 79 78 79 82 86 87 87 87 87 87 88 88 87 87 87 87 87 87 86 86 85 85 85 85 85 86 86 86 86 86 86 86 86
76 78 79 80 81 82 81 79 79 80 81 81 83 85 86 86 87 87 87 87 88 89 90 91 91 91 90 90 89 89 88 88 87 87 87 87 87 87 87 87 87 87
74 76 77 78 80 80 79 76 74 74 78 81 82 83 85 86 85 85 86 87 88 89 91 92 93 93 93 93 93 93 92 92 91 90 89 89 89 88 88 88 88 88
72 73 74 75 77 78 78 77 75 74 77 82 84 85 87 89 89 87 85 86 88 90 92 93 94 94 95 95 96 96 95 95 94 93 92 92 92 92 92 91 91 90
70 71 72 72 73 75 75 75 76 77 79 83 85 86 88 90 91 89 86 86 88 90 92 93 93 93 94 95 96 97 97 97 96 95 95 95 95 95 95 94 94 93
68 69 70 70 70 71 72 73 74 75 77 80 83 84 86 87 88 87 86 86 89 92 94 94 94 94 94 94 95 95 96 96 96 96 96 96 96 96 96 96 95 94
65 66 67 67 67 68 69 70 71 71 73 75 79 81 83 85 84 83 82 85 90 94 95 95 94 94 93 93 93 94 94 94 94 95 95 95 96 96 96 96 96 95
63 64 64 65 66 67 68 67 68 69 70 72 75 78 80 82 82 81 80 84 90 95 96 95 94 94 93 92 91 91 91 92 92 92 92 92 92 92 92 92 93 93
61 61 62 62 64 66 66 65 65 67 69 71 73 75 77 79 81 82 83 86 91 95 96 95 93 92 90 87 86 85 85 86 87 87 87 88 88 88 88 88 89 89

ECMWFNIL_250_spd_012.txt.gz
Wind_Speed
43 43 43 43 43 43 44 44 43 42 41 40 39 38 39 38 38 38 38 38 39 39 39 40 40 41 41 41 41 42 42 42 42 43 43 44 46 48 50 52 54 56
46 46 45 45 45 45 46 46 46 45 44 44 43 42 41 41 41 41 40 40 40 40 41 41 41 42 42 43 43 43 44 44 44 44 44 45 45 47 48 50 52 54
49 49 48 48 48 48 48 47 47 47 46 46 45 45 44 44 44 44 43 43 42 42 43 43 43 43 43 43 44 45 45 45 45 45 45 46 46 47 47 49 50 52
50 50 51 51 51 51 50 49 49 48 48 48 47 47 47 47 47 47 46 46 45 45 45 45 44 44 44 45 45 46 46 47 47 47 47 47 48 48 48 49 49 51
50 51 52 52 52 52 52 52 52 52 51 50 50 49 49 49 49 49 49 49 48 48 47 47 46 46 46 46 46 47 47 48 48 48 49 49 49 49 49 50 50 51
52 52 52 53 53 54 54 54 54 54 54 54 53 52 52 52 51 51 51 51 51 51 51 50 49 48 48 48 48 48 48 49 49 50 50 51 51 51 51 51 51 52
55 55 54 54 55 55 55 55 55 55 55 55 56 55 55 55 55 54 54 54 53 53 53 53 53 52 51 51 50 50 49 49 50 51 52 52 52 53 52 52 52 53
59 58 58 57 57 58 58 57 56 56 56 57 58 58 58 58 58 58 57 57 56 56 56 56 56 56 56 55 54 53 52 52 52 52 53 53 54 54 54 54 54 54
62 62 61 61 61 62 61 60 58 58 58 59 59 60 60 61 60 60 60 60 59 59 59 59 58 59 59 59 58 57 56 55 55 54 54 54 55 55 56 56 56 56
62 62 63 63 64 65 64 63 61 61 61 62 62 62 62 62 63 63 63 63 63 62 62 62 62 62 62 62 62 61 61 60 59 58 57 56 56 56 57 57 58 58
60 61 63 64 65 66 65 64 64 64 65 65 65 65 64 64 65 65 65 66 65 65 65 65 65 65 65 65 64 64 64 64 64 63 61 60 59 59 58 58 59 60
57 60 62 63 63 64 64 64 64 65 67 68 68 68 68 68 68 68 67 67 67 67 68 68 69 69 69 68 67 66 66 66 66 66 65 65 64 63 62 61 61 61
57 60 62 61 61 62 61 62 63 64 65 67 69 69 70 72 72 71 71 71 70 70 70 70 71 72 72 71 70 70 69 69 69 69 68 68 68 67 67 66 65 64
59 61 62 62 61 60 60 60 61 62 63 65 67 68 70 72 73 73 73 74 74 74 73 73 73 74 74 74 74 73 74 73 73 72 72 71 71 71 71 70 70 69
61 62 63 63 62 61 60 60 61 61 62 63 65 66 68 70 72 73 74 75 75 76 77 77 77 77 77 76 76 76 77 77 77 77 76 75 75 75 75 74 74 74
65 65 65 65 65 64 63 63 63 63 63 64 64 65 66 68 70 71 72 73 75 76 78 78 79 81 81 80 79 79 79 79 79 80 79 79 79 79 78 78 78 78
69 68 68 68 68 66 65 65 66 66 65 65 65 65 66 67 68 68 68 69 72 75 76 77 79 81 83 83 83 82 82 82 82 82 82 81 82 82 82 81 81 81
72 71 71 71 70 69 68 68 68 68 68 67 67 67 67 67 67 68 67 69 72 74 75 76 77 79 81 84 84 85 85 85 86 85 84 84 83 84 84 84 85 85
75 74 74 73 73 72 71 70 70 70 70 70 69 69 69 69 68 68 69 70 72 73 75 76 76 77 79 81 82 84 85 87 88 88 88 87 86 86 86 86 87 87
77 77 76 75 75 74 73 73 72 72 72 72 72 71 71 71 70 70 70 71 72 74 75 76 76 77 78 79 80 82 84 86 87 88 88 88 89 89 89 89 89 89
79 79 78 78 77 76 76 75 74 74 74 73 73 73 73 72 72 72 72 73 74 74 75 75 76 76 77 78 79 81 83 85 86 86 87 87 88 90 91 92 92 92
81 81 81 80 80 79 78 77 76 76 75 75 75 74 74 74 74 74 75 75 75 76 76 76 75 75 76 77 79 80 82 83 84 85 86 86 87 89 90 92 93 93
83 82 82 82 81 80 80 79 78 77 76 76 76 76 76 76 76 76 76 77 77 77 77 76 75 76 76 77 78 78 79 80 82 83 84 85 86 87 88 90 91 91
83 83 82 82 82 81 81 80 79 78 77 77 77 77 77 77 78 78 78 78 78 78 77 77 77 78 79 78 77 77 78 79 80 80 81 82 84 85 86 87 88 88
83 82 81 81 81 81 81 80 79 79 78 78 78 77 78 78 79 79 79 79 79 78 77 78 79 81 80 80 79 79 79 79 78 78 78 79 81 82 83 85 86 86
81 81 80 80 79 79 79 79 78 78 78 78 78 78 78 79 79 79 80 80 79 78 78 79 81 81 80 80 80 79 79 79 79 77 76 76 77 79 80 82 83 84

ECMWFNIL_250_spd_015.txt.gz
Wind_Speed
45 44 43 42 42 43 42 42 41 40 39 38 38 38 38 38 37 37 37 37 38 38 39 40 41 42 43 43 42 41 41 41 42 44 47 50 53 55 59 62 62 63
48 48 47 47 46 46 46 45 44 44 43 42 42 41 41 41 41 40 39 39 39 39 39 39 40 41 42 43 44 43 43 42 42 43 45 48 50 52 55 59 62 63
49 49 49 50 50 49 48 47 47 47 47 46 45 45 44 44 44 44 43 42 42 41 41 40 41 41 42 43 44 44 45 44 44 43 44 46 48 50 52 55 58 61
50 50 51 51 51 50 50 50 50 50 49 49 49 48 48 47 47 47 47 46 45 45 44 43 42 42 42 43 44 45 45 46 46 46 46 46 47 48 50 52 54 57
51 52 53 52 52 51 50 50 51 52 52 52 52 51 51 51 50 50 49 49 49 48 48 47 46 45 45 44 45 45 46 46 47 48 48 48 48 49 50 50 52 54
52 52 53 53 53 52 51 50 51 52 53 54 54 54 54 54 53 53 52 52 51 51 51 51 50 49 48 47 47 47 47 48 48 48 49 49 50 51 51 51 52 52
54 53 53 53 52 52 52 51 50 51 52 53 54 56 56 56 57 56 56 55 54 54 54 53 53 53 52 51 50 50 49 49 49 49 49 49 50 51 53 54 54 54
57 56 56 55 53 53 53 52 51 51 52 53 54 56 57 57 58 59 59 59 58 57 57 56 55 55 55 55 54 53 52 52 51 51 51 50 51 52 53 54 56 57
60 59 59 58 57 56 55 56 56 54 54 54 54 55 58 59 59 60 60 60 60 60 60 60 59 58 57 57 57 57 56 56 55 54 53 53 52 53 53 54 55 57
62 60 60 60 60 59 59 59 59 58 59 59 56 55 57 59 61 62 62 61 62 62 62 62 62 61 61 60 60 60 59 59 59 58 57 56 56 55 56 56 56 57
62 61 62 62 61 61 61 61 60 59 61 63 61 59 59 60 60 62 63 64 64 64 64 64 64 64 63 63 63 63 63 62 62 62 61 61 60 59 59 59 59 58
60 61 62 61 60 60 61 62 59 58 60 64 64 62 62 62 63 63 64 65 66 66 66 65 65 65 65 66 66 66 66 65 65 65 64 64 64 64 63 63 62 62
59 59 60 61 59 58 57 56 54 56 60 63 63 62 63 64 65 66 66 66 66 67 68 68 67 67 67 67 68 69 69 68 68 68 68 68 67 67 67 67 67 66
60 60 60 61 59 58 57 57 57 60 63 60 57 58 60 61 62 64 66 67 68 68 69 70 70 71 71 70 71 71 70 70 70 71 71 71 71 71 71 70 70 70
62 62 63 63 61 59 59 60 61 61 61 56 51 52 57 59 60 62 64 67 68 68 68 70 71 73 73 74 75 74 73 72 72 73 73 74 74 74 74 74 74 73
64 65 65 66 65 63 62 63 62 60 59 57 54 56 60 62 63 64 65 65 64 63 66 69 72 73 74 76 77 77 76 75 76 76 75 76 76 76 77 77 77 76
67 67 68 69 68 67 66 66 65 63 61 61 61 64 67 68 69 69 68 66 62 60 63 67 69 72 75 77 78 78 78 78 78 78 78 78 78 79 79 80 80 80
70 70 71 71 71 71 70 69 69 68 66 65 65 68 70 71 71 71 70 68 66 65 66 66 68 71 74 76 77 77 76 78 79 80 81 81 81 82 82 82 82 82
73 73 73 74 74 74 74 73 72 72 70 69 69 70 71 71 71 71 72 70 69 69 69 68 68 72 74 74 75 74 74 75 77 77 80 82 84 85 85 85 85 85
74 75 75 75 76 76 76 76 76 75 74 73 72 72 72 72 71 71 72 72 70 71 71 68 69 73 75 74 74 73 73 74 75 75 77 80 82 84 86 87 87 87
76 76 77 77 78 79 79 79 79 78 78 77 76 75 74 75 74 74 73 73 72 72 71 69 71 75 76 74 74 74 74 76 76 76 78 80 80 81 83 85 86 87
77 78 78 79 80 80 80 81 81 80 80 80 79 77 76 77 77 76 75 75 74 74 72 71 74 76 75 75 75 75 76 78 78 78 80 81 81 81 82 83 84 85
79 79 79 80 80 81 81 82 82 81 81 81 80 79 78 78 77 77 76 75 75 74 73 73 75 76 74 75 75 76 78 79 80 80 81 81 82 82 82 82 82 83
80 80 80 81 81 82 82 82 82 82 82 82 81 81 80 79 78 78 77 75 75 75 74 75 75 75 74 75 76 77 79 80 81 82 82 82 82 81 81 82 82 83
82 82 82 82 82 82 82 83 83 83 83 83 83 82 82 81 80 80 79 78 77 76 76 76 75 75 75 76 77 78 80 81 82 82 82 81 80 81 81 82 82 83
82 83 83 83 83 83 83 83 83 83 83 83 83 82 82 82 81 81 80 80 79 77 76 76 76 76 76 76 77 79 81 82 83 82 81 80 79 80 82 82 83 83

ECMWFNIL_250_spd_021.txt.gz
Wind_Speed
53 51 50 49 48 47 47 47 47 46 46 45 44 43 42 41 40 39 39 39 38 38 37 37 36 36 36 36 37 37 37 38 39 40 40 40 39 38 37 38 41 45
54 53 52 50 49 48 48 48 48 48 47 47 47 46 45 44 43 42 42 42 41 40 40 39 38 38 37 37 37 38 39 39 40 40 41 41 41 41 40 39 39 41
53 53 53 52 52 51 49 48 48 48 49 49 49 48 48 47 46 45 44 44 44 43 43 42 41 40 40 39 38 38 39 40 41 42 42 42 42 43 43 42 41 41
53 51 52 52 54 54 52 51 50 49 49 49 50 50 49 49 48 48 47 46 46 45 45 45 44 43 42 42 41 40 40 40 41 42 44 45 45 45 45 44 44 43
54 50 50 50 51 53 53 53 52 52 50 50 50 50 50 50 50 49 49 48 48 48 48 47 47 47 46 45 44 43 43 42 42 42 43 45 46 47 47 47 46 46
58 53 50 49 50 52 53 54 54 54 53 52 51 50 49 50 50 50 50 50 50 50 50 50 50 50 49 48 47 47 46 45 45 44 44 44 46 47 48 48 49 49
62 59 55 53 52 51 51 54 55 55 55 55 54 52 51 51 51 52 52 52 51 51 51 51 52 52 51 51 51 50 49 49 48 48 47 46 46 47 48 49 50 50
61 61 59 58 57 54 53 53 53 53 55 55 56 55 55 55 54 54 54 53 53 52 52 52 52 53 53 53 53 53 52 52 51 51 50 50 49 49 49 49 50 51
61 62 61 60 59 59 58 56 52 51 52 54 56 57 58 58 57 57 57 55 54 54 54 54 54 53 54 54 54 55 55 55 55 54 53 53 53 52 52 52 51 51
59 63 65 63 62 62 63 64 61 59 58 58 58 59 59 59 59 59 58 57 57 56 56 56 56 55 55 55 56 56 57 57 57 57 57 56 55 55 55 55 55 54
59 62 63 63 64 64 65 68 68 67 66 65 63 61 61 62 62 61 60 59 60 59 58 58 58 57 57 57 58 58 58 58 58 58 58 58 58 58 58 58 57 58
58 59 58 58 60 61 62 63 64 63 61 62 63 62 61 63 64 64 64 64 62 61 59 59 59 59 60 60 59 59 59 59 59 59 59 59 60 60 61 61 60 60
55 55 55 56 56 57 57 58 58 58 57 58 60 58 58 59 59 61 63 64 62 60 59 60 60 61 62 63 62 61 60 60 59 59 59 60 61 61 62 63 63 63
54 54 54 54 55 55 55 55 55 55 55 56 56 55 55 55 54 56 58 59 60 58 56 58 59 60 61 63 64 64 62 61 61 61 61 62 62 63 63 63 64 64
54 54 54 54 54 54 55 55 55 54 54 55 55 55 55 55 55 57 58 58 58 56 55 57 59 59 59 60 62 63 63 63 64 64 64 64 65 66 66 66 66 65
54 55 54 54 54 54 54 55 56 55 55 55 56 56 56 56 57 58 58 57 56 56 56 58 59 61 61 60 61 61 62 63 64 65 66 66 68 69 69 69 69 68
54 54 55 54 54 54 54 55 56 57 56 56 57 57 58 58 57 58 58 57 56 56 58 59 59 60 61 61 62 61 61 62 63 64 65 66 67 69 70 70 70 71
54 55 56 56 56 56 56 56 56 57 57 58 58 59 59 59 59 59 59 59 58 59 59 60 60 59 60 62 63 63 62 62 63 63 64 65 65 67 68 69 70 71
56 57 57 58 58 59 59 59 59 59 59 59 60 61 61 61 61 61 61 61 61 61 62 63 63 62 62 63 64 64 63 63 63 64 65 65 65 66 67 68 69 69
58 58 59 59 60 61 61 62 62 62 62 62 63 63 63 64 63 64 64 64 63 63 64 65 66 66 66 65 65 65 65 65 66 66 66 67 68 68 68 69 69 68
60 60 61 61 62 62 62 63 64 65 65 66 66 66 66 66 66 66 66 66 66 65 65 67 69 69 69 69 68 67 67 68 68 68 68 69 72 73 73 74 73 72
63 63 63 63 63 64 64 65 65 66 67 67 68 68 68 68 68 68 68 68 68 68 68 70 71 72 72 72 71 70 69 70 70 71 70 72 75 76 77 77 77 77
66 66 66 66 67 67 67 67 67 68 68 69 69 70 70 70 70 70 69 69 70 70 72 73 73 73 74 74 73 73 72 73 73 74 74 75 76 77 77 77 78 78
69 69 70 70 70 70 70 70 70 70 70 70 70 70 71 70 70 70 70 70 71 72 74 75 75 75 75 75 75 75 75 76 76 77 77 78 78 79 80 79 79 79
71 72 72 72 73 73 73 73 73 72 72 71 71 71 71 71 70 70 70 71 73 74 75 76 76 76 76 77 77 77 77 78 79 79 79 79 80 81 82 83 82 82
73 74 74 74 74 75 75 75 74 74 74 73 72 72 71 70 70 69 70 72 74 75 76 76 76 77 77 78 78 78 79 79 80 80 80 80 81 81 83 84 84 84

ECMWFNIL_250_spd_024.txt.gz
Wind_Speed
50 52 53 49 47 46 46 46 44 42 41 41 40 39 39 38 38 39 40 41 41 41 40 39 38 37 37 38 37 37 36 36 36 35 34 33 33 33 35 37 38 40
49 52 54 53 51 49 48 47 46 44 44 43 43 42 43 41 40 40 40 41 42 43 42 42 41 40 39 39 39 39 39 38 38 38 37 36 35 34 35 36 38 39
48 51 53 55 55 52 50 49 48 45 44 45 45 45 45 44 43 42 41 42 43 44 44 44 44 43 42 42 42 41 41 41 40 40 39 38 38 37 36 36 37 39
48 51 55 59 61 59 57 56 53 48 46 48 49 48 48 47 46 46 45 44 43 44 45 46 46 46 45 45 44 44 44 44 43 42 41 41 40 39 39 38 38 39
49 50 55 60 62 62 63 62 59 54 52 52 52 51 51 50 49 49 48 47 46 45 45 46 47 48 48 48 47 47 46 46 46 45 45 44 43 42 41 40 40 40
50 50 53 58 61 63 65 66 63 58 56 55 55 54 53 52 51 49 49 49 48 47 47 47 47 48 49 50 50 50 49 49 48 48 48 47 46 45 44 43 42 42
56 55 55 59 63 66 68 70 68 66 62 59 57 57 56 55 54 53 52 51 51 50 49 48 48 48 49 50 51 52 52 51 51 51 50 50 49 49 48 47 46 44
54 52 53 56 61 65 69 71 72 70 67 64 61 60 60 60 59 58 57 55 53 53 52 51 50 50 50 50 51 52 52 53 53 53 53 53 52 51 51 50 50 48
47 46 49 53 56 59 61 64 66 66 65 64 63 63 63 63 62 61 59 57 55 55 55 54 53 53 53 53 52 52 52 53 53 54 54 55 55 55 54 54 53 52
46 44 44 42 41 42 45 49 54 60 62 62 63 64 64 64 64 63 62 61 59 56 55 55 56 56 56 55 55 54 53 53 53 53 54 55 56 57 57 57 56 55
50 49 47 41 34 31 36 43 48 55 59 58 58 61 63 65 65 65 65 63 61 58 56 56 57 57 58 58 57 57 56 55 55 55 54 54 56 57 58 59 59 59
46 52 54 53 46 37 33 35 39 48 55 54 52 55 59 62 65 67 67 65 64 63 63 63 64 65 65 64 62 60 59 58 58 57 56 55 56 57 58 59 60 60
46 52 53 55 57 51 44 40 42 51 58 59 58 59 59 59 62 65 67 67 67 66 67 68 68 68 67 65 64 63 62 61 60 59 58 58 58 59 59 60 60 60
54 55 54 55 58 61 61 59 59 63 67 67 67 66 62 60 60 62 63 65 66 65 64 64 63 63 62 61 61 62 63 63 62 62 62 61 61 61 61 61 61 61
57 57 57 57 58 61 65 68 68 69 70 70 69 66 63 61 60 60 60 61 62 62 61 59 58 58 58 58 58 58 60 61 62 63 63 62 62 62 63 63 63 63
60 59 58 59 59 61 64 66 68 69 69 68 67 64 63 61 60 60 60 60 60 60 59 59 58 57 56 56 56 56 56 57 58 60 62 63 63 63 63 64 64 65
61 61 61 61 61 62 63 65 66 66 66 65 64 64 63 61 61 61 60 60 60 60 60 59 59 58 57 57 57 56 56 56 57 58 61 63 64 64 64 63 63 63
62 62 62 62 63 63 64 64 64 64 63 63 63 62 62 61 61 61 61 61 60 60 60 60 60 60 59 59 58 58 57 57 57 59 61 62 64 65 65 65 64 64
62 62 62 62 63 63 63 63 63 62 62 61 61 61 61 61 61 61 61 62 62 61 61 61 62 62 62 62 61 61 60 59 60 61 62 63 63 64 65 66 67 67
62 62 62 62 63 63 63 62 61 61 61 61 61 61 61 61 61 62 62 62 63 63 63 63 63 64 64 64 64 64 63 63 63 64 64 65 65 64 64 65 66 68
61 60 61 62 62 63 62 62 61 61 61 61 61 61 62 62 63 63 63 64 64 65 65 66 66 66 66 66 66 67 67 67 67 67 67 67 68 67 67 66 67 69
60 60 61 61 62 62 62 62 62 62 62 62 62 62 62 63 63 64 65 65 66 67 67 68 69 69 69 69 69 70 70 70 70 70 70 70 70 70 70 70 70 71
60 61 61 62 62 63 63 64 64 64 64 64 64 64 64 64 64 65 66 67 67 69 69 70 71 71 71 72 72 73 73 73 74 74 73 73 73 73 73 73 73 74
62 62 63 63 64 65 65 65 65 65 66 66 66 66 66 66 66 66 67 68 69 70 71 72 73 73 73 74 74 75 75 76 77 77 77 76 76 76 75 75 76 76
64 65 66 66 67 67 67 67 68 68 68 69 69 69 68 68 68 68 69 70 71 71 72 73 74 75 75 75 76 76 77 77 78 79 79 79 79 79 78 78 78 79
67 68 69 69 69 70 70 70 70 71 71 71 71 71 70 70 69 70 70 71 72 73 74 74 75 75 76 76 77 78 78 79 79 80 81 81 81 81 81 81 81 81

ECMWFNIL_250_spd_027.txt.gz
Wind_Speed
43 42 42 43 43 42 40 41 44 45 45 44 43 42 42 41 40 39 39 38 36 34 34 35 36 38 39 40 40 39 38 36 34 32 30 30 29 29 28 28 27 27
47 46 45 44 44 44 42 41 43 46 48 48 47 46 45 44 43 41 40 39 38 36 36 36 37 38 39 40 41 41 41 40 38 36 34 33 32 31 31 31 30 30
54 54 53 50 47 45 45 44 44 46 48 50 51 50 49 48 47 45 44 43 43 42 41 40 40 41 41 41 41 41 42 42 41 40 38 37 35 34 34 34 34 33
56 58 57 55 53 49 47 47 46 46 47 48 51 52 51 51 51 50 49 49 48 47 46 44 43 43 44 44 43 43 42 42 42 42 42 41 39 38 37 37 37 36
54 56 57 57 56 52 50 49 47 47 48 48 49 50 52 53 54 54 54 54 53 50 48 47 46 46 46 46 45 44 43 43 43 43 43 44 43 42 41 41 40 40
51 52 54 56 57 55 52 51 51 50 49 47 48 50 52 55 56 57 57 57 56 54 53 52 51 50 49 48 46 45 44 44 44 44 44 45 45 45 45 44 44 43
53 53 52 53 54 54 54 55 56 56 53 51 51 52 55 57 57 58 59 59 59 58 58 58 58 56 54 52 50 48 47 46 46 46 45 45 46 47 47 47 47 46
57 56 55 54 54 56 58 59 59 59 57 55 54 55 57 58 59 60 60 60 58 58 59 60 60 59 58 56 54 52 51 49 47 47 46 46 46 46 48 49 49 49
57 59 60 60 59 59 61 60 59 59 57 55 55 57 57 58 59 60 59 58 56 55 55 56 56 56 56 56 55 55 54 51 49 47 48 48 49 48 47 48 49 50
53 56 58 59 59 59 59 58 57 57 56 55 55 56 58 59 61 62 60 58 56 54 51 50 51 52 54 54 54 55 54 53 52 51 49 49 50 50 49 48 48 49
52 54 54 55 55 55 55 55 54 54 54 53 52 54 55 54 53 53 54 52 50 49 48 46 46 47 49 51 52 54 54 54 55 54 52 50 50 50 50 50 49 49
53 53 52 53 52 52 53 53 54 54 53 51 49 49 49 45 38 36 40 42 41 41 42 43 44 46 48 49 50 51 53 55 56 56 55 53 52 52 52 52 53 53
51 51 51 51 52 53 53 53 53 54 53 51 48 46 46 45 40 35 35 39 43 45 46 46 48 50 51 51 50 51 53 55 56 57 57 57 57 58 58 59 60 61
51 51 51 51 53 54 54 52 51 51 50 48 48 47 45 45 46 42 39 42 47 50 53 55 56 56 56 55 55 56 58 58 57 57 58 59 60 61 62 63 63 63
55 55 54 54 54 55 54 53 52 52 52 52 52 52 48 48 51 51 49 50 53 55 58 62 63 63 63 62 62 61 60 58 57 57 57 58 59 60 61 62 62 61
57 57 57 57 56 56 56 55 55 55 56 57 57 57 55 56 60 61 58 57 59 61 64 66 67 68 68 68 67 65 61 59 57 56 56 56 57 57 58 59 60 60
58 58 58 58 57 56 57 58 58 59 60 60 61 62 61 62 66 68 67 64 63 64 67 69 71 72 72 71 70 67 64 62 60 58 57 56 56 56 56 57 58 58
59 60 60 60 59 59 60 62 63 65 66 66 66 67 68 68 70 71 71 70 70 71 72 74 75 76 74 72 69 67 65 64 63 61 60 58 57 56 57 57 57 58
61 61 62 63 63 64 66 67 68 69 70 70 70 70 71 72 72 73 73 73 74 75 75 75 75 75 73 71 69 67 65 64 64 63 62 62 61 59 59 59 59 59
62 63 64 65 66 67 69 70 71 71 71 71 71 71 72 72 73 73 74 74 74 75 74 74 73 72 71 69 68 67 65 65 64 64 64 64 64 63 62 62 62 62
63 64 65 66 67 69 70 71 71 72 72 72 71 71 71 72 72 72 73 73 74 74 73 73 72 71 69 68 67 66 66 66 65 66 66 66 66 66 66 66 66 66
63 64 65 66 68 69 70 70 71 71 71 71 71 71 71 71 71 72 72 72 72 72 72 72 71 70 69 68 68 67 66 66 67 67 68 68 69 69 69 70 71 71
60 61 62 64 65 66 67 68 68 68 68 69 70 70 71 71 71 71 71 71 71 71 71 71 70 70 69 69 69 69 68 68 68 68 69 70 70 71 72 73 73 74
59 59 60 62 63 65 66 66 67 67 68 69 69 70 70 70 69 69 69 70 70 70 70 70 70 70 69 69 69 69 69 69 70 70 71 72 72 73 74 75 75 76
59 59 61 63 64 65 66 66 67 67 68 68 68 68 68 68 68 68 68 69 69 70 70 70 70 70 70 70 70 70 71 71 72 73 74 74 75 76 76 77 77 78
61 60 61 63 64 64 65 65 66 66 66 67 67 67 67 67 67 67 68 69 70 71 72 72 72 72 72 72 73 73 74 74 75 75 76 76 77 78 79 79 80 80

ECMWFNIL_250_spd_030.txt.gz
Wind_Speed
39 40 41 42 42 42 42 41 40 39 38 37 37 37 37 37 38 38 39 40 40 40 39 38 37 35 34 31 30 29 28 28 28 28 28 28 28 29 30 30 30 29
42 42 42 43 43 44 45 46 45 44 43 42 41 40 39 39 39 39 39 40 41 42 42 42 42 41 39 38 36 34 34 33 33 32 31 31 31 31 32 32 32 32
46 46 46 46 46 47 47 47 49 49 47 46 45 44 43 41 41 41 40 40 42 44 45 46 46 45 44 43 42 41 40 39 39 37 35 33 33 34 34 34 34 34
47 48 48 50 51 53 51 50 51 51 50 49 48 47 47 45 43 42 42 42 43 44 46 48 49 49 48 47 46 46 46 45 45 43 40 37 34 35 35 36 36 36
47 48 48 50 52 54 54 52 53 53 50 50 51 52 52 51 48 45 43 43 43 45 46 47 49 50 51 51 50 50 50 50 49 48 46 42 38 37 36 36 37 37
50 51 49 48 50 53 53 53 54 54 53 52 53 54 54 54 52 49 46 44 44 45 46 47 48 49 51 52 52 53 53 53 52 51 49 47 44 42 40 39 38 38
55 54 52 51 53 54 53 51 51 52 52 52 52 53 53 54 53 52 50 49 48 48 48 49 50 51 51 52 53 53 54 54 54 54 53 51 49 47 45 43 41 40
59 58 58 57 56 55 52 50 49 50 51 52 53 52 52 53 54 54 54 54 54 54 54 54 54 55 55 54 54 54 55 55 55 55 54 53 52 50 47 45 44 43
60 61 61 60 58 55 54 53 52 53 54 55 55 54 54 54 55 56 57 57 58 59 59 58 58 57 57 56 56 56 56 57 56 55 54 53 52 50 48 46 45 44
58 58 59 59 59 59 58 58 57 57 58 58 57 55 55 56 57 57 57 58 60 61 61 60 58 58 57 57 57 58 58 58 57 56 52 48 46 45 45 45 45 45
56 56 56 57 58 59 60 60 59 57 57 56 55 54 54 55 55 55 54 55 57 59 59 58 57 57 57 57 58 59 59 58 56 52 47 40 38 38 39 41 43 45
55 55 55 55 56 57 57 57 55 54 54 53 53 54 54 55 54 53 52 53 55 56 57 57 57 59 59 58 58 55 50 47 44 42 39 36 37 38 39 40 41 42
55 55 55 55 55 55 55 55 54 53 52 52 52 53 54 54 54 52 51 53 55 56 57 58 58 59 59 59 56 48 39 35 34 36 38 41 44 44 43 43 44 44
55 56 56 55 55 54 54 54 53 52 52 52 52 51 51 51 53 53 53 55 57 57 57 56 55 54 54 54 54 50 44 42 41 43 47 49 49 48 47 47 47 46
56 56 57 56 56 55 55 55 54 53 53 52 52 51 50 50 51 53 56 58 57 56 56 54 51 50 49 50 53 55 54 52 52 52 52 52 51 50 50 50 48 48
56 57 58 58 58 58 58 58 57 57 55 55 54 53 54 54 54 56 59 60 58 57 56 54 53 51 49 50 53 58 59 59 59 58 57 57 55 54 53 52 51 50
58 58 59 60 61 61 61 61 60 60 59 58 58 57 58 58 59 59 60 61 61 60 59 58 57 56 54 53 55 59 62 63 63 63 63 62 61 59 57 56 54 52
61 61 61 62 62 62 62 62 62 62 61 61 61 61 61 61 61 61 62 62 63 63 62 62 61 61 60 59 59 61 64 66 66 66 67 67 66 65 64 62 59 57
65 64 64 64 64 64 63 63 63 63 63 62 63 63 63 63 62 61 62 63 64 65 65 65 65 65 64 64 65 66 68 69 70 70 70 70 69 69 68 67 64 61
67 67 66 66 66 65 65 64 63 63 64 64 65 65 65 65 65 64 64 65 67 67 68 69 69 69 69 70 71 72 72 72 72 72 72 71 71 70 69 68 66 64
66 66 66 66 66 67 67 66 66 65 65 65 66 66 67 67 67 68 68 68 69 70 71 72 72 73 73 73 73 73 73 72 72 72 72 72 72 71 70 68 67 65
64 64 63 64 64 65 66 67 67 67 67 67 67 67 68 69 69 70 70 71 71 72 73 74 74 74 74 73 72 71 71 71 71 71 72 72 72 72 71 69 68 67
61 62 62 62 62 63 65 66 67 67 67 67 68 69 70 71 72 72 72 73 73 74 75 75 75 74 73 72 71 70 69 69 70 70 71 71 71 71 70 69 68 67
59 60 59 59 60 61 63 64 65 66 67 68 69 70 71 72 73 73 73 74 74 75 75 75 74 73 72 70 69 68 68 68 69 70 70 70 71 70 70 69 69 68
59 59 59 58 58 59 60 62 63 63 65 66 68 69 71 72 72 72 72 73 73 73 73 73 72 70 69 68 67 67 67 68 68 69 69 69 69 69 70 70 70 70
61 61 60 60 59 59 60 60 61 61 62 64 65 66 68 69 69 69 69 70 70 70 70 70 69 68 67 67 67 67 67 67 67 67 67 68 68 68 69 70 70 71

ECMWFNIL_250_spd_033.txt.gz
Wind_Speed
43 41 40 40 39 38 38 37 36 36 36 36 36 36 36 36 35 34 33 32 32 31 31 31 31 33 35 36 37 37 36 34 33 32 31 30 29 27 26 26 26 26
46 44 43 43 42 42 42 42 42 41 40 39 38 37 37 37 37 38 38 39 38 38 37 35 34 34 34 36 38 39 39 38 37 36 36 35 34 34 33 32 31 30
45 44 43 43 44 44 44 44 45 45 45 44 43 42 41 41 40 41 41 42 42 42 42 40 39 38 37 37 38 39 41 41 41 41 40 40 39 39 39 38 37 36
45 44 44 44 45 45 46 46 47 49 50 49 47 45 45 45 45 45 45 45 44 44 44 44 43 42 41 41 41 41 42 43 44 44 44 44 43 43 43 42 42 41
47 47 48 49 50 49 49 49 49 51 53 52 49 47 48 49 49 48 48 48 47 46 45 45 45 45 45 45 45 44 44 45 45 45 46 46 46 46 46 46 45 44
50 51 52 53 53 53 53 53 53 54 55 55 53 50 50 51 51 50 49 49 48 48 47 47 47 47 47 47 46 46 46 45 45 44 45 45 46 47 47 47 46 45
52 52 52 52 53 54 55 55 55 55 56 56 54 52 51 51 52 52 52 51 50 49 49 49 49 48 48 48 47 47 47 46 45 44 44 45 46 47 47 47 47 47
53 54 54 55 55 56 56 56 56 56 56 56 55 54 51 51 52 52 51 51 51 51 52 52 51 50 50 50 49 49 49 49 49 49 49 49 49 49 50 49 49 48
57 57 58 58 58 57 57 57 57 58 59 60 60 59 56 53 53 52 51 51 52 53 54 54 53 53 53 53 52 52 52 52 53 53 53 52 51 51 51 51 50 49
60 61 61 60 60 59 58 58 57 57 58 59 60 61 60 58 57 56 56 56 56 56 56 56 56 55 54 54 54 54 54 54 55 54 54 53 52 51 51 50 51 51
63 64 63 62 62 61 60 59 58 58 58 58 58 59 59 58 57 57 58 59 59 59 59 58 56 54 53 52 52 52 52 53 54 53 52 50 49 49 48 47 48 48
65 65 64 63 63 62 62 61 59 59 58 58 58 58 57 57 55 56 57 58 59 60 59 57 56 54 52 51 51 50 49 51 52 51 49 48 46 45 44 41 40 37
66 66 65 65 64 63 63 62 61 59 59 58 58 57 57 55 55 55 56 57 58 58 57 56 55 54 52 50 49 49 48 50 50 49 48 46 44 42 40 36 31 26
66 66 66 66 65 65 64 63 62 60 59 59 58 57 56 55 55 55 56 56 56 56 56 55 54 53 51 49 49 48 47 48 49 49 48 47 44 41 37 34 30 29
67 67 67 67 66 65 64 63 62 61 60 59 59 58 57 56 55 55 55 55 54 54 54 54 54 53 52 51 50 49 48 48 49 50 50 49 47 43 40 38 38 39
68 68 68 68 67 66 65 63 62 61 60 60 59 59 58 58 57 57 57 56 55 54 53 53 53 53 52 53 52 51 50 50 50 51 52 52 51 49 47 45 44 45
70 70 70 69 67 66 65 64 63 63 62 61 61 60 60 59 59 59 59 59 58 57 56 55 55 54 54 54 54 54 54 54 53 53 53 54 55 54 53 52 50 50
72 71 71 70 69 67 66 65 65 64 63 63 62 62 62 62 61 62 63 63 62 61 60 60 59 58 57 58 58 58 57 57 56 55 55 56 56 57 57 56 56 55
73 72 72 71 70 69 67 67 66 65 64 64 64 64 64 64 63 64 65 65 64 64 63 63 63 62 61 61 61 61 60 59 58 58 57 57 57 58 59 59 59 59
74 73 73 72 72 70 69 68 67 65 64 63 63 65 66 65 65 67 67 66 65 65 65 65 65 64 63 63 63 62 62 61 60 60 59 59 59 60 61 62 62 63
74 74 73 73 72 71 70 69 68 67 66 65 65 68 69 68 68 69 68 67 67 67 67 67 67 66 66 65 64 64 63 63 63 62 62 62 62 63 64 65 66 67
72 72 72 72 71 70 70 69 69 68 68 69 70 71 71 70 70 70 70 70 70 70 70 69 69 69 68 68 67 66 66 66 66 65 65 65 66 66 67 68 70 71
69 69 69 69 68 67 67 67 67 67 67 67 68 68 68 68 69 70 71 71 72 72 72 72 72 71 71 70 70 69 68 68 67 67 67 67 68 69 70 71 72 73
66 66 66 66 65 64 64 64 64 64 64 64 64 64 64 65 66 67 69 70 70 72 73 73 74 73 73 72 72 71 70 69 69 68 69 69 70 70 71 72 72 72
65 65 65 65 64 63 62 62 61 62 62 62 62 61 61 62 63 64 66 67 68 69 71 71 72 73 73 73 72 71 71 70 70 70 70 70 71 71 71 71 70 69
67 67 66 66 65 64 63 62 61 61 61 61 61 61 61 61 61 62 64 65 66 67 68 69 69 70 70 70 70 69 69 69 69 69 69 69 69 69 69 68 67 66

ECMWFNIL_250_spd_036.txt.gz
Wind_Speed
41 43 44 44 43 42 41 41 41 40 37 35 35 34 33 32 31 31 31 31 31 31 32 32 32 32 31 31 31 31 30 30 31 32 34 35 34 34 34 34 33 31
45 45 45 46 46 44 43 43 43 41 38 37 36 35 35 34 34 34 34 34 34 35 36 36 36 36 35 35 35 36 36 35 34 33 33 33 33 34 35 36 36 36
50 49 48 48 47 45 43 44 44 43 41 39 38 37 37 37 37 37 37 38 39 39 39 39 39 39 39 39 39 38 38 38 37 36 35 34 35 35 36 37 39 40
54 53 52 50 48 47 45 46 47 46 44 41 40 41 41 42 42 42 43 43 44 44 43 42 41 42 42 42 41 40 40 39 39 39 38 37 37 37 38 39 41 43
55 54 52 50 49 48 47 48 48 47 44 43 43 45 46 45 45 45 46 47 47 46 45 45 45 44 44 44 43 42 41 41 41 41 41 41 40 40 40 41 42 44
50 50 50 49 48 47 46 47 47 46 45 45 46 46 46 46 46 47 48 49 49 48 48 47 47 47 46 45 45 45 44 44 44 44 44 44 44 43 43 43 43 43
46 46 46 46 45 45 46 47 47 46 47 48 48 48 48 48 49 50 51 52 51 50 50 50 50 50 50 49 49 48 48 48 47 47 47 46 46 45 44 44 44 44
47 48 48 47 47 47 49 51 51 52 52 52 51 51 51 52 52 53 53 53 53 52 52 53 53 54 54 53 52 51 50 49 49 49 49 49 48 47 47 46 46 46
52 53 53 53 53 53 54 56 57 58 59 57 56 54 54 54 54 54 55 55 55 54 54 54 55 55 55 54 52 51 51 50 50 51 51 51 51 50 50 50 49 49
60 59 59 58 58 58 59 60 61 61 62 61 59 58 57 56 56 56 56 57 57 56 56 55 55 55 54 54 53 53 53 53 53 54 53 53 53 53 53 52 52 52
65 64 62 61 60 60 62 64 64 64 64 63 62 61 60 60 59 58 58 58 58 58 57 57 56 56 55 54 53 53 54 54 55 55 55 54 54 53 52 52 51 51
66 66 66 66 65 65 66 66 67 67 66 65 64 63 63 62 62 60 59 59 59 59 59 58 57 57 55 54 53 53 53 54 54 54 54 54 53 52 51 50 50 49
69 69 69 70 69 68 68 69 70 70 68 66 65 65 65 65 64 62 61 60 60 59 59 58 57 57 56 54 53 53 53 53 52 52 53 53 53 52 51 51 50 49
70 70 71 71 70 70 71 71 71 70 68 67 66 66 65 65 64 63 63 62 62 60 59 59 58 57 57 55 54 54 53 53 52 51 51 51 51 51 51 50 49 48
70 70 70 71 71 72 71 70 69 68 68 67 66 65 64 65 65 65 64 63 63 62 60 59 58 58 58 57 56 56 55 54 52 50 49 49 49 49 49 48 48 47
69 69 70 70 71 71 71 70 70 70 69 69 67 66 65 65 66 65 65 64 64 63 62 60 59 58 58 58 58 58 57 56 55 53 51 51 50 50 49 49 49 49
70 70 71 71 72 72 73 73 73 72 72 70 69 67 66 66 65 64 63 63 63 62 61 60 59 58 59 59 59 59 58 58 57 55 54 53 53 53 52 52 52 51
72 73 73 74 74 74 75 75 74 74 73 72 70 67 65 63 62 61 60 59 60 60 59 57 56 56 58 59 59 59 59 58 57 56 56 57 57 57 56 56 55 54
75 75 76 76 77 77 77 77 76 76 75 73 70 66 61 58 54 52 52 55 57 59 60 58 55 55 57 59 60 61 61 60 60 59 59 60 61 61 60 59 58 57
78 78 79 79 79 79 79 79 79 78 76 74 71 69 67 64 62 60 60 60 61 62 63 62 60 61 63 65 64 63 63 63 63 63 62 62 62 62 62 62 62 61
80 80 81 81 81 81 81 81 81 80 78 77 75 73 72 69 68 68 68 68 68 68 66 63 62 64 65 66 67 66 65 65 66 66 65 65 64 64 64 64 64 64
81 82 82 82 82 82 82 82 81 81 79 78 76 75 73 72 70 69 70 70 71 72 70 66 65 65 65 66 67 68 68 69 70 70 70 69 68 67 67 66 66 65
79 80 80 80 80 80 80 80 79 79 78 76 75 74 73 72 71 70 70 71 72 75 75 74 73 73 73 73 74 74 74 75 75 74 73 73 72 71 70 69 69 68
73 73 73 73 73 74 74 74 74 73 73 72 71 70 70 70 70 70 70 71 73 75 77 78 78 78 78 78 78 77 77 76 75 74 73 73 73 72 72 71 71 70
70 70 70 70 69 70 70 70 70 70 69 68 67 67 67 67 67 68 68 69 71 73 75 76 77 77 77 76 76 75 74 73 72 72 72 71 71 71 71 71 71 71
71 71 71 71 71 70 70 70 70 70 69 68 67 66 65 65 66 66 66 67 68 70 71 72 73 73 73 73 72 71 70 70 70 70 69 69 69 69 69 69 69 69

ECMWFNIL_250_spd_039.txt.gz
Wind_Speed
48 45 48 49 45 42 41 41 41 41 41 40 41 41 42 41 38 34 33 32 31 30 29 28 28 28 27 27 27 28 29 29 29 30 29 30 30 31 32 31 31 32
54 50 48 50 50 48 48 49 50 50 48 46 45 44 45 45 41 36 34 35 33 32 31 30 30 31 31 31 32 32 32 32 32 33 33 34 35 35 35 35 34 32
60 58 54 52 51 52 53 54 54 53 51 49 47 46 47 46 43 39 38 37 35 33 33 32 32 33 33 34 35 35 35 35 35 36 36 37 37 37 37 37 37 36
60 62 61 57 53 53 54 55 55 54 54 52 51 49 48 47 46 44 40 38 37 35 35 35 34 34 34 35 36 37 37 38 38 38 38 39 38 38 38 38 38 37
55 57 58 58 56 55 55 56 57 56 55 54 53 51 50 49 49 46 42 40 39 38 38 38 38 37 37 38 38 39 40 40 41 41 41 41 40 40 39 39 39 39
54 54 55 56 56 56 57 58 58 58 57 56 54 52 50 49 47 44 43 42 41 41 41 42 42 42 42 42 41 41 42 42 43 43 43 43 43 43 43 43 43 43
57 57 56 56 55 54 54 54 55 56 56 55 53 51 49 47 45 44 45 45 46 46 47 47 47 47 47 46 45 44 44 45 45 45 45 45 45 46 46 47 47 46
60 60 59 58 56 54 53 54 54 54 53 52 50 48 47 46 46 47 49 50 51 52 52 51 51 51 51 50 49 48 48 48 48 48 48 48 48 48 48 48 48 48
58 59 60 60 60 59 59 60 59 57 55 52 50 49 49 50 51 52 54 54 55 56 56 56 55 54 54 53 53 52 51 52 51 50 50 49 49 49 49 48 48 49
58 58 60 62 64 64 65 65 63 60 56 54 53 53 54 56 57 57 58 59 59 60 60 59 59 58 57 57 56 55 55 54 53 52 51 51 50 50 49 49 49 49
62 61 61 63 65 66 66 66 64 62 59 57 56 57 59 62 63 62 62 62 62 63 64 64 63 62 60 59 58 58 57 56 55 53 53 52 51 50 49 49 48 49
68 66 65 64 65 65 66 65 64 63 62 60 61 63 66 67 67 67 66 66 67 68 68 67 67 65 63 61 60 59 59 57 56 56 54 53 52 51 50 49 48 48
69 70 70 69 69 69 68 68 69 68 68 68 69 71 70 69 69 68 68 69 70 70 70 69 68 66 64 63 62 61 60 60 59 57 55 54 52 51 50 50 49 49
70 71 71 71 72 73 73 74 74 74 73 73 72 70 68 67 67 68 70 71 71 70 69 67 65 64 63 64 63 63 62 61 59 56 53 52 51 50 49 49 50 50
71 71 69 68 69 70 71 73 73 73 73 71 70 68 66 65 66 68 70 69 67 64 60 59 60 62 63 63 61 60 59 57 55 52 50 48 47 46 46 47 48 49
71 71 70 69 68 68 69 70 71 71 70 68 67 65 62 63 64 64 62 59 56 56 56 57 58 57 56 56 55 54 53 52 50 48 45 44 43 41 42 44 45 47
70 71 71 71 71 71 71 71 71 71 70 69 68 65 63 61 55 50 51 52 52 53 54 49 44 42 45 47 48 48 49 49 48 44 41 41 41 40 40 43 46 49
68 70 71 72 73 73 73 73 72 71 70 70 69 67 65 60 51 49 54 57 57 58 53 43 38 41 46 47 48 49 49 49 48 42 37 36 36 36 39 43 47 50
68 69 70 71 72 74 74 75 74 74 72 71 69 67 65 61 60 62 66 68 68 68 64 57 55 58 59 58 58 57 55 52 49 45 43 41 38 38 42 47 51 52
69 70 70 71 72 73 74 74 74 74 74 73 71 70 68 68 70 73 75 76 77 75 73 71 70 71 71 70 69 68 65 61 56 54 54 52 48 48 51 54 56 58
71 72 73 73 74 75 75 75 75 75 76 76 76 75 75 76 77 79 80 81 81 81 80 78 77 77 77 77 77 76 73 70 65 63 64 64 62 62 62 63 65 67
74 74 75 76 77 78 78 78 78 78 79 79 80 80 80 81 81 82 83 84 83 83 83 81 80 80 79 80 82 80 77 74 71 67 66 66 67 68 69 71 72 73
78 78 79 79 80 81 81 81 81 82 82 82 83 83 83 83 83 83 83 83 82 81 80 79 78 76 75 77 80 79 76 74 72 70 68 68 69 70 71 71 72 72
78 79 80 81 82 82 82 82 82 82 82 81 81 81 80 80 79 79 78 78 77 76 76 75 73 72 71 72 75 76 75 72 71 71 71 71 72 73 73 73 74 75
73 74 75 76 78 78 78 78 78 77 76 76 76 75 75 75 74 74 74 73 72 73 72 71 70 69 69 70 71 73 73 72 72 71 70 70 71 71 73 74 75 76
71 72 73 74 75 75 74 74 74 73 73 72 73 73 73 73 72 72 72 72 72 72 71 70 69 69 69 69 70 71 71 71 72 71 69 69 68 68 69 70 71 72

ECMWFNIL_250_spd_042.txt.gz
Wind_Speed
47 46 44 43 42 42 43 42 40 39 40 41 42 43 44 44 44 44 44 44 45 45 44 41 38 35 32 30 29 27 27 27 27 28 29 29 30 30 30 30 31 32
50 49 48 46 45 45 46 47 46 44 43 44 44 45 46 46 46 46 46 46 46 46 45 44 41 36 34 33 30 29 28 28 28 29 30 31 31 31 31 32 32 33
53 52 51 50 49 49 49 49 49 49 48 48 47 47 47 48 48 49 48 48 47 47 47 47 45 40 37 36 34 32 30 29 29 29 30 31 32 32 33 33 34 35
55 54 53 52 51 51 51 52 52 52 53 53 53 52 52 53 53 53 52 52 51 51 50 49 47 44 41 39 37 36 34 33 32 32 33 34 34 35 35 36 36 37
55 55 54 53 52 51 52 54 54 55 57 57 57 57 58 58 59 58 58 57 56 55 52 50 49 47 43 39 38 38 38 37 37 37 37 38 38 39 39 39 39 39
55 54 53 53 51 51 52 53 54 56 58 59 60 61 61 61 63 63 62 61 58 55 53 51 50 48 44 41 40 41 41 42 42 42 41 41 41 42 42 42 42 42
55 55 54 53 52 51 52 53 54 55 57 58 59 60 62 63 65 66 65 62 59 56 54 53 52 50 47 44 44 44 45 46 46 46 46 45 45 45 45 46 45 45
55 56 56 55 54 53 54 54 55 55 56 57 58 59 62 63 65 66 66 64 61 59 57 57 55 53 50 48 47 48 50 51 51 51 50 49 49 50 50 50 49 48
57 58 59 59 58 57 56 55 56 57 57 58 60 62 64 65 66 67 67 66 64 62 60 59 57 55 52 50 50 52 54 56 56 55 54 54 55 55 55 54 52 51
63 63 62 62 62 61 59 59 59 61 62 63 64 65 66 67 67 68 68 67 65 64 62 60 58 57 55 54 54 55 58 60 61 61 60 59 59 59 58 57 54 53
65 65 64 63 64 64 63 61 61 62 64 65 66 67 68 68 68 68 67 66 66 64 62 61 59 59 58 58 59 61 64 65 64 63 62 61 61 60 58 55 54 53
63 65 64 63 63 65 65 64 64 64 64 65 66 67 68 68 68 67 66 66 65 64 63 62 61 61 62 63 66 68 68 66 63 62 61 60 59 56 54 53 54 54
57 61 63 61 61 64 65 64 65 65 65 65 66 67 67 68 68 67 67 66 67 67 67 67 66 66 67 68 70 69 66 63 62 61 59 56 53 51 51 52 51 51
46 52 59 61 64 65 65 65 66 66 65 62 61 62 64 65 67 67 67 67 68 68 68 67 67 67 67 67 67 65 62 61 60 57 54 51 49 49 49 48 47 46
51 55 60 65 69 70 70 70 69 69 67 62 60 62 64 66 68 70 70 69 67 65 63 62 62 63 65 65 64 63 62 59 56 52 48 46 45 45 46 46 46 44
61 63 65 67 69 70 71 72 71 71 70 69 68 70 72 74 76 78 78 75 71 67 65 64 64 65 65 65 63 61 60 56 52 46 42 40 41 42 43 44 43 42
67 65 65 66 67 67 68 69 70 72 72 73 75 77 79 80 81 82 81 79 76 74 71 70 69 69 68 66 63 60 57 54 49 44 42 42 43 44 45 43 41 40
72 71 70 69 70 70 70 71 71 73 74 76 78 80 81 82 81 82 81 79 78 76 74 73 72 70 68 67 65 62 58 55 51 47 46 47 47 47 47 46 44 44
73 74 74 74 74 74 75 75 76 76 77 78 78 79 80 80 80 80 80 78 77 75 74 73 72 71 70 69 67 64 61 59 57 55 55 54 54 52 51 51 51 53
72 73 75 75 76 76 76 76 75 75 75 76 76 76 77 77 78 78 78 77 76 74 74 73 73 73 73 71 69 67 65 64 64 64 65 66 66 66 66 66 67 67
72 73 73 73 74 75 75 74 73 73 74 74 75 76 76 77 78 77 77 77 75 74 74 74 74 75 74 72 71 70 69 68 69 71 72 75 77 78 78 79 79 78
72 72 73 72 73 73 74 73 73 74 75 76 76 76 77 77 78 78 78 77 76 74 74 75 75 76 75 74 74 74 75 76 77 78 79 80 81 81 81 81 80 78
72 72 73 73 73 74 74 73 73 74 76 76 76 76 76 77 78 78 79 79 78 77 76 76 77 78 79 79 80 81 82 83 84 83 82 82 81 80 80 79 78 74
70 70 71 71 72 73 73 73 74 75 76 77 77 77 78 79 80 81 81 82 82 81 81 81 81 82 83 84 85 85 85 84 84 84 82 80 79 78 77 75 74 72
68 67 67 68 70 71 72 73 75 76 77 78 77 77 79 80 81 81 82 83 83 83 83 83 83 83 84 85 84 84 83 81 81 80 79 77 76 75 74 73 73 71
69 67 66 67 68 69 69 70 71 72 73 73 72 72 74 74 75 76 77 77 77 77 78 78 79 79 80 80 80 80 80 79 78 77 76 75 74 74 74 74 73 72

ECMWFNIL_250_spd_045.txt.gz
Wind_Speed
43 43 43 42 42 43 42 41 42 43 45 45 46 47 47 46 47 47 48 48 48 46 45 43 41 41 41 41 40 38 35 33 31 31 32 33 33 32 32 32 32 32
43 43 44 45 46 47 47 47 47 48 48 48 49 49 49 49 49 49 49 49 48 47 46 44 44 44 45 45 43 42 40 38 35 33 33 35 35 34 32 32 32 32
44 44 45 46 48 50 51 52 52 53 53 53 53 53 52 52 51 50 50 49 48 47 47 47 47 48 48 47 47 46 44 42 40 37 36 35 35 35 35 35 35 34
45 46 46 48 49 51 52 54 56 57 58 58 58 56 55 54 53 51 51 50 50 50 50 50 51 51 51 50 49 48 46 45 43 41 39 38 37 37 38 39 39 39
47 48 49 50 52 54 55 56 58 59 60 59 58 57 56 55 55 54 54 54 53 53 53 54 54 54 54 53 51 50 48 46 46 45 44 43 41 41 42 43 43 43
50 51 53 53 53 54 55 56 56 56 57 57 56 56 56 57 57 57 57 56 56 56 57 57 57 56 55 54 53 51 50 49 49 49 49 48 46 46 46 46 47 47
48 50 51 53 52 53 54 55 54 54 54 54 54 53 54 56 57 58 58 58 58 59 59 59 58 57 56 55 53 52 52 52 52 52 53 52 51 50 49 50 50 50
49 50 51 52 53 52 53 53 54 54 54 54 54 54 54 55 56 57 58 59 59 59 58 58 58 57 55 54 54 54 54 54 54 55 55 55 54 52 52 52 52 53
49 49 50 52 53 53 53 53 54 55 56 56 56 57 57 57 57 58 58 59 58 58 57 57 57 57 56 56 56 56 57 57 57 56 56 55 55 54 53 53 54 55
42 42 43 46 48 51 54 53 54 55 56 58 59 59 60 60 60 60 60 60 60 59 59 59 58 59 59 59 60 60 60 59 59 58 56 55 55 54 55 56 58 59
25 28 33 38 43 46 50 52 52 53 54 55 57 59 60 61 62 62 62 62 62 62 61 60 61 61 62 63 62 61 61 60 59 58 56 56 57 58 58 59 61 63
24 24 26 32 36 38 41 45 45 47 49 52 54 57 58 60 60 61 62 62 62 62 62 62 63 64 64 64 63 62 61 61 60 57 55 55 57 57 58 59 60 61
37 37 37 39 41 39 38 39 38 40 44 48 52 54 55 56 57 58 58 59 59 59 60 62 65 66 66 65 65 63 63 62 60 58 57 58 59 58 58 59 60 62
48 49 45 44 48 48 45 43 40 39 40 44 49 52 51 51 52 53 54 55 57 59 62 65 67 68 68 68 68 67 65 64 62 61 63 65 64 63 64 65 65 65
53 54 51 48 49 52 53 53 48 44 43 45 47 50 51 51 52 55 58 60 62 64 67 69 69 70 70 69 69 68 67 66 66 68 70 69 68 67 68 68 68 67
54 57 57 57 56 56 58 61 59 56 53 51 50 51 55 57 58 61 64 66 68 68 69 70 69 69 70 70 71 71 71 71 71 73 74 73 72 69 68 68 69 67
53 57 59 61 61 59 57 58 58 56 53 52 52 55 58 59 61 64 66 68 70 70 70 71 70 71 71 72 72 73 73 74 74 75 75 76 74 72 69 67 67 66
48 48 48 50 54 55 51 49 50 51 51 52 53 57 61 62 63 66 67 68 69 70 70 71 72 73 73 74 74 74 75 75 75 76 76 75 74 73 70 68 66 65
49 45 40 37 41 47 47 47 50 54 56 58 59 63 68 70 71 72 73 73 73 73 74 75 76 77 77 77 77 77 77 76 76 76 75 75 74 73 71 70 67 65
57 55 50 45 45 49 52 55 59 62 65 68 71 75 78 79 79 79 78 78 77 77 78 79 79 80 80 79 78 77 76 75 74 74 75 74 74 74 73 72 70 68
64 63 63 61 59 60 62 67 71 74 77 81 83 84 84 84 84 83 82 82 81 80 80 80 80 80 79 78 78 77 77 76 75 75 75 75 75 74 74 73 73 72
72 71 71 71 72 72 74 77 80 83 85 87 88 87 87 87 87 87 87 86 84 83 82 81 81 82 81 81 81 81 81 80 78 77 76 75 75 75 75 75 75 75
77 78 79 80 81 82 83 85 86 87 88 89 90 90 90 90 90 90 88 87 85 84 83 82 82 83 83 83 83 83 83 83 82 80 79 78 77 77 77 78 79 78
81 83 85 86 87 88 88 89 88 88 89 90 90 90 89 89 89 88 87 86 85 84 83 83 83 84 85 84 85 85 85 85 85 84 83 82 81 81 81 82 82 82
81 83 85 86 86 87 87 87 87 87 87 87 87 87 87 86 86 85 85 84 84 84 84 83 83 84 85 85 86 86 86 86 86 85 84 82 80 79 79 79 79 79
80 82 83 84 85 85 85 85 85 85 85 85 86 85 85 84 83 82 81 80 79 80 81 81 81 82 83 83 83 83 83 82 82 81 79 77 75 75 76 76 75 76

ECMWFNIL_250_spd_048.txt.gz
Wind_Speed
41 40 40 39 38 36 35 35 36 38 39 39 39 39 38 38 38 39 40 39 39 38 39 40 41 42 43 43 44 44 44 44 44 43 43 42 41 40 40 38 36 33
44 44 43 43 42 41 40 39 39 40 41 40 40 39 39 39 40 41 41 41 41 41 41 42 43 44 44 45 45 45 45 45 44 44 44 43 42 42 41 40 38 35
45 45 45 45 46 46 46 44 42 43 43 43 42 41 40 42 42 42 43 42 42 42 42 43 44 45 45 45 46 46 45 45 45 44 44 44 43 43 43 42 41 38
46 46 46 47 47 48 48 47 45 45 45 46 46 45 44 45 46 46 46 45 44 43 43 43 44 45 46 46 46 46 46 46 45 45 44 44 44 45 44 44 43 42
44 45 46 46 46 47 47 46 45 45 46 47 48 48 47 47 47 47 47 47 46 45 44 45 45 46 47 47 47 47 47 46 46 45 45 45 45 45 46 46 45 44
43 44 46 46 46 46 45 43 43 43 44 45 46 46 46 46 46 46 46 47 47 47 47 47 48 48 48 48 47 47 47 46 46 45 45 46 46 47 48 48 47 46
45 46 47 47 47 46 46 46 46 46 46 46 46 45 45 45 45 46 47 47 48 49 49 49 49 49 49 49 48 48 48 47 47 47 47 48 49 50 50 50 49 48
46 43 43 44 45 47 48 48 49 50 50 49 48 47 46 45 46 46 47 47 48 49 49 49 50 50 50 49 49 49 50 51 51 51 51 51 52 52 51 50 49 48
43 42 40 39 40 41 42 42 44 46 47 47 47 47 46 45 45 45 46 46 47 48 49 50 51 52 52 52 53 54 55 55 55 55 54 53 52 51 50 49 49 48
35 36 37 37 37 37 38 39 42 44 44 44 45 46 46 45 45 44 44 45 47 48 50 52 53 53 54 55 56 57 57 56 56 55 54 52 51 50 51 52 52 52
29 31 33 36 38 39 39 40 42 43 43 43 44 46 47 48 48 46 45 45 46 48 49 50 51 52 53 54 55 55 54 54 54 53 52 51 52 54 55 55 55 54
36 36 36 38 40 40 39 39 40 41 41 42 44 45 48 49 49 49 48 48 49 50 51 50 49 49 50 50 51 51 51 51 51 51 53 55 57 59 59 58 57 56
44 45 46 43 42 44 44 42 42 43 43 43 44 45 47 49 50 53 55 56 58 59 57 54 52 51 49 50 51 51 50 50 52 54 57 59 61 62 62 62 62 61
46 48 50 48 46 47 48 47 46 47 46 46 46 48 48 49 51 53 55 57 60 61 59 57 57 56 56 57 57 55 54 55 57 59 60 61 61 62 62 63 63 64
50 52 53 53 52 52 51 52 51 51 51 50 51 53 53 53 53 54 54 56 57 58 57 56 56 57 58 58 58 58 58 59 60 60 60 61 62 63 64 65 66 67
55 57 59 59 59 59 59 60 60 59 59 59 59 60 60 58 57 57 58 59 59 59 58 57 57 57 58 59 59 59 58 58 60 62 64 66 67 68 69 70 70 71
58 60 61 63 63 64 65 66 67 67 66 66 66 66 65 64 61 60 62 63 64 64 63 61 61 61 61 61 60 59 59 61 65 68 70 72 73 73 73 74 74 74
59 61 62 62 63 63 64 65 67 68 69 69 70 70 69 70 69 68 66 66 67 69 70 68 67 67 65 62 61 61 63 67 72 74 76 77 77 77 77 76 76 76
60 62 62 63 64 64 64 64 65 67 69 69 69 69 68 71 73 73 73 73 73 75 75 71 67 66 65 63 64 66 70 74 77 79 80 80 79 79 78 77 76 76
61 61 61 62 63 63 62 63 64 66 68 69 70 71 73 75 77 78 79 80 77 72 68 64 62 63 65 67 70 74 77 81 82 82 82 81 80 79 78 77 77 76
61 62 62 62 62 63 63 63 64 66 69 71 73 74 74 73 75 77 75 72 68 63 61 63 65 68 71 74 77 80 82 84 85 84 82 81 79 78 78 78 78 78
62 63 63 63 63 65 66 66 66 67 69 71 71 71 68 65 66 69 67 65 65 66 68 72 74 76 78 80 82 84 85 86 85 83 82 80 79 78 78 78 79 79
67 68 69 70 70 71 72 72 71 70 69 70 69 68 67 66 66 68 69 71 73 75 77 79 81 83 84 86 87 88 87 85 83 81 80 79 78 77 77 78 78 78
75 75 76 77 77 77 76 74 73 72 72 73 73 73 73 74 74 74 76 77 78 80 81 84 86 88 90 91 91 89 87 84 82 80 79 78 77 76 75 76 77 77
82 81 80 79 78 76 75 73 72 72 73 75 78 79 80 81 81 82 82 82 83 85 86 88 91 92 92 91 90 89 87 85 83 82 80 79 77 76 75 76 77 78
85 84 83 82 81 79 78 76 76 76 76 78 80 82 84 85 86 87 88 89 90 91 91 92 92 91 91 90 90 89 89 87 86 85 83 81 79 77 77 77 78 79

ECMWFNIL_250_spd_051.txt.gz
Wind_Speed
42 42 42 43 42 40 38 37 37 38 38 37 35 33 33 32 31 31 32 33 33 33 33 33 33 34 34 34 35 35 35 36 36 36 36 35 34 33 33 33 33 33
40 39 40 40 40 39 37 37 38 39 39 38 37 35 35 35 35 35 35 36 35 35 34 34 34 35 35 35 36 36 36 37 37 37 36 35 35 34 33 33 34 35
40 39 39 38 38 38 37 37 38 40 40 39 38 37 37 37 38 38 38 38 38 37 37 37 37 37 37 37 37 37 37 38 38 37 36 36 35 35 35 35 36 36
41 40 39 39 38 37 37 37 38 40 42 41 41 40 40 40 40 39 39 39 39 39 39 38 38 38 38 38 38 38 38 39 38 38 37 36 36 36 36 37 38 39
41 40 39 38 37 36 35 34 36 39 42 41 41 41 41 41 41 40 40 40 40 39 39 38 38 37 38 38 39 39 39 39 39 39 38 38 38 38 39 40 41 41
39 38 37 36 35 34 34 33 35 39 41 41 41 42 42 42 42 41 41 40 41 41 41 41 40 40 40 40 40 40 40 40 40 40 40 40 41 41 42 43 43 43
39 39 38 37 36 37 38 37 37 40 41 40 41 41 42 42 42 42 42 42 42 43 43 43 43 43 43 42 42 42 41 41 41 42 42 43 43 43 44 45 45 45
43 45 45 43 41 40 40 38 37 39 40 41 41 41 41 41 41 41 41 41 42 43 44 45 44 44 44 44 43 43 42 42 42 43 43 43 44 44 44 45 45 44
44 46 46 46 46 45 43 41 41 41 42 42 40 39 39 38 37 38 39 41 44 45 45 45 44 44 44 44 43 43 42 41 41 41 42 42 43 44 44 44 43 42
39 40 39 39 41 42 43 43 43 42 42 40 38 36 36 37 38 40 43 45 46 46 45 44 43 43 42 41 41 40 40 41 42 43 44 45 46 46 46 45 44 44
36 36 35 35 36 39 39 37 36 36 36 36 36 37 38 39 41 44 45 45 45 44 43 42 42 41 41 40 41 43 45 47 49 49 50 50 50 50 49 48 47 46
37 37 36 35 37 39 39 38 38 37 37 37 38 39 40 41 43 44 44 44 43 43 42 42 42 43 44 45 47 50 52 53 52 52 52 53 52 52 51 51 50 49
39 38 37 38 40 42 42 42 44 46 43 41 40 39 39 41 42 43 43 44 44 44 44 45 46 47 48 49 51 53 53 53 53 53 53 53 53 53 53 53 53 54
40 40 39 40 41 41 41 41 45 47 45 43 42 42 42 43 44 45 46 46 47 47 48 50 51 51 51 52 52 53 53 53 54 54 54 54 54 54 54 55 56 57
45 44 44 44 43 40 40 42 44 46 46 45 46 47 46 47 48 50 51 52 53 54 55 57 57 57 57 56 55 55 54 54 55 56 57 57 57 57 58 58 59 59
47 48 48 47 45 44 43 44 46 48 49 49 49 50 51 52 53 55 56 57 58 58 59 59 59 58 57 56 55 55 56 56 57 58 58 59 59 59 59 61 63 63
46 48 49 48 46 46 47 47 50 52 53 53 53 54 55 57 59 60 60 60 60 60 59 58 58 57 56 56 56 57 58 58 58 58 58 58 59 61 63 66 68 68
47 47 48 50 50 51 50 51 52 53 54 54 56 59 62 63 63 63 63 63 62 62 62 62 62 61 60 60 60 60 59 60 61 62 63 64 67 69 71 72 70 68
49 49 50 52 54 56 55 54 54 54 54 55 58 62 65 65 65 64 64 64 64 64 64 65 65 65 64 64 63 63 64 67 70 72 73 73 74 74 74 71 68 66
53 53 54 54 55 57 58 57 57 56 56 58 61 64 66 65 65 65 64 64 64 65 65 65 66 67 67 66 67 69 72 75 77 77 75 74 73 71 70 68 68 70
57 58 58 57 55 55 56 57 57 57 57 60 63 65 66 66 66 65 65 66 66 66 66 67 68 69 70 71 72 74 75 76 76 74 72 71 71 71 70 71 74 77
61 61 62 62 61 59 58 58 58 59 60 61 63 65 67 67 68 68 69 70 70 68 68 69 69 71 73 74 75 75 75 74 74 73 73 73 75 76 77 79 80 81
63 64 66 66 67 67 66 66 66 66 67 67 68 69 70 72 72 73 73 74 74 73 72 73 74 75 77 78 78 78 78 78 78 78 79 80 81 83 84 85 86 86
66 68 69 70 70 71 71 71 72 71 71 71 71 72 73 75 76 76 76 76 76 77 78 80 81 81 80 81 81 81 82 83 84 85 86 87 89 90 90 91 91 91
72 73 73 74 75 75 76 76 76 75 74 74 74 75 76 78 79 80 81 81 82 83 84 86 85 84 81 81 81 82 84 86 87 88 90 91 92 92 92 92 92 91
77 78 79 79 80 81 81 82 82 81 80 80 81 82 83 84 85 86 87 87 88 88 88 88 87 86 86 86 86 87 88 88 89 90 91 91 92 91 91 90 89 89

ECMWFNIL_250_spd_054.txt.gz
Wind_Speed
39 39 38 37 37 37 38 38 38 37 37 37 36 36 35 34 33 32 31 30 29 28 28 27 27 27 26 27 27 27 28 28 28 29 29 30 31 32 33 34 34 34
38 37 37 36 36 36 38 39 39 39 39 38 37 36 35 34 33 32 31 31 30 29 29 29 29 29 29 28 28 28 28 28 29 29 30 31 32 33 34 34 34 34
37 36 35 35 34 35 36 37 38 38 38 37 36 35 34 34 33 32 32 32 32 31 30 29 29 29 29 29 28 28 28 28 28 29 30 32 32 33 35 35 35 35
36 34 34 34 35 35 36 37 38 38 37 37 36 36 35 34 33 33 32 31 31 30 29 29 29 29 29 29 28 28 28 29 30 31 32 33 34 34 35 36 36 35
36 36 36 37 38 38 38 38 38 37 37 37 37 36 36 35 34 33 32 32 31 31 30 30 29 30 30 29 28 29 29 31 32 33 33 34 35 35 36 36 35 35
34 35 37 38 38 38 38 38 37 37 37 37 37 37 37 37 36 36 35 34 34 33 31 31 30 30 29 27 27 28 30 31 31 32 33 33 34 35 35 34 34 34
30 32 33 34 35 36 37 37 38 38 38 38 38 37 38 37 37 36 35 34 34 33 32 31 30 28 26 27 29 30 30 30 30 30 31 32 32 32 32 32 32 34
32 33 32 32 33 34 35 36 37 38 39 38 38 38 37 36 35 34 34 33 33 32 31 30 29 27 28 30 32 31 30 29 29 29 30 31 31 31 31 32 34 36
34 34 34 34 35 36 36 36 37 38 40 40 39 38 38 37 36 35 34 33 31 30 29 29 29 30 32 34 33 32 31 30 30 30 30 31 31 33 34 35 37 38
32 34 35 36 36 36 36 37 38 38 40 40 40 39 39 39 38 37 35 33 31 31 31 32 33 34 35 35 34 34 33 32 32 32 32 33 34 36 37 39 41 41
33 36 37 37 35 34 35 36 37 38 38 38 38 38 38 39 39 37 36 35 34 35 35 35 36 36 36 35 35 35 34 34 34 34 35 37 38 40 41 43 44 44
36 37 38 37 35 34 35 37 38 39 38 37 36 37 38 38 38 37 36 36 37 37 38 38 37 36 35 34 35 35 35 36 37 38 39 41 42 43 44 45 46 45
37 37 38 38 36 35 35 37 39 40 39 39 39 38 38 37 37 36 37 38 38 39 39 38 37 36 35 35 36 38 38 40 41 42 43 44 44 45 46 46 46 46
39 38 40 41 39 38 38 39 40 41 42 44 46 46 44 42 40 40 40 42 42 42 41 39 38 37 37 38 40 41 42 43 44 45 46 46 46 46 47 47 46 45
42 42 43 43 43 43 43 43 44 45 46 47 49 50 50 49 48 48 49 50 50 48 47 45 44 43 43 44 45 45 46 47 47 47 47 47 47 48 48 47 46 46
42 42 43 45 46 47 46 46 47 48 47 46 46 46 47 47 48 49 51 52 53 51 50 49 48 47 47 47 47 47 47 47 47 48 48 49 49 49 49 48 48 48
42 42 44 45 45 45 45 46 46 47 46 44 42 42 43 44 45 47 48 51 53 52 50 48 47 46 46 46 47 47 47 48 49 50 51 51 51 50 49 49 49 50
42 42 44 45 44 45 46 46 47 48 48 47 45 44 45 47 48 49 51 52 53 52 49 47 45 45 46 47 48 49 50 51 51 52 52 52 51 51 51 51 52 54
46 45 45 45 46 47 48 49 49 49 51 52 51 50 50 51 52 53 53 52 51 49 48 47 47 48 50 51 51 52 52 53 53 54 54 54 54 54 55 56 58 60
52 51 50 49 48 47 48 49 49 49 51 54 54 53 53 53 54 55 55 55 54 52 52 52 52 52 53 53 53 54 55 56 56 57 58 58 59 59 60 61 63 65
55 55 55 55 53 51 51 52 51 51 53 55 56 57 57 57 57 58 58 57 57 56 56 56 55 55 54 55 56 56 57 58 58 59 60 61 62 64 64 66 67 70
59 59 59 58 57 56 56 56 56 56 56 57 57 59 60 60 60 60 60 60 59 60 60 59 59 58 58 58 58 59 60 61 62 63 64 65 66 68 69 71 73 75
62 64 64 62 61 60 59 60 60 60 60 60 60 60 60 60 61 61 62 62 62 63 64 63 62 62 62 62 63 63 65 66 68 68 69 70 72 73 75 77 78 80
65 66 66 66 65 64 64 64 64 64 64 64 64 65 65 65 65 65 66 66 66 67 68 68 68 68 69 69 70 70 71 73 73 74 75 76 78 79 81 82 84 85
67 68 68 69 68 68 68 68 68 69 69 69 69 70 71 72 72 72 72 73 73 74 75 75 76 76 76 77 77 77 78 78 79 79 81 82 84 86 87 88 89 90
68 69 70 70 71 72 72 72 73 73 74 74 75 76 76 77 79 79 79 80 81 82 83 83 83 83 83 83 84 84 85 86 86 87 88 90 91 92 93 95 96 96

ECMWFNIL_250_spd_057.txt.gz
Wind_Speed
39 37 36 36 35 36 35 35 34 32 31 30 30 30 30 30 30 30 30 30 30 30 29 28 27 27 26 25 24 24 24 24 24 25 25 25 25 25 25 26 27 27
36 36 35 33 33 33 33 32 31 30 30 29 28 28 29 30 30 31 32 32 32 31 30 29 28 28 27 27 27 26 25 25 26 26 26 26 25 25 25 26 27 27
34 33 32 32 33 34 33 32 31 30 30 29 28 28 29 31 32 32 33 32 32 31 30 29 29 29 29 29 29 27 26 25 25 26 26 25 25 24 25 25 26 27
37 38 38 38 38 37 35 35 34 33 31 30 28 29 30 31 32 32 32 31 31 30 30 30 30 30 30 30 29 28 26 25 25 25 24 24 24 24 23 23 24 25
43 44 43 39 35 33 34 35 35 35 34 32 31 31 31 32 33 32 32 31 31 30 30 30 30 30 30 29 28 27 26 25 25 25 24 23 23 23 22 22 22 24
43 42 39 34 30 30 31 32 32 33 34 34 33 32 33 33 33 32 32 31 31 31 31 31 30 29 29 28 28 28 27 27 27 25 24 23 23 22 22 21 22 23
42 39 36 34 32 32 32 30 29 30 32 32 32 32 32 32 33 33 33 33 33 33 32 31 31 30 29 29 30 30 30 29 28 26 25 25 24 23 23 22 22 23
43 40 38 36 35 34 33 31 30 31 33 33 32 32 33 33 34 34 35 35 35 34 33 32 32 31 31 32 32 32 31 29 28 27 27 27 26 25 24 24 24 24
42 41 39 38 35 34 34 34 34 35 35 35 34 33 34 34 35 35 35 35 35 34 33 33 33 33 33 33 32 31 30 30 30 30 30 29 29 28 27 26 26 26
38 37 37 36 36 36 37 37 36 36 36 36 35 34 35 35 35 36 36 36 36 36 36 36 36 35 34 33 32 32 32 32 32 33 34 33 33 32 30 28 28 29
36 37 37 37 37 38 39 38 37 37 38 38 37 37 37 37 37 38 38 39 39 39 39 38 37 35 34 34 34 34 34 35 36 37 38 37 37 35 33 31 30 31
39 41 41 41 40 41 41 40 38 39 40 40 39 38 38 38 38 39 40 40 40 39 39 37 36 35 34 35 36 37 38 39 40 40 40 40 38 37 35 34 34 34
40 43 44 43 42 41 42 41 40 41 42 41 40 39 39 39 40 40 41 41 40 39 38 37 37 37 38 39 39 39 40 40 41 41 41 41 40 39 39 38 38 39
38 40 41 41 40 41 41 41 41 41 41 40 40 40 41 41 41 41 41 41 40 40 39 39 39 40 40 41 40 40 41 42 43 44 44 43 44 43 43 43 43 43
38 38 39 40 41 42 43 42 42 40 39 38 39 41 41 40 40 40 40 40 40 40 41 41 41 42 43 44 44 44 45 47 48 48 47 47 46 46 46 46 46 46
42 42 42 43 43 44 45 45 44 42 40 40 41 41 41 40 39 41 43 43 44 46 47 48 48 48 49 50 50 50 50 50 50 49 49 48 47 47 47 47 47 46
46 46 45 46 46 46 47 47 46 45 44 44 43 43 43 42 43 46 48 49 50 51 51 51 51 51 52 52 53 52 51 51 50 49 49 48 47 47 46 46 46 46
46 47 47 47 47 49 49 49 49 48 47 47 47 48 49 48 49 51 51 51 50 48 47 48 49 51 52 52 52 52 52 51 50 49 48 46 46 46 47 46 46 47
45 47 48 49 49 49 51 51 52 52 51 50 50 51 51 51 50 51 50 50 49 48 48 49 51 52 52 50 50 52 53 51 51 50 48 47 47 48 49 49 49 49
46 46 47 48 49 50 51 52 53 54 55 55 55 54 53 51 50 50 50 50 50 50 51 53 54 54 54 53 53 55 55 54 53 53 52 51 52 52 51 50 50 49
50 49 49 49 50 51 51 51 51 51 51 52 52 53 53 53 52 52 52 52 53 54 54 55 55 55 56 56 56 57 57 56 55 54 54 54 54 53 52 51 51 52
55 55 55 55 55 54 53 53 52 51 51 50 49 49 49 50 51 52 53 53 55 56 56 56 57 57 57 58 58 58 58 57 56 56 56 56 56 56 55 56 57 59
58 59 60 60 59 58 56 56 56 55 55 56 56 55 53 53 53 53 54 55 56 56 57 58 59 59 60 60 60 61 61 61 61 61 61 62 62 62 63 64 65 67
59 59 59 61 61 60 59 59 59 59 60 61 62 61 61 61 61 60 60 60 59 59 59 60 61 61 61 61 62 63 64 64 65 66 67 68 69 70 71 72 73 74
63 61 61 61 62 62 62 62 62 63 64 65 66 66 66 66 67 67 67 67 67 66 67 68 68 68 67 67 68 69 69 70 71 72 73 74 76 77 78 79 81 82
68 68 67 65 64 65 65 66 66 67 67 68 69 69 70 70 71 72 72 73 73 73 74 76 77 77 77 77 77 78 78 79 80 80 81 82 83 84 85 86 87 88

ECMWFNIL_250_spd_060.txt.gz
Wind_Speed
33 36 38 36 35 36 37 36 33 31 30 29 27 28 28 29 29 29 29 29 29 28 27 27 27 27 27 27 28 28 28 27 27 27 27 28 28 27 27 27 27 28
33 31 33 33 33 33 30 29 28 28 28 26 26 27 28 28 28 27 27 27 27 26 26 27 28 28 29 30 30 30 29 28 28 28 29 29 28 28 28 29 28 28
38 32 31 32 31 28 27 27 25 24 25 26 28 29 28 27 26 27 26 26 26 27 27 28 29 30 31 31 31 30 29 29 29 29 29 29 29 29 29 29 29 28
42 37 31 29 28 28 28 28 27 27 28 29 29 28 28 27 27 26 27 27 28 29 30 30 31 31 31 30 30 30 30 30 29 29 29 29 29 29 29 29 29 29
43 42 36 32 32 33 34 33 34 35 33 29 26 26 27 27 27 28 28 29 30 31 32 32 31 31 31 31 31 31 31 31 30 30 29 29 29 29 29 30 30 29
44 44 43 40 39 39 40 40 40 38 34 28 26 26 27 27 28 30 31 31 32 32 33 33 32 32 32 31 31 31 31 31 31 30 30 29 29 30 30 30 30 29
42 43 43 42 42 43 44 43 42 40 37 33 30 30 30 30 31 31 32 33 33 34 34 33 33 32 32 32 31 31 31 32 32 31 31 31 31 31 32 31 30 29
41 41 40 41 43 44 45 45 44 42 38 35 34 33 33 32 33 34 34 33 33 33 33 33 32 32 32 32 32 32 32 33 33 33 32 32 33 34 33 32 31 29
45 44 43 43 43 44 45 45 45 41 38 36 35 35 34 34 35 37 37 36 35 34 33 33 33 34 34 34 34 34 33 34 34 34 35 35 36 36 36 35 33 32
50 49 49 48 47 46 45 44 43 41 39 38 37 37 37 38 39 41 41 41 39 37 35 35 35 36 36 37 36 36 36 36 37 38 38 37 37 37 37 37 36 35
53 53 53 53 52 49 47 45 44 43 43 42 41 41 41 41 42 43 43 42 40 39 38 37 37 37 38 38 38 38 39 39 40 39 37 35 35 36 37 38 38 39
49 50 50 50 50 47 45 44 43 44 45 44 43 43 43 43 43 43 42 41 41 41 40 39 39 39 39 39 39 40 40 40 39 38 36 35 36 37 38 39 41 42
45 46 46 46 45 44 43 43 43 43 43 44 43 43 44 44 44 44 43 42 42 41 41 41 40 40 39 39 39 40 40 39 38 38 38 38 38 39 40 41 42 43
44 43 44 44 43 41 40 41 43 43 44 44 44 43 44 44 44 44 44 43 43 42 42 41 41 40 40 40 40 40 39 39 40 41 41 41 41 41 42 43 44 45
39 38 39 41 40 37 37 39 43 46 47 48 48 47 47 46 45 45 44 44 44 44 43 42 42 41 41 40 40 40 40 41 42 43 43 43 43 44 46 46 47 48
36 34 36 38 37 35 35 37 40 43 45 47 48 48 48 47 47 46 46 46 46 45 44 43 42 42 42 41 41 41 42 43 44 46 47 47 47 48 49 49 49 49
36 34 35 37 37 36 35 35 38 40 41 42 43 44 45 46 46 45 45 44 43 42 41 41 42 43 43 43 43 44 46 48 50 52 53 52 51 51 52 51 51 50
39 37 36 38 38 37 36 37 40 40 40 41 43 44 45 46 46 45 44 42 41 41 42 44 46 47 46 47 48 50 52 54 54 55 56 55 53 53 53 53 52 52
42 40 40 41 42 41 41 42 44 44 43 45 46 47 48 49 48 48 47 47 47 46 47 49 51 51 51 52 54 55 56 55 54 54 56 56 55 55 54 53 54 54
45 45 44 45 46 46 47 48 48 47 47 48 48 49 50 50 50 49 49 50 50 50 51 53 54 55 56 57 57 57 57 57 56 55 56 56 56 56 56 55 54 55
46 47 47 48 49 49 50 50 49 48 48 48 49 50 51 51 51 51 51 52 53 53 54 56 57 58 59 59 59 59 58 57 55 54 54 55 56 56 56 56 56 56
48 49 49 50 50 51 51 50 49 49 49 50 51 52 53 54 54 55 55 56 56 56 56 57 58 57 58 58 57 57 56 55 54 54 54 55 56 57 57 58 58 59
50 51 51 52 52 52 53 53 52 52 52 52 52 53 53 54 54 55 55 56 56 55 54 54 53 53 54 55 55 55 55 56 56 57 58 58 59 60 60 61 62 62
52 52 53 54 54 54 54 54 54 55 55 55 56 56 55 55 55 55 55 55 54 54 53 52 52 53 54 55 56 56 57 58 59 60 62 63 63 64 65 66 67 68
58 57 57 57 58 58 58 58 58 58 58 59 60 60 61 61 60 60 60 59 58 58 57 57 57 58 58 59 60 61 61 62 63 65 66 67 68 70 71 72 73 74
63 63 63 62 63 63 63 64 64 64 64 64 64 64 64 64 64 64 64 64 64 64 64 64 65 65 65 66 67 67 67 68 69 70 71 72 74 76 77 78 79 80

ECMWFNIL_250_spd_063.txt.gz
Wind_Speed
44 45 43 43 44 42 39 39 40 40 38 35 33 32 32 31 30 27 26 27 27 27 27 26 25 25 24 23 23 23 24 25 25 25 25 25 25 25 26 27 28 28
47 46 45 44 44 41 38 38 39 37 32 30 29 28 27 27 26 24 24 25 25 26 26 25 24 24 23 23 23 24 25 26 26 27 28 28 27 27 27 28 29 30
47 46 45 44 43 41 39 37 35 32 28 28 27 25 24 24 24 24 25 27 27 27 26 25 24 24 23 23 24 25 26 27 28 29 30 29 28 28 28 29 30 31
47 46 46 46 45 44 43 39 35 32 29 27 26 25 25 25 26 28 29 29 28 27 26 26 25 25 25 25 26 26 27 29 30 31 31 30 30 30 30 31 31 32
47 46 47 47 47 46 46 44 42 38 33 31 30 29 29 30 32 33 32 31 30 30 30 29 28 27 27 28 29 29 30 31 31 32 32 31 31 32 32 32 32 32
45 44 45 46 47 47 46 46 45 42 38 35 34 34 35 37 38 37 36 35 35 34 34 33 31 30 30 30 31 32 33 33 33 33 32 32 32 32 32 32 32 33
44 43 44 46 46 47 46 45 45 44 41 39 38 40 42 43 43 42 41 40 39 38 37 35 34 32 32 31 32 34 35 35 34 33 32 32 32 32 32 31 32 33
46 47 48 48 47 45 43 43 44 45 45 45 45 46 47 47 47 46 45 44 42 41 39 37 35 33 33 33 33 34 34 34 33 32 32 32 32 32 32 32 33 33
51 52 52 51 49 45 43 42 43 44 45 46 46 47 47 47 47 46 46 45 44 42 40 38 37 36 35 35 34 35 34 34 34 33 33 33 33 33 33 33 33 34
52 54 54 54 52 49 46 45 43 43 43 43 44 45 46 46 47 47 46 45 45 44 42 41 39 38 37 36 36 36 36 36 36 35 34 34 34 34 34 34 35 36
49 50 51 53 55 54 53 51 49 48 47 47 47 48 48 49 49 49 48 48 47 46 44 42 41 40 38 37 37 37 37 37 37 36 35 35 34 34 35 36 37 37
43 42 43 47 51 53 54 55 55 54 53 53 53 54 55 55 55 54 53 51 49 47 45 43 42 41 39 38 37 37 38 38 38 37 36 35 35 36 37 37 37 36
40 40 42 45 48 51 53 55 56 56 56 56 56 57 57 57 56 55 52 50 49 47 46 44 42 41 39 38 38 38 39 39 38 38 37 37 37 38 37 37 36 35
45 47 48 49 50 50 51 52 53 55 56 57 58 58 56 54 54 53 51 50 48 46 45 43 42 41 40 40 40 40 40 39 39 39 39 40 40 39 38 37 37 37
46 49 49 50 50 49 48 48 50 52 54 55 56 55 53 51 50 49 49 48 47 45 44 43 42 42 42 42 41 41 41 41 41 41 42 42 41 40 40 40 39 40
43 46 47 48 48 47 46 47 48 50 51 52 53 53 52 50 47 45 45 45 46 46 46 45 46 45 45 43 43 42 42 43 43 43 43 42 42 42 42 42 42 43
42 44 46 47 47 47 47 47 48 49 50 52 53 52 50 48 46 45 45 45 47 48 48 48 47 46 45 45 44 44 44 44 44 43 43 43 43 43 44 45 46 47
44 45 46 47 49 50 49 48 47 46 47 49 50 49 48 47 47 46 45 46 47 48 48 47 46 45 46 46 46 46 45 44 44 44 44 45 46 47 48 48 49 49
44 44 45 45 46 47 48 47 45 43 44 45 45 46 46 47 48 47 47 47 47 47 48 48 47 47 47 46 45 44 44 45 45 46 47 48 50 51 51 50 50 50
46 46 47 46 46 46 46 46 46 44 43 43 44 45 46 47 47 47 46 46 47 47 47 47 46 45 45 44 44 45 46 48 48 49 51 52 53 52 52 50 49 49
49 50 50 50 51 51 50 49 48 47 45 45 46 48 50 50 50 48 47 48 48 48 47 46 46 45 45 45 46 49 51 52 53 54 54 54 54 54 52 50 49 49
48 50 52 53 53 54 55 55 54 52 49 48 50 52 54 54 54 53 53 53 52 51 49 47 47 47 48 49 50 52 54 54 55 56 56 55 55 54 53 52 51 51
48 51 53 54 54 55 56 57 57 57 55 53 54 55 56 56 56 56 56 57 57 56 54 53 52 53 53 53 53 53 53 53 54 55 55 55 54 54 54 55 55 56
53 53 54 56 58 58 57 57 57 57 57 57 57 57 58 58 58 58 58 58 58 57 56 55 55 55 55 55 54 53 53 53 54 54 54 55 55 55 56 56 57 58
58 57 56 56 58 59 60 60 59 58 58 59 59 59 59 59 59 59 59 58 56 54 53 53 53 54 55 55 55 55 54 52 52 53 54 54 55 55 56 57 58 59
60 60 58 56 56 57 59 61 61 60 59 59 60 60 60 60 60 60 60 60 59 58 57 57 57 57 58 58 57 57 57 56 55 56 58 58 58 60 61 63 64 65

ECMWFNIL_250_spd_066.txt.gz
Wind_Speed
50 50 49 49 48 45 45 46 46 45 44 43 42 39 38 39 39 39 38 37 35 33 33 29 25 23 22 22 23 23 24 25 27 27 27 27 27 27 27 28 28 28
46 47 47 48 47 45 46 47 46 45 43 43 43 41 40 41 41 40 39 39 37 35 33 27 23 22 22 22 23 22 22 23 23 25 26 27 28 28 28 29 30 31
46 47 48 50 50 48 48 48 47 46 44 44 42 40 41 42 42 40 39 38 36 33 30 26 24 24 24 25 25 25 25 24 24 24 25 27 29 30 31 32 33 34
50 51 51 52 54 52 50 50 49 48 46 45 43 41 41 42 40 38 36 34 32 30 28 26 26 27 28 28 28 29 29 29 29 28 27 28 29 31 33 34 35 36
51 52 51 52 55 55 53 53 52 50 48 47 45 43 43 42 39 37 36 35 33 31 30 30 30 31 31 31 32 32 33 33 33 32 30 29 28 30 33 35 37 37
51 50 49 49 51 54 55 55 54 53 50 48 47 46 45 46 45 43 41 40 39 38 36 35 35 35 35 35 35 35 35 36 35 34 32 31 30 30 32 34 36 37
52 51 50 49 49 51 53 55 55 54 52 50 49 47 48 49 49 47 46 46 46 44 43 41 40 39 39 38 37 37 37 37 37 35 33 32 32 31 31 32 34 35
60 57 55 54 52 52 53 54 55 56 55 53 51 49 49 50 50 51 52 51 50 48 46 45 43 42 41 39 38 38 38 37 36 35 34 33 33 32 31 31 32 33
65 64 63 62 60 57 55 54 54 54 54 54 53 52 51 50 50 51 52 51 49 47 46 44 43 42 41 40 40 40 39 38 37 36 35 34 34 34 33 31 32 33
61 63 64 64 63 62 60 58 57 56 54 54 54 53 52 51 50 50 49 48 46 45 44 43 42 42 42 43 43 43 42 40 39 38 37 36 36 36 34 32 33 34
54 55 57 59 61 62 63 63 62 61 58 55 54 54 53 53 51 50 49 48 47 46 45 45 45 45 46 46 46 46 44 43 41 39 38 38 37 36 34 33 33 34
48 48 48 51 54 58 60 62 63 63 61 59 58 57 56 56 54 53 52 51 50 49 49 48 48 47 47 48 48 47 46 44 41 40 39 39 38 36 35 34 34 35
47 45 44 46 50 54 57 59 61 62 62 62 62 61 60 58 57 55 55 54 53 52 51 51 51 50 50 50 50 48 46 44 42 41 40 39 38 37 36 35 35 36
45 43 43 45 48 50 54 57 58 59 60 61 61 61 61 60 58 56 55 54 53 52 53 53 54 54 53 52 51 49 47 45 43 42 41 40 39 38 37 36 36 37
46 45 44 46 46 47 50 53 55 56 57 58 58 58 58 57 56 55 54 53 53 53 54 56 56 55 54 53 52 50 48 45 44 43 42 41 40 39 38 37 37 38
45 46 47 48 48 48 49 51 51 52 52 52 53 54 54 54 54 53 53 53 53 54 55 55 54 54 53 53 52 50 48 46 45 44 43 42 41 39 38 38 38 38
43 46 48 48 47 47 47 46 46 46 48 50 51 52 51 50 50 50 51 51 52 53 52 51 51 51 51 52 51 50 48 46 45 44 43 42 41 41 42 42 40 38
42 43 42 40 41 43 43 43 43 45 47 49 50 50 48 47 47 47 47 48 50 50 50 50 50 50 50 50 50 48 47 46 45 44 44 44 45 46 45 42 40 40
40 40 38 35 37 40 42 43 44 45 46 47 48 48 48 48 49 49 48 48 49 49 49 50 50 50 50 50 49 48 47 47 47 47 48 48 48 46 44 42 42 43
43 42 42 41 41 42 44 45 46 45 46 47 47 47 48 49 51 51 51 51 51 52 52 52 51 51 50 49 49 49 49 50 50 51 51 50 49 47 44 44 45 46
48 47 47 47 47 48 49 50 50 48 47 48 48 48 48 48 49 50 50 51 52 54 55 54 54 53 51 50 50 51 52 53 53 53 53 51 50 49 47 47 50 51
50 51 51 51 52 52 52 53 53 52 52 52 52 52 51 49 48 48 48 49 51 54 55 54 54 53 53 53 54 54 54 55 55 55 54 53 52 53 53 54 56 56
51 51 51 52 52 52 52 53 54 54 55 56 57 56 55 54 53 52 51 51 52 53 54 53 53 54 54 55 56 56 56 57 56 55 55 54 55 56 57 57 57 56
52 52 51 51 51 51 52 54 55 55 56 58 60 59 57 57 57 56 56 56 57 57 57 57 57 57 56 56 57 58 58 58 58 57 57 57 57 57 57 57 57 57
53 53 53 51 51 51 52 54 56 57 58 60 62 61 60 59 59 59 59 59 60 60 61 61 61 61 60 60 61 61 60 60 60 59 59 58 58 57 57 57 56 57
56 57 57 56 55 55 55 56 58 60 61 63 63 62 61 62 62 62 63 63 64 64 65 65 65 65 64 64 62 61 60 60 60 60 59 59 59 59 60 60 59 60

ECMWFNIL_250_spd_069.txt.gz
Wind_Speed
44 44 42 41 40 41 42 43 43 44 45 45 45 45 45 45 44 43 43 41 40 40 40 39 38 39 39 38 36 34 32 31 28 25 23 22 23 25 26 27 28 28
46 46 46 45 44 43 43 43 44 44 44 45 45 45 46 46 45 44 43 41 40 40 40 39 39 39 40 39 35 33 31 29 27 25 24 26 27 29 30 31 31 31
48 48 48 48 47 47 47 47 47 46 47 47 46 45 44 44 44 44 43 42 41 41 40 39 39 39 39 36 33 32 30 29 27 27 28 29 31 33 34 34 34 33
49 48 48 48 48 48 49 49 49 49 48 46 45 44 44 44 44 45 45 44 42 41 40 39 38 37 35 33 31 31 30 30 31 32 33 34 35 36 37 36 35 35
48 47 46 47 48 48 48 49 49 49 48 46 46 47 48 47 47 47 47 46 44 42 40 39 38 36 35 34 33 32 33 34 36 37 38 38 38 38 37 37 36 37
47 46 44 44 46 48 49 48 49 50 51 52 51 49 49 49 49 48 47 47 46 44 42 41 40 39 39 39 38 38 39 40 41 42 41 40 39 38 38 38 38 39
46 44 43 43 46 48 50 50 49 50 51 51 50 47 45 46 48 48 48 48 47 46 45 44 44 44 44 43 43 43 43 44 45 44 42 40 39 39 40 41 41 41
47 44 44 44 47 49 50 51 52 51 50 48 46 43 42 43 45 47 48 49 49 48 48 47 46 47 46 46 45 45 45 46 45 43 41 41 41 42 43 43 42 42
50 48 47 47 49 51 51 51 53 53 53 51 49 47 46 46 45 46 48 49 50 50 50 49 48 47 47 46 46 46 46 46 44 43 42 43 44 44 43 43 43 43
51 49 49 50 52 53 54 54 55 56 56 56 55 54 54 54 52 51 51 51 50 50 50 50 50 49 48 48 47 46 46 45 44 44 45 45 45 45 44 44 44 43
48 48 48 50 52 53 55 57 58 58 58 58 56 54 53 54 55 55 54 53 53 52 52 52 51 51 50 49 48 47 46 46 46 46 47 47 46 45 45 44 44 43
44 45 47 48 49 50 51 53 56 58 59 59 58 54 51 50 50 52 53 55 55 55 55 54 53 52 51 49 48 47 47 47 47 48 48 47 46 45 45 44 44 44
42 45 47 46 44 45 46 48 51 53 54 56 57 56 54 51 49 49 50 52 54 55 55 55 55 54 53 51 50 49 48 48 49 49 48 47 46 45 45 45 45 46
41 43 47 47 43 41 42 43 46 47 48 50 52 52 51 49 47 46 47 49 51 52 53 53 54 54 53 52 51 50 49 49 48 48 47 46 46 45 46 46 47 47
43 44 45 46 45 43 42 43 45 45 46 47 49 48 47 45 45 45 47 50 51 51 51 51 51 51 51 50 49 48 48 47 47 47 47 46 46 46 47 47 47 47
45 48 48 47 46 46 45 46 47 46 45 47 48 48 46 45 45 46 48 50 51 50 50 50 49 49 49 48 47 46 46 46 47 47 47 46 46 46 46 47 47 46
44 49 52 49 47 47 48 47 47 46 45 47 48 48 48 46 45 46 48 49 49 49 49 49 49 48 48 47 46 46 46 46 47 47 46 46 45 45 46 47 46 44
41 46 50 48 46 48 49 48 48 48 48 48 48 48 48 47 45 46 48 48 48 48 48 48 47 47 47 47 47 47 47 47 47 47 46 45 45 45 45 45 45 44
39 43 47 47 45 45 48 48 48 49 49 48 47 47 47 46 44 44 46 47 47 47 47 47 47 48 48 48 48 48 48 47 47 45 44 44 44 44 45 46 46 47
42 43 45 47 45 44 46 46 46 48 49 49 48 47 46 45 45 45 47 48 48 47 47 48 48 49 49 48 48 47 47 46 44 43 43 44 45 46 47 49 50 50
47 47 48 48 48 47 47 46 47 48 50 51 51 49 47 46 47 48 49 49 49 48 48 48 49 49 48 48 47 46 45 45 44 45 46 48 49 50 52 52 52 52
50 50 50 51 51 51 49 49 50 50 51 51 51 51 50 50 50 50 51 52 52 51 50 50 50 51 50 50 49 48 48 49 50 51 51 52 53 54 55 54 54 55
50 51 51 51 51 51 50 49 50 51 52 52 51 52 52 52 53 52 52 53 54 54 54 54 54 55 55 54 54 53 53 53 54 54 55 55 55 56 56 57 57 58
51 52 53 52 51 50 50 50 50 51 52 53 53 54 54 55 57 58 57 57 56 56 56 56 56 57 57 57 56 55 55 54 55 55 56 56 57 57 59 60 60 61
56 55 55 54 54 52 51 51 52 52 52 53 54 55 57 59 61 64 64 62 59 58 57 55 55 55 55 56 57 57 57 57 57 58 58 59 59 60 61 62 63 63
63 60 57 56 55 53 52 52 53 54 54 54 55 56 58 60 63 66 68 66 62 60 59 57 56 55 56 57 58 59 60 60 61 62 62 62 63 64 65 65 66 66

ECMWFNIL_250_spd_072.txt.gz
Wind_Speed
54 53 52 50 49 48 47 47 47 46 47 46 44 43 41 39 39 41 43 43 42 41 40 39 38 38 37 35 34 32 31 31 31 30 30 29 27 26 25 25 26 28
54 52 50 49 47 47 46 46 45 44 44 43 42 40 38 36 36 38 39 40 40 40 39 39 38 37 36 35 35 33 32 32 32 30 30 29 28 27 26 26 28 32
54 52 50 48 46 46 45 44 43 42 43 43 42 42 40 39 39 39 39 40 41 40 39 38 37 36 36 36 36 35 34 34 32 31 30 29 28 27 28 30 33 35
54 53 51 50 47 46 45 44 43 42 43 44 45 46 45 44 44 43 42 42 41 40 38 37 37 38 38 38 37 36 35 34 32 31 30 30 29 30 33 36 38 38
55 53 52 50 49 48 48 48 46 45 45 46 47 47 47 46 46 46 45 43 41 41 40 40 41 40 40 39 37 36 35 34 33 33 32 32 33 35 38 40 40 38
53 53 52 50 49 49 50 49 48 48 48 48 48 48 48 47 47 46 45 43 42 43 44 43 42 41 39 39 38 36 35 35 35 36 36 36 37 39 40 41 40 37
51 52 52 51 49 48 48 49 48 48 49 50 49 49 48 48 47 46 45 43 42 43 43 42 41 38 37 37 38 37 37 38 38 39 39 39 40 41 41 40 39 37
50 51 52 53 51 49 48 48 49 49 50 49 48 47 45 45 45 45 45 45 44 42 41 39 38 36 35 36 37 37 38 39 40 40 40 41 41 41 41 40 39 37
44 42 42 46 49 50 50 50 50 50 51 50 48 47 45 44 44 44 45 45 46 45 43 41 40 40 40 41 41 41 40 40 40 41 41 41 42 42 42 40 39 39
37 32 29 35 41 44 47 50 51 50 51 50 48 47 46 45 45 45 45 46 47 48 48 47 47 47 46 45 45 45 44 42 42 43 43 43 43 43 42 41 41 40
35 29 28 32 36 39 43 47 49 50 50 49 48 46 46 46 46 46 47 48 49 50 50 50 50 48 47 46 46 46 45 45 45 46 46 46 45 44 43 43 43 43
36 31 30 33 34 37 41 43 46 48 48 48 47 46 47 47 48 49 49 50 51 52 52 52 50 48 46 46 45 46 46 47 48 48 47 46 46 45 45 44 44 44
38 35 31 32 34 37 41 42 44 46 46 47 46 45 46 46 47 48 48 49 49 50 51 51 50 49 47 46 46 46 46 47 47 47 46 46 46 46 45 45 45 44
37 38 33 31 32 36 41 43 45 46 46 47 48 46 45 45 46 47 47 48 49 50 51 51 51 50 48 46 44 43 44 45 45 45 45 45 46 45 45 44 44 42
32 34 32 31 32 34 39 42 44 46 44 44 47 47 46 46 49 50 50 50 51 51 50 50 49 48 46 44 42 41 42 43 44 44 45 45 45 45 43 43 42 41
29 30 32 34 34 34 38 40 42 44 44 42 43 45 46 47 49 50 50 49 49 48 47 46 45 44 42 41 40 41 42 43 44 44 45 44 44 43 42 41 40 40
29 29 31 35 37 37 39 42 43 45 44 43 42 43 45 47 48 48 47 47 46 45 44 43 43 43 42 41 41 41 42 43 43 43 43 42 42 41 40 39 39 40
32 31 31 35 39 40 42 44 46 46 44 42 43 44 46 48 48 47 47 48 47 45 45 44 44 45 45 44 44 44 44 44 43 43 42 41 40 40 39 40 41 43
39 37 34 36 40 42 45 46 46 46 44 42 43 46 48 48 48 49 49 50 50 50 49 48 48 48 47 47 46 46 46 45 44 43 43 42 41 41 42 43 44 44
42 38 36 38 42 44 47 49 48 48 47 47 48 48 49 49 49 49 50 51 51 52 52 52 51 51 50 49 48 47 47 46 45 45 44 44 44 44 45 45 45 45
42 39 37 41 43 45 47 50 49 49 50 51 52 52 52 51 51 51 51 51 51 50 51 51 51 51 51 49 48 48 48 47 47 46 46 46 46 47 47 47 47 46
44 41 41 44 45 45 47 48 48 49 50 51 52 54 53 53 53 53 52 51 51 51 50 50 50 50 49 48 48 48 48 49 49 48 48 49 49 49 49 48 48 48
48 46 46 49 49 49 48 48 48 50 52 52 52 52 52 51 51 52 53 53 52 52 51 50 50 50 49 48 48 49 49 50 50 50 50 50 51 51 51 51 51 52
52 50 51 53 54 53 51 50 50 52 53 54 54 53 52 52 51 52 53 54 53 53 52 52 53 53 51 51 51 51 51 52 52 52 53 53 53 54 55 55 56 58
55 55 56 58 59 57 55 54 53 54 55 56 57 57 56 54 54 54 54 54 54 54 54 55 56 56 55 54 54 55 55 55 55 56 57 58 58 59 60 61 62 62
58 59 60 61 63 63 61 59 58 58 59 59 59 58 57 56 56 56 56 56 56 56 57 58 58 58 58 58 58 58 59 59 59 60 61 62 63 64 64 64 65 64

ECMWFNIL_250_spd_075.txt.gz
Wind_Speed
56 53 49 46 49 52 54 55 55 53 51 49 46 45 45 44 43 43 43 43 44 44 43 41 39 37 36 36 36 35 35 34 33 32 31 29 28 27 27 26 25 26
60 55 52 52 53 54 53 53 52 50 49 49 49 48 48 47 46 45 45 45 45 45 43 40 36 35 35 35 35 35 34 33 32 30 30 30 29 28 28 26 25 26
61 59 59 60 60 58 55 52 49 48 47 48 49 49 50 50 48 46 45 44 44 43 42 39 37 37 37 37 37 36 35 33 32 31 31 31 30 29 29 27 26 27
61 58 59 63 65 61 57 53 50 48 47 47 48 49 52 51 47 45 44 43 42 42 41 40 40 39 39 39 38 37 36 35 34 33 32 31 31 30 29 27 26 28
64 61 58 60 63 62 58 54 52 50 49 49 48 49 51 50 46 44 43 42 41 41 42 41 41 40 39 39 38 38 37 37 36 34 32 30 30 29 28 28 28 30
62 64 62 59 58 58 57 55 53 52 51 52 51 50 50 49 47 45 44 44 43 43 43 43 42 41 41 40 39 38 37 36 35 32 30 29 28 28 28 29 31 33
57 59 60 58 56 55 54 54 53 53 53 53 53 51 51 49 48 47 46 46 46 45 44 44 44 44 44 43 42 40 38 35 33 30 29 28 28 28 29 31 33 34
49 51 51 50 51 52 52 53 53 52 53 53 52 51 50 49 48 47 46 46 47 46 45 45 45 45 45 44 43 41 39 36 34 32 31 32 32 32 32 32 34 35
40 43 45 46 47 48 49 51 53 53 54 54 52 51 50 49 48 47 46 46 46 46 45 45 45 45 45 44 42 42 40 39 37 36 36 36 36 35 34 34 35 36
38 39 41 43 43 43 43 46 50 53 55 55 54 53 52 51 50 49 48 48 47 46 46 46 46 46 45 44 43 42 40 39 39 39 39 38 38 37 37 37 37 38
37 36 37 35 33 33 35 38 42 46 50 53 53 53 52 51 50 49 49 48 47 47 47 47 47 47 46 45 44 42 41 40 40 41 40 39 39 39 39 39 39 39
36 34 34 33 32 32 32 32 33 37 43 47 49 50 50 49 49 48 48 47 47 48 48 48 47 46 45 45 45 43 42 41 41 41 40 40 40 40 40 39 39 39
38 37 37 36 35 36 36 35 36 39 42 45 47 48 49 50 50 49 48 47 48 48 49 49 48 47 46 45 44 42 41 40 40 40 41 41 41 40 40 39 38 39
42 42 40 36 34 37 38 39 41 43 44 47 47 45 46 48 49 49 49 48 48 48 48 48 47 45 45 43 41 40 40 40 41 42 42 42 41 40 39 38 37 39
45 45 42 36 34 36 37 39 41 41 43 48 48 45 45 47 47 47 48 48 48 47 47 46 44 43 42 42 41 42 43 44 44 44 43 42 41 39 38 37 37 38
46 46 44 39 37 37 37 38 39 39 41 47 49 48 48 48 47 47 47 47 47 47 46 46 45 45 45 45 45 45 46 46 45 43 42 41 40 39 38 38 38 38
46 45 43 42 40 39 39 39 39 39 42 45 48 49 49 47 47 48 48 48 48 47 47 46 46 45 45 46 46 46 46 45 43 42 42 42 41 40 39 39 39 40
43 42 41 41 41 40 41 41 41 42 43 44 46 48 48 47 47 48 49 49 49 48 48 48 47 46 46 46 46 46 46 45 44 43 43 43 42 41 41 41 41 42
41 40 39 39 41 39 38 38 41 43 44 44 45 47 48 48 47 49 49 49 49 51 51 50 48 47 47 47 47 47 47 47 47 47 46 45 44 43 43 44 44 45
40 39 38 39 40 40 37 36 40 44 46 46 47 48 49 50 50 51 50 49 49 50 51 51 50 49 49 49 49 50 50 50 50 50 49 48 48 48 48 47 47 47
40 38 38 39 40 41 39 38 41 45 47 48 50 50 51 52 53 52 51 49 48 48 48 49 49 50 50 50 50 51 51 51 52 51 51 51 50 50 50 49 48 48
43 41 41 41 41 42 41 41 44 47 48 49 51 51 52 54 55 54 53 51 49 49 49 49 49 50 51 52 52 52 53 53 54 54 54 53 52 51 50 50 49 49
47 47 48 46 43 42 42 43 46 49 50 52 53 53 54 57 58 58 57 55 53 53 53 53 54 54 54 55 55 54 54 55 55 55 54 54 52 52 51 50 50 50
51 52 52 50 46 44 44 44 45 48 51 53 54 54 55 58 60 61 61 60 59 59 59 58 58 58 58 59 58 58 57 57 56 55 54 53 52 52 51 51 51 52
56 56 54 51 49 49 49 47 47 49 51 53 54 53 55 57 58 59 61 63 63 63 62 61 61 61 60 60 60 59 59 58 58 57 55 54 54 52 52 53 53 54
60 59 57 55 53 52 52 51 50 50 52 54 54 52 51 53 54 54 57 60 62 63 62 61 61 60 59 59 59 59 59 59 59 58 56 56 56 54 54 55 56 56

ECMWFNIL_250_spd_081.txt.gz
Wind_Speed
51 54 56 57 60 63 62 56 49 45 44 44 46 48 44 37 35 38 40 40 37 36 34 32 31 30 30 29 30 31 32 33 33 33 34 34 35 36 36 36 36 34
51 52 55 55 56 61 65 62 54 48 45 44 44 47 48 47 46 43 41 39 38 38 37 36 36 35 34 34 35 35 36 36 37 36 37 37 37 37 37 36 36 34
52 51 54 54 53 56 63 67 62 56 52 49 46 44 44 47 49 48 44 40 38 38 39 39 39 40 41 40 39 38 38 38 39 38 39 39 38 38 38 37 35 34
53 51 52 53 52 52 58 65 68 64 57 51 47 42 40 41 46 48 47 44 40 40 41 41 42 42 43 43 40 39 39 40 40 40 40 40 39 38 37 36 35 34
53 52 51 50 50 50 51 58 66 68 62 54 47 43 41 42 45 49 50 47 44 43 42 42 42 43 44 44 41 41 42 42 42 41 41 40 39 38 36 35 35 34
50 51 49 48 47 47 47 50 55 60 61 56 50 48 48 47 46 49 52 50 49 49 48 46 46 46 45 43 42 43 44 43 43 42 41 40 39 38 37 36 35 35
47 48 48 47 46 45 45 45 45 47 51 52 51 50 51 51 49 48 49 50 50 51 50 49 48 46 45 44 45 47 46 44 44 43 42 40 39 39 38 37 37 36
45 46 45 45 45 45 44 43 42 41 42 45 48 50 50 51 51 51 50 50 51 52 51 50 49 47 47 49 50 49 46 45 44 43 42 41 40 40 39 38 38 37
43 44 43 43 44 46 46 44 41 39 38 40 44 45 46 46 47 50 50 50 53 56 55 54 52 49 50 51 50 47 46 45 44 43 43 42 41 41 40 39 39 39
42 43 43 42 43 46 48 47 43 40 39 40 42 43 44 44 44 45 44 44 48 53 55 54 53 51 51 51 49 47 46 45 44 44 44 43 43 42 41 41 41 41
42 44 45 44 43 44 46 48 46 43 40 39 39 40 41 43 44 44 44 42 42 47 51 51 50 50 50 50 49 47 46 44 44 44 44 43 43 43 42 43 43 42
43 44 45 43 42 41 43 45 45 42 40 39 39 39 39 41 43 45 46 45 42 45 49 48 48 48 47 47 48 46 45 44 44 44 44 44 44 44 44 44 43 43
42 43 44 43 42 41 42 42 41 39 39 39 41 41 40 41 43 45 48 49 49 51 52 49 47 46 44 44 45 45 45 45 45 45 45 45 45 44 43 43 43 42
42 43 43 43 42 42 42 40 39 39 39 39 41 43 43 42 42 43 46 48 49 52 54 51 48 46 43 43 44 45 47 47 47 47 46 45 44 41 40 40 41 41
42 42 42 42 42 42 43 41 39 39 39 39 40 41 41 42 43 43 44 45 45 48 52 50 46 44 43 43 45 47 48 48 47 46 44 41 40 39 39 40 42 42
42 42 41 41 41 43 44 43 41 40 39 41 41 39 38 38 39 40 41 43 44 46 50 48 42 42 43 43 44 45 46 46 44 43 42 42 41 42 43 44 44 44
43 43 43 42 42 43 44 44 44 44 43 44 45 43 41 39 37 37 39 42 45 48 50 47 43 42 44 44 43 44 44 44 44 45 46 46 46 47 47 46 46 45
49 47 47 45 44 45 45 45 46 46 45 46 47 46 45 43 41 41 42 43 46 49 51 50 47 46 46 45 45 45 46 48 48 49 49 49 49 49 49 48 47 46
55 54 52 51 48 47 47 49 49 47 45 46 48 47 47 47 46 46 45 46 47 49 51 50 48 47 47 46 46 46 48 50 50 50 50 51 51 50 49 49 48 47
56 56 56 56 54 51 50 51 52 50 48 47 48 49 49 48 47 46 46 46 48 50 52 51 49 48 48 47 46 47 48 50 50 51 52 52 51 50 50 49 48 47
54 55 56 56 56 55 53 52 53 53 51 49 49 49 49 48 47 46 44 44 46 49 52 52 51 51 51 49 47 47 49 50 51 52 52 52 51 51 50 49 48 47
52 54 55 55 54 54 52 51 51 52 53 52 50 50 51 50 49 48 45 44 46 49 50 51 51 52 51 50 50 50 50 50 51 52 52 52 52 52 51 50 49 48
46 51 54 55 55 54 53 52 51 52 53 53 50 49 50 52 52 50 48 47 49 50 52 53 54 55 55 54 54 54 53 53 53 53 53 53 53 52 52 51 51 51
43 45 48 51 54 56 56 55 55 54 54 54 52 50 51 52 52 51 50 51 52 52 53 54 54 54 55 55 56 56 56 56 55 54 54 53 53 53 53 53 53 54
45 44 44 46 49 52 55 56 57 57 57 56 55 54 55 55 54 53 53 54 54 53 53 55 54 53 55 55 56 56 56 55 55 54 55 55 55 55 56 56 56 56
49 47 46 45 46 48 51 53 55 56 57 57 56 57 58 59 58 57 56 55 54 53 53 54 54 54 56 56 55 55 53 53 53 53 54 54 54 54 54 54 55 56

ECMWFNIL_250_spd_084.txt.gz
Wind_Speed
45 47 47 48 52 53 56 61 63 60 55 53 53 52 48 46 44 42 40 38 36 34 31 31 33 33 34 35 35 34 32 31 32 35 35 32 30 29 29 30 31 32
44 47 48 48 51 54 56 61 65 65 61 56 55 54 51 49 48 46 43 38 35 34 32 30 32 35 36 35 32 31 31 31 33 36 35 33 32 32 33 33 33 34
42 45 47 48 51 54 57 60 65 68 66 61 57 57 55 52 51 50 49 44 38 36 36 34 33 36 37 35 32 33 34 35 37 38 37 36 36 36 37 36 35 36
41 44 47 48 50 54 57 61 65 68 69 66 61 58 56 54 54 54 55 52 46 41 40 38 35 35 36 35 34 37 40 40 41 41 40 40 41 41 41 39 38 39
40 44 47 49 50 52 56 60 63 66 67 69 67 63 59 55 55 56 56 55 52 47 44 42 39 36 36 37 38 40 43 44 44 43 43 43 42 42 42 41 41 41
39 42 45 48 50 51 54 58 62 64 66 68 70 69 65 58 55 55 55 55 55 52 49 48 46 42 41 42 43 43 45 48 48 46 45 44 43 43 43 42 42 42
37 40 43 45 48 49 51 56 59 61 64 67 70 71 69 63 57 55 54 54 53 51 49 47 47 46 48 50 52 52 53 52 51 48 46 45 44 44 43 43 44 46
35 39 41 43 47 49 49 52 56 58 61 65 67 69 69 66 61 58 55 53 50 48 48 48 45 46 50 53 55 57 58 56 53 50 48 47 46 44 44 45 47 49
34 37 39 41 45 48 48 50 53 55 57 60 62 64 64 63 61 59 58 57 54 52 52 49 45 44 46 50 54 56 58 58 57 54 52 50 48 45 46 49 50 49
33 35 37 39 42 44 46 48 51 53 54 55 57 58 58 56 56 56 56 58 58 57 55 51 48 47 46 48 53 56 57 58 57 54 53 51 48 46 47 51 52 49
31 33 35 36 39 40 42 46 50 51 52 52 51 52 51 49 48 50 52 53 55 57 57 54 52 51 49 48 50 52 55 57 56 54 52 51 48 47 49 52 53 51
31 33 34 36 38 39 41 44 48 50 50 49 47 47 47 45 44 46 48 49 51 54 55 54 54 53 52 51 51 52 53 54 53 52 51 51 50 50 52 53 53 52
32 34 35 37 39 40 41 43 46 49 49 48 47 45 45 46 45 45 46 48 50 52 52 53 53 53 54 54 56 58 56 54 52 50 51 52 52 52 53 54 54 53
34 35 37 39 40 41 43 44 46 48 49 49 48 46 44 46 46 45 44 45 48 49 49 49 50 50 52 55 58 60 58 55 53 51 50 51 51 52 53 54 55 54
37 37 38 40 42 42 44 45 46 47 49 49 51 49 47 47 46 44 42 42 45 47 47 48 49 49 52 54 56 57 56 54 52 51 50 51 51 52 53 53 54 53
41 40 40 41 43 44 44 46 47 47 48 49 51 52 51 49 48 47 45 42 42 45 48 49 50 52 55 57 57 56 55 53 52 52 52 52 51 51 52 53 54 54
44 45 44 42 43 45 46 47 47 48 48 48 49 51 51 50 49 49 50 48 45 46 48 49 50 51 54 58 59 58 56 56 55 54 52 50 49 50 52 53 54 55
47 48 47 45 44 45 46 48 48 48 48 48 48 48 48 48 49 50 50 51 52 50 49 49 50 50 51 54 58 58 58 58 56 53 50 48 48 49 51 52 53 53
47 50 50 49 47 46 47 48 49 50 49 49 48 47 46 46 48 49 49 49 51 52 52 50 49 51 51 53 56 56 56 56 55 52 49 47 47 49 51 51 51 50
47 50 52 51 50 49 49 49 50 50 50 49 48 47 46 47 48 49 49 49 50 51 52 50 49 48 48 50 53 54 53 53 54 53 51 49 48 49 51 52 52 52
46 48 51 52 52 52 52 52 51 51 51 51 50 49 47 48 49 49 50 51 52 52 51 50 50 49 47 48 51 53 53 53 53 55 56 55 54 53 52 53 54 54
45 48 50 51 52 54 55 55 54 53 53 52 52 52 51 50 50 51 52 53 54 54 53 52 52 52 51 51 53 56 57 57 56 56 57 58 56 54 53 53 54 54
43 47 49 50 52 54 56 57 57 56 55 53 53 53 53 53 53 52 52 54 55 55 55 54 54 54 53 52 54 57 58 58 58 58 58 58 57 56 55 56 56 56
43 45 48 50 52 54 57 59 59 59 58 56 55 55 55 56 55 52 51 52 54 54 54 54 55 56 54 53 54 57 57 56 57 57 57 58 58 58 58 58 58 58
44 46 47 49 51 53 56 59 61 62 62 61 59 58 57 58 59 56 51 50 52 53 53 55 56 56 56 55 56 58 58 57 56 55 55 56 56 57 58 58 59 60
44 47 48 49 51 52 53 56 60 63 65 65 65 63 61 60 62 62 58 53 51 51 54 57 57 58 59 58 58 59 60 59 59 59 58 57 58 58 59 60 62 63

ECMWFNIL_250_spd_087.txt.gz
Wind_Speed
38 37 33 31 35 41 45 42 37 39 46 52 54 52 50 48 47 46 46 45 43 40 38 39 39 41 42 40 38 39 37 35 36 37 37 38 37 39 41 41 43 44
41 39 34 30 31 39 46 42 33 34 40 45 51 55 54 51 50 49 47 45 44 42 40 40 39 40 42 41 40 43 43 38 35 35 37 38 38 41 45 45 44 45
44 42 38 33 30 33 42 41 30 29 36 42 48 57 59 55 52 50 48 46 44 43 41 39 37 37 39 42 42 44 44 39 37 39 38 38 38 41 45 46 46 47
45 43 40 36 32 30 39 43 36 33 39 45 48 53 57 58 56 53 49 48 46 44 43 40 38 37 37 39 41 42 43 41 40 41 38 36 37 40 44 45 46 46
46 44 40 37 33 30 36 43 44 43 45 47 47 50 52 56 59 57 52 51 48 46 46 43 41 41 40 39 39 39 40 41 41 40 38 37 38 40 42 44 44 44
47 44 41 37 33 30 35 41 45 47 47 46 47 49 49 51 57 61 57 54 52 48 47 46 44 44 45 44 43 42 40 39 38 37 36 36 38 40 43 45 46 45
48 45 42 37 33 30 33 40 44 46 47 48 47 46 44 44 51 61 62 58 56 52 48 49 49 47 47 47 45 45 44 43 41 38 36 37 39 43 45 47 49 50
49 45 42 37 33 29 32 40 45 48 49 50 49 43 39 40 45 55 63 60 58 58 50 47 51 52 51 50 45 44 45 46 44 41 40 40 42 45 48 50 52 53
49 45 42 38 33 29 33 41 47 51 52 52 52 46 41 45 46 48 59 62 59 59 55 50 52 55 55 53 49 46 46 44 42 42 43 43 43 45 48 52 54 55
48 45 42 38 33 29 32 41 48 53 56 55 56 53 48 50 52 48 55 65 63 59 57 56 57 58 58 57 55 51 49 48 46 44 44 44 45 47 50 55 58 58
47 44 41 38 34 29 31 40 47 54 58 56 55 56 53 52 56 55 56 65 69 63 55 53 55 57 57 59 61 58 54 52 51 50 47 44 42 45 48 52 55 56
47 43 41 38 34 30 30 37 45 51 59 59 54 54 55 53 54 59 61 63 69 69 59 47 46 51 55 57 61 62 59 56 54 54 52 46 40 41 44 48 51 53
47 42 40 37 33 31 31 36 43 48 55 60 58 56 56 54 52 56 62 63 65 70 65 50 40 45 53 57 61 63 62 59 55 54 54 50 45 42 44 48 52 53
47 42 39 36 32 32 33 36 41 46 51 56 60 59 57 55 53 54 59 62 63 67 68 58 46 43 45 51 59 64 64 60 57 56 56 55 52 50 49 51 53 53
48 42 39 36 32 32 35 37 40 45 48 51 55 58 57 55 54 55 57 58 60 64 66 62 53 46 43 45 53 61 65 63 60 59 59 60 60 58 55 55 56 57
49 43 39 36 32 32 37 40 41 44 47 48 49 52 55 54 54 55 55 54 55 58 62 62 57 52 49 47 48 55 63 66 64 62 62 63 64 62 59 56 55 57
50 45 39 36 33 33 38 41 43 45 46 47 47 48 50 52 53 54 54 53 52 54 58 59 55 52 52 50 48 51 58 63 65 65 65 64 62 61 62 60 58 56
52 47 41 37 35 34 40 43 44 46 47 48 48 47 46 49 52 53 54 53 52 54 56 55 51 51 53 51 49 50 55 60 64 65 65 64 61 59 61 64 63 61
53 49 43 39 36 35 39 46 47 47 48 49 49 48 47 47 51 54 55 55 54 53 55 55 53 53 53 50 48 48 51 56 62 63 62 62 60 59 61 64 64 63
55 51 46 41 37 36 39 46 49 49 48 49 50 51 50 49 51 54 57 57 55 53 54 56 57 55 52 50 49 47 48 53 58 61 60 60 61 61 61 63 63 62
56 54 50 44 39 37 39 45 51 52 51 50 50 51 53 53 53 54 56 59 57 55 54 56 58 57 54 53 53 50 49 50 54 56 59 62 64 64 63 63 62 62
57 56 53 48 42 39 38 43 51 55 55 53 51 52 53 55 57 57 57 59 59 58 57 57 59 59 58 58 58 56 53 52 52 53 55 59 63 65 65 63 61 60
57 57 56 52 47 42 39 41 48 56 59 57 55 54 54 56 58 59 60 60 60 60 60 60 61 62 62 62 63 63 61 59 56 55 55 58 61 63 64 65 65 63
59 58 58 56 51 45 42 41 45 52 59 62 60 58 57 57 58 60 61 61 61 60 61 61 62 63 64 65 66 67 67 66 65 63 62 63 62 61 63 67 69 68
61 61 60 58 54 49 45 43 44 48 56 62 64 63 61 59 60 61 62 63 62 62 61 61 62 62 63 65 66 67 67 68 69 68 68 67 65 64 64 66 67 66
64 64 63 60 57 52 48 45 45 47 52 59 64 66 65 63 63 63 63 64 64 64 63 61 61 61 62 64 66 66 66 67 69 69 69 68 67 67 66 66 65 65

ECMWFNIL_250_spd_090.txt.gz
Wind_Speed
44 43 41 41 42 42 40 40 40 41 45 48 46 42 45 51 56 59 56 52 52 52 51 51 50 51 50 45 41 40 41 42 44 47 49 50 48 45 45 44 43 43
45 44 43 43 42 42 41 39 38 39 42 46 48 44 43 48 54 57 55 53 54 54 51 47 47 48 49 47 45 43 43 44 45 48 50 50 48 46 43 42 41 43
46 46 45 44 44 42 41 39 38 38 39 43 48 45 41 45 52 56 56 55 55 55 52 48 46 46 46 45 46 46 47 48 48 50 52 50 49 46 43 41 41 43
47 47 47 46 45 43 41 39 38 37 38 40 46 46 41 43 50 55 57 56 55 55 54 52 50 47 46 45 45 46 49 50 49 51 53 51 49 48 47 47 45 44
48 48 48 47 46 45 42 40 37 37 37 37 43 46 43 43 48 55 59 56 53 54 55 55 51 47 46 47 47 47 48 49 49 50 51 50 49 48 48 50 48 43
49 48 48 47 47 46 43 41 38 36 37 36 40 44 42 43 47 55 61 57 52 53 55 56 53 49 47 47 48 48 48 48 48 49 50 51 52 52 51 52 48 43
50 49 49 48 47 47 45 43 39 36 36 35 37 41 40 41 47 55 60 55 51 53 56 56 56 54 50 48 47 48 48 47 46 47 49 51 51 51 51 52 49 45
52 50 50 49 48 49 48 45 40 35 35 34 36 40 40 40 46 55 58 52 48 52 55 55 54 54 51 48 46 47 46 44 43 45 48 50 50 49 49 51 49 47
54 52 51 50 50 50 49 47 42 36 34 34 35 40 43 42 46 55 58 52 48 50 53 53 53 52 50 48 47 47 45 42 43 46 49 50 51 50 49 50 50 47
55 53 52 51 51 51 50 49 44 37 34 34 35 39 46 47 48 55 59 54 48 49 51 50 53 54 51 48 47 46 44 43 45 48 51 53 54 52 50 51 50 48
56 55 54 52 52 52 51 50 46 39 34 33 34 38 46 51 52 54 58 54 49 51 50 46 49 55 54 51 48 45 44 46 48 50 52 55 56 55 54 53 52 50
57 57 55 53 53 52 52 51 48 42 35 32 34 37 43 52 56 56 58 55 51 53 52 45 43 50 55 55 53 50 49 50 51 51 53 56 58 57 56 54 51 49
58 58 56 55 54 53 52 51 49 44 38 32 32 36 42 49 56 59 59 57 52 52 54 50 45 47 53 56 53 51 51 51 52 52 53 56 58 60 59 56 54 51
59 59 58 56 54 53 52 51 48 46 41 33 30 35 41 47 54 58 60 58 54 50 53 54 50 46 49 55 58 56 53 50 50 51 52 53 56 59 62 61 59 56
60 60 59 58 56 54 53 51 48 45 42 36 30 31 39 46 51 57 60 60 56 52 52 55 54 48 44 50 61 65 61 55 51 50 50 50 51 55 60 62 63 61
61 61 61 59 57 55 53 51 48 45 42 39 32 29 35 43 50 56 61 63 60 57 55 56 58 56 48 46 53 63 67 64 58 53 50 48 49 52 55 59 62 63
62 61 61 60 58 56 54 52 49 45 41 39 35 30 32 40 47 54 61 66 66 63 61 59 60 61 58 52 50 55 64 68 62 55 52 50 49 50 51 54 58 61
63 62 62 61 60 58 56 54 51 47 41 38 37 34 31 36 44 51 58 65 69 69 68 67 66 65 64 61 56 53 58 66 65 58 56 56 53 51 50 51 56 60
63 63 62 61 61 60 58 56 53 49 43 38 36 35 34 35 40 48 55 61 67 71 73 73 71 70 68 66 64 59 56 62 67 66 62 60 58 55 52 50 53 59
64 63 63 62 62 61 60 58 56 52 46 40 36 35 36 37 39 44 51 57 63 69 73 75 73 71 70 69 68 67 63 61 64 68 67 63 60 58 55 51 50 55
64 63 63 63 62 62 62 60 59 56 51 44 38 35 36 39 42 45 49 54 60 65 70 75 75 72 70 69 69 71 71 67 65 69 70 66 64 61 59 55 51 52
65 64 64 63 63 63 63 62 61 58 54 49 43 38 35 38 43 48 51 53 57 61 65 70 75 76 73 71 70 70 71 69 68 70 72 70 67 64 61 58 56 54
65 65 65 65 64 64 64 64 63 61 57 53 48 43 38 37 41 48 54 56 57 59 61 63 68 73 75 74 72 72 71 68 67 70 72 71 69 67 62 59 58 58
66 66 66 66 66 65 65 65 65 63 60 57 53 48 43 40 40 44 52 59 61 60 60 61 63 68 72 74 73 73 73 70 67 68 70 70 69 68 65 61 58 58
67 68 68 68 68 67 67 67 66 65 63 60 56 52 48 45 43 44 48 56 63 64 62 61 62 65 69 72 74 74 74 73 70 68 69 69 69 70 69 66 62 60
69 70 70 70 69 69 69 69 67 66 64 62 60 56 52 48 46 46 47 51 59 65 66 64 63 64 67 71 74 75 75 75 73 71 70 70 71 72 72 71 68 65

ECMWFNIL_250_spd_093.txt.gz
Wind_Speed
50 49 49 49 50 50 50 51 51 51 51 51 52 53 53 52 51 49 48 47 45 42 43 45 51 54 51 46 45 48 51 52 50 46 45 43 40 40 43 47 49 50
50 49 49 50 50 51 51 52 52 51 50 52 52 52 53 52 51 49 47 48 46 41 40 44 48 53 54 48 45 47 48 50 51 48 46 46 43 42 42 45 50 52
51 50 50 50 51 51 52 53 52 51 50 52 52 52 52 51 50 49 46 46 47 43 41 44 47 50 53 50 47 47 47 49 52 51 48 48 49 47 44 43 47 51
52 51 51 51 52 53 53 54 53 51 50 51 53 52 51 49 48 47 44 43 46 46 43 44 48 50 50 50 49 48 47 48 52 53 49 48 49 50 48 45 47 51
52 52 52 52 53 54 54 54 53 52 51 51 52 52 51 49 47 46 43 42 44 46 44 44 48 51 50 50 52 52 49 48 51 53 51 47 46 47 48 48 49 51
52 53 53 54 54 55 55 54 53 52 51 51 52 52 51 48 46 45 43 41 42 45 44 44 47 52 54 52 52 54 52 47 47 50 51 49 46 46 46 46 48 49
53 53 54 54 55 55 55 55 54 53 52 51 52 52 51 49 46 44 43 40 41 43 42 43 46 50 56 56 54 54 52 47 45 47 50 50 49 48 47 47 48 49
54 54 55 55 56 56 55 54 54 54 52 52 52 52 51 50 47 44 42 40 39 40 41 43 45 47 54 58 56 55 52 49 48 46 47 49 49 47 47 48 49 51
55 55 55 56 56 55 55 55 54 54 53 52 52 52 51 50 48 45 41 39 37 38 39 42 45 46 52 56 56 56 55 54 52 48 46 48 47 44 44 46 47 50
56 56 56 56 56 55 55 55 55 55 54 53 52 52 51 49 48 45 41 38 36 36 39 42 45 46 51 55 55 56 57 57 56 52 49 49 48 47 46 46 48 49
57 57 56 56 56 55 55 55 55 55 54 53 52 52 51 50 48 45 41 38 34 35 38 42 45 47 50 54 55 55 56 57 57 54 51 50 50 51 50 50 50 51
57 56 56 56 56 56 56 55 55 56 55 54 52 52 52 50 48 46 42 37 33 33 39 42 45 47 49 54 55 55 55 56 57 56 54 52 50 50 51 51 50 49
56 56 56 56 56 56 56 56 56 56 56 54 53 52 52 51 49 47 42 38 33 32 38 43 45 47 50 54 56 57 57 58 58 58 58 56 53 51 50 51 49 48
56 56 56 56 56 56 56 56 57 57 56 55 53 52 51 51 50 48 44 39 34 31 37 44 47 49 53 55 58 58 58 59 60 60 60 59 57 56 55 53 51 49
56 57 57 57 57 57 57 57 57 57 56 55 54 52 51 50 49 48 46 41 36 32 35 44 50 53 54 56 59 60 59 60 61 61 61 59 58 60 60 58 55 51
57 57 57 57 57 57 58 58 58 58 57 56 55 53 51 50 49 48 46 44 39 35 33 41 52 57 57 56 58 60 60 61 62 63 64 62 60 60 61 60 59 56
57 58 58 58 58 58 59 59 59 58 58 57 56 54 51 50 49 48 46 45 42 38 35 38 49 59 61 59 59 60 61 62 63 64 66 66 63 60 59 60 60 60
58 58 59 59 59 59 60 60 59 59 58 58 56 55 53 51 49 48 47 45 44 41 38 37 44 56 64 64 62 61 61 63 64 64 66 68 68 64 60 59 59 60
59 60 60 60 60 60 60 60 60 60 59 59 58 56 55 53 51 49 47 45 44 43 42 39 40 50 61 66 67 64 62 63 66 67 66 68 70 70 67 63 62 62
60 61 61 61 61 61 61 61 61 61 60 59 59 58 57 56 54 51 49 47 44 43 44 43 41 44 55 64 69 68 65 64 66 68 68 68 69 71 71 69 68 67
60 61 61 62 62 62 62 62 62 61 61 60 60 59 58 57 56 54 52 50 46 43 44 45 44 44 49 59 68 71 70 68 68 68 69 69 68 69 72 72 72 71
61 61 62 63 63 63 63 62 62 62 62 62 61 60 60 59 58 57 55 53 50 46 44 44 47 47 47 53 64 72 75 74 73 71 70 69 68 68 69 70 72 73
62 63 63 64 64 63 63 63 63 63 63 63 63 62 62 61 60 59 58 57 54 51 47 45 46 49 50 51 57 68 76 79 79 77 74 73 72 71 70 70 72 73
64 64 64 65 65 64 64 64 64 65 65 64 64 64 64 64 63 62 61 60 58 55 53 49 47 49 51 53 55 61 71 79 83 83 81 79 77 76 75 74 75 75
65 65 65 65 65 65 65 66 66 66 66 66 66 66 66 66 66 65 64 63 61 59 57 54 51 50 52 54 56 59 64 72 80 84 85 85 83 82 80 79 79 79
65 65 66 66 66 66 67 67 68 68 68 69 69 69 69 68 68 68 67 66 64 62 60 58 56 54 54 55 58 61 63 68 74 79 83 85 86 85 83 81 79 79

ECMWFNIL_250_spd_096.txt.gz
Wind_Speed
48 48 48 47 47 47 48 48 48 48 49 50 50 50 51 52 53 54 54 54 53 54 54 53 50 46 44 41 37 36 41 47 49 50 51 49 49 49 47 47 46 42
49 50 50 49 49 48 48 48 48 48 49 49 50 50 51 52 53 55 56 55 54 53 54 54 51 47 44 42 38 36 39 47 49 48 50 51 52 51 49 47 47 44
51 51 51 51 50 49 49 49 48 48 49 49 50 50 51 52 53 55 57 56 55 54 53 53 52 48 44 42 39 36 38 45 51 49 48 49 51 51 49 48 47 45
53 53 53 53 52 52 51 50 50 49 49 50 50 51 52 52 53 55 57 57 55 54 54 53 53 50 45 43 40 37 37 43 50 52 49 48 49 49 47 46 46 45
55 55 55 55 55 54 53 53 52 51 51 51 51 52 52 53 54 55 57 57 55 54 54 53 52 52 46 42 39 37 37 41 47 51 51 49 50 49 47 44 44 44
57 58 57 57 57 56 56 55 55 54 54 53 53 53 53 53 54 56 56 56 55 55 55 53 52 51 47 41 38 37 37 40 45 48 50 49 48 49 48 45 45 44
55 57 58 59 59 59 59 58 57 57 56 56 55 55 55 55 55 56 56 55 55 54 54 54 52 51 48 42 37 35 36 40 44 47 49 49 48 49 48 46 47 46
51 52 54 57 59 60 60 60 60 59 58 57 57 57 57 56 56 56 55 55 55 53 53 53 53 51 48 42 36 34 36 40 45 48 49 50 50 51 50 48 47 47
50 50 51 52 54 56 58 60 60 60 60 59 58 58 58 57 57 56 55 55 54 54 53 52 52 50 47 43 37 33 36 40 47 51 51 52 54 53 52 50 48 48
49 50 49 50 51 52 55 57 58 59 59 59 58 58 58 57 57 55 55 54 54 54 53 52 51 49 46 44 38 33 36 41 47 53 53 54 55 54 53 51 49 51
50 50 50 50 50 51 52 54 56 57 58 58 58 58 58 58 57 56 54 54 54 54 53 52 50 48 45 43 39 34 36 41 47 54 56 55 55 54 54 52 51 52
52 52 51 51 51 51 52 53 54 55 57 58 58 58 58 57 56 55 54 53 53 54 54 53 50 47 43 42 39 35 36 41 46 53 58 57 55 55 55 54 52 52
52 52 51 51 51 51 51 52 53 54 55 56 57 57 58 57 56 55 55 54 53 54 54 53 52 48 43 40 38 35 35 42 45 50 58 59 57 57 58 56 54 51
52 52 51 51 50 51 51 52 53 54 55 56 56 57 57 57 57 56 55 54 54 54 53 53 52 49 45 40 38 35 35 41 46 49 56 61 59 57 59 59 56 52
53 52 51 51 51 51 52 53 53 54 54 55 56 57 57 57 57 56 56 55 54 54 53 53 52 50 47 42 38 35 34 40 47 49 54 62 62 59 59 60 59 55
55 54 54 53 54 54 55 55 55 55 55 56 56 57 57 57 57 57 57 56 55 54 53 52 52 50 48 45 40 37 34 37 46 50 53 59 64 64 63 62 61 58
58 57 57 58 58 58 57 57 56 56 56 56 56 57 57 57 57 57 57 57 56 55 54 52 51 50 49 46 43 39 36 35 43 52 54 57 63 66 67 66 64 62
61 60 60 60 60 60 60 59 58 58 58 57 57 57 57 57 57 57 57 57 57 56 55 53 51 50 49 47 45 43 39 36 40 50 57 58 61 65 68 69 68 66
63 62 62 62 62 61 61 61 60 59 59 58 58 57 57 57 57 57 57 57 57 57 56 55 53 51 49 48 47 46 43 39 38 45 57 62 62 64 67 69 70 70
65 65 64 63 63 62 62 61 61 60 60 60 59 58 58 58 58 58 57 57 57 57 57 56 55 53 51 49 48 47 46 44 41 41 51 63 66 65 66 68 70 71
65 65 65 64 63 63 62 62 61 61 61 60 60 60 59 59 59 58 58 58 58 58 58 57 57 56 54 52 50 49 48 48 46 43 45 56 67 71 69 68 70 71
64 64 64 64 64 63 62 62 61 61 61 61 61 61 60 60 60 60 59 59 59 59 59 59 59 58 57 55 53 52 50 50 49 47 45 48 59 70 74 73 71 71
63 64 64 64 63 63 63 63 63 62 62 62 62 61 61 61 61 61 61 61 61 60 60 61 60 60 60 59 57 55 54 52 51 51 50 48 51 61 72 77 77 74
63 64 64 64 64 64 64 64 64 64 64 64 63 63 62 62 62 62 62 62 62 62 62 62 63 63 62 62 61 59 58 57 55 53 53 52 52 54 63 74 81 81
65 65 66 67 66 66 66 66 66 66 65 65 65 65 64 64 64 64 64 64 64 65 65 65 65 65 65 65 65 63 62 61 60 58 56 55 55 56 58 65 75 83
66 67 68 68 68 68 68 67 67 67 67 67 67 67 66 66 66 66 66 67 67 67 68 68 68 68 68 68 68 67 66 65 64 63 61 58 57 59 60 61 66 76

ECMWFNIL_250_spd_099.txt.gz
Wind_Speed
52 52 52 52 53 53 53 52 51 51 50 50 49 49 49 48 47 46 46 47 48 49 50 51 51 50 49 49 49 50 49 47 44 41 39 36 38 46 50 50 48 50
51 52 52 53 54 54 52 52 51 51 51 51 51 51 51 50 49 49 50 50 51 52 53 53 53 53 52 50 50 50 50 48 46 43 40 36 36 42 50 52 50 50
52 53 54 54 54 53 53 52 52 52 52 53 53 53 53 53 52 52 53 53 54 54 54 55 55 55 54 53 51 50 50 49 46 43 40 37 34 39 46 49 49 50
53 54 54 54 53 53 53 53 53 54 55 55 55 56 55 55 55 55 56 56 56 56 56 56 56 56 55 54 53 50 49 48 46 43 40 37 34 37 44 47 47 49
54 55 54 53 52 51 51 50 51 51 53 54 55 56 57 57 58 58 58 58 58 58 57 57 56 56 56 55 54 52 49 47 45 43 40 37 33 36 42 46 47 49
54 53 53 51 49 49 48 48 48 49 50 51 51 52 54 55 56 57 58 59 59 59 58 57 56 55 55 55 55 53 50 46 44 42 40 37 33 35 41 45 47 50
52 51 51 50 49 48 48 48 49 50 50 50 50 50 51 51 52 54 55 56 57 57 56 56 55 54 54 54 54 53 50 47 44 42 40 37 34 34 40 45 47 49
50 51 51 50 50 50 50 51 51 51 51 51 51 51 50 50 50 51 51 52 54 54 54 54 54 53 52 52 52 52 51 47 44 42 40 37 34 34 40 44 46 49
50 51 51 52 53 52 52 52 52 51 51 51 50 50 50 50 49 50 50 50 51 52 53 53 52 52 51 50 50 50 50 48 45 42 40 38 35 33 39 44 46 50
52 53 54 54 54 54 54 53 51 51 51 52 51 51 51 50 50 50 49 50 50 51 51 52 52 51 50 49 49 48 47 47 45 43 41 38 35 33 38 44 47 51
54 55 55 55 55 55 54 52 52 53 53 53 53 52 51 50 49 49 49 49 49 50 50 51 51 51 50 49 48 47 46 45 44 43 41 39 36 33 36 44 48 52
55 55 56 56 56 55 54 54 55 56 54 53 52 52 50 49 49 48 48 49 49 50 50 50 51 51 51 49 48 47 45 44 43 42 41 40 37 33 34 42 49 53
55 56 57 58 58 57 57 58 59 57 55 53 52 51 50 49 49 50 50 51 51 51 51 51 51 51 51 50 49 47 46 44 42 41 41 40 38 35 33 40 50 55
56 58 59 59 60 60 60 60 59 58 56 54 53 52 52 52 52 53 54 54 54 53 53 53 52 52 51 51 50 49 47 45 43 42 40 39 39 36 34 37 49 57
58 59 60 60 60 59 58 57 57 57 57 56 56 55 55 55 56 57 57 57 57 56 55 54 53 53 52 51 51 50 48 46 44 43 41 39 39 38 35 35 45 57
58 59 59 58 57 57 57 57 57 57 58 59 58 58 57 58 59 59 60 59 59 58 57 56 55 54 53 52 51 51 51 49 46 44 42 41 40 39 37 36 40 53
58 58 58 58 59 59 60 60 60 60 61 61 61 60 60 61 61 62 62 61 60 59 58 57 57 56 55 54 52 51 51 51 49 47 45 42 41 40 39 37 38 47
59 60 61 61 62 62 62 62 62 63 63 63 63 63 63 63 63 62 62 61 60 60 59 59 58 58 57 56 55 53 52 51 51 50 48 46 44 42 40 39 39 43
60 62 62 63 63 63 64 64 64 64 64 64 64 64 64 63 63 62 61 61 60 60 60 59 59 59 58 58 57 56 54 53 52 51 51 50 47 45 43 41 41 42
61 62 63 64 64 64 64 65 64 64 64 64 63 63 63 62 62 62 61 61 61 60 60 60 60 60 60 59 59 58 57 56 55 54 53 52 51 49 47 44 43 43
62 63 64 65 65 65 65 64 64 64 63 63 63 63 62 62 63 63 63 62 61 61 61 61 61 61 61 61 61 60 59 59 58 56 55 55 53 52 51 49 47 46
62 63 64 64 64 64 63 63 63 62 62 62 63 63 63 64 64 64 64 63 63 62 62 62 62 62 62 62 62 62 61 61 60 59 58 57 56 55 54 53 51 49
61 62 62 62 62 62 62 62 62 62 63 63 64 64 65 65 65 65 65 64 64 64 64 64 63 63 63 63 64 64 63 63 62 62 61 60 58 57 57 56 55 53
61 61 61 61 61 61 62 62 62 63 64 65 66 66 66 66 66 66 66 65 65 65 65 65 65 65 65 65 65 65 65 65 65 64 64 63 62 60 59 59 58 57
62 62 62 62 62 62 62 63 64 65 66 66 67 67 67 68 68 68 68 67 67 67 67 67 67 67 67 67 67 67 67 67 67 67 66 66 65 64 62 61 61 61
63 64 63 63 63 63 64 64 65 67 67 68 68 69 70 71 71 70 70 70 69 69 69 69 69 69 69 70 70 70 69 69 69 68 68 68 67 67 66 64 64 64

ECMWFNIL_250_spd_102.txt.gz
Wind_Speed
53 53 53 52 51 51 50 50 49 49 49 49 50 50 50 50 51 51 51 51 51 51 51 51 51 52 52 52 51 52 52 52 52 52 52 52 51 49 47 44 42 40
50 50 50 49 49 49 48 49 49 49 50 50 50 50 50 50 50 50 50 49 49 50 51 52 53 53 54 53 53 53 53 53 53 53 53 52 51 49 46 44 42 41
47 48 48 48 48 48 49 49 50 51 51 51 50 50 50 50 49 48 47 46 46 47 49 50 51 52 53 53 53 53 53 53 53 53 52 51 50 48 45 43 42 41
47 48 48 48 49 49 50 50 51 51 50 50 50 50 49 48 47 46 45 45 46 46 47 48 48 49 49 50 50 51 51 51 51 51 51 49 48 46 44 42 42 41
48 48 48 49 49 50 50 51 51 50 50 50 49 48 47 47 46 46 46 47 47 47 47 48 48 48 48 48 48 48 48 48 49 49 48 47 45 44 42 41 41 41
49 49 49 49 50 51 51 51 51 51 50 49 48 47 47 47 48 48 48 49 49 48 48 48 48 48 48 48 47 47 47 47 48 47 47 46 44 42 41 39 39 40
49 50 50 51 52 53 53 52 51 50 49 48 47 47 48 49 50 50 50 50 49 49 48 49 49 49 48 48 48 48 47 47 47 47 47 46 44 42 40 39 38 39
50 51 52 53 54 54 53 52 51 50 50 49 49 49 50 51 51 51 51 51 50 50 50 51 51 51 51 50 49 48 47 46 45 46 46 45 44 43 41 39 38 38
50 52 53 53 53 53 53 52 52 51 51 51 52 53 53 52 52 52 52 51 51 52 53 53 53 52 52 50 49 48 47 46 45 44 45 44 44 44 42 40 38 37
50 50 51 51 52 52 52 52 52 52 53 54 55 55 54 53 53 53 53 53 54 55 55 54 53 52 51 50 48 47 47 47 46 45 45 44 44 44 43 41 39 38
49 50 50 50 51 52 52 52 53 53 54 55 56 56 55 55 55 55 55 56 56 57 56 54 52 52 51 50 49 48 48 48 49 48 47 45 44 43 43 43 41 39
50 50 51 52 52 53 53 53 54 54 55 55 56 56 55 56 56 57 57 56 55 55 54 53 52 52 52 52 52 51 51 51 51 50 50 48 46 44 43 43 43 41
50 51 52 53 54 54 54 54 54 55 55 56 56 56 57 57 57 57 56 55 55 55 55 54 53 53 54 54 55 54 54 54 53 53 52 50 49 46 45 44 43 43
52 52 53 54 54 54 54 55 55 56 56 57 57 57 58 58 58 57 57 58 59 59 58 57 56 55 55 56 57 58 58 58 57 55 54 52 51 49 47 45 45 44
52 52 53 53 54 54 55 56 56 57 57 58 58 58 59 59 59 60 60 61 61 61 60 60 59 59 58 59 59 60 60 60 59 57 55 54 53 51 49 47 46 46
51 52 53 54 55 56 56 57 57 58 58 59 59 60 60 61 61 62 62 63 62 62 62 62 62 61 61 61 60 61 61 61 60 59 56 55 54 53 52 50 49 47
52 53 54 55 56 57 57 58 58 58 59 60 60 61 62 63 63 63 64 64 64 64 63 63 63 63 62 62 61 61 60 60 59 59 58 56 55 54 54 53 52 50
53 54 55 56 57 57 57 58 58 59 59 60 61 63 64 64 65 65 65 65 64 64 64 64 64 64 63 63 62 61 61 60 59 59 58 58 57 56 55 55 54 53
54 55 56 56 57 57 57 58 58 59 60 61 63 64 65 65 65 65 65 65 65 65 65 65 65 64 64 63 63 62 62 61 61 60 59 59 58 57 57 56 56 56
55 55 56 56 57 57 57 58 58 60 61 63 64 65 66 66 66 66 66 66 65 65 65 65 65 65 65 65 64 64 64 63 62 62 61 60 59 59 58 58 58 57
55 56 56 56 57 57 57 58 59 61 62 64 65 66 67 67 67 67 67 67 66 66 66 66 66 66 67 67 66 66 66 65 64 64 63 62 62 61 60 59 59 59
55 56 56 56 57 57 58 60 61 63 64 66 67 68 68 68 68 68 68 68 67 67 67 68 68 68 68 68 68 68 67 67 66 65 64 64 63 63 62 61 61 61
56 56 56 57 58 59 60 62 63 65 66 68 69 69 70 69 69 69 69 68 68 68 68 69 69 69 69 69 69 69 68 68 67 66 66 65 65 65 65 64 63 62
57 57 58 59 60 61 63 64 65 67 68 69 70 71 71 71 71 71 70 69 68 69 69 70 70 70 70 71 71 70 70 70 69 69 68 67 67 66 66 66 66 65
59 59 60 62 63 64 65 66 68 69 70 71 72 72 72 72 72 71 70 69 69 70 70 71 72 72 73 73 73 73 73 72 71 71 70 69 69 68 68 67 67 67
62 63 63 64 65 66 67 69 70 71 72 73 73 73 73 72 71 70 70 70 71 72 73 73 74 74 75 75 75 75 74 73 73 72 71 70 69 69 68 68 67 67

ECMWFNIL_250_spd_105.txt.gz
Wind_Speed
47 48 49 50 50 51 51 51 51 51 51 51 50 49 48 48 47 46 46 46 46 47 47 47 48 47 46 45 44 43 43 44 45 45 46 47 47 48 50 51 51 51
48 48 49 49 50 50 50 50 50 50 50 49 48 47 47 46 46 46 46 46 46 46 47 47 46 45 44 44 43 43 44 44 45 45 45 46 46 46 47 48 49 49
48 48 49 49 50 50 50 49 49 49 48 47 47 46 46 46 46 46 45 46 46 46 46 46 45 44 44 44 44 45 45 46 46 46 46 46 46 46 46 47 47 47
48 48 49 49 50 49 49 49 48 47 47 47 47 47 47 47 46 46 46 47 47 46 46 45 45 45 45 46 46 47 47 47 47 46 46 46 46 46 46 46 47 47
48 48 49 49 49 48 48 48 48 47 47 47 48 48 48 47 47 47 48 47 47 47 46 45 46 46 47 48 48 48 48 48 48 47 47 48 48 48 48 48 48 47
47 48 48 49 48 48 48 48 48 48 48 48 49 49 49 49 49 49 49 48 48 48 48 47 48 48 49 49 49 49 49 49 49 49 50 50 50 50 50 49 49 48
47 47 48 48 48 48 48 48 47 47 48 48 49 50 50 50 50 50 50 49 49 49 49 49 50 50 51 50 50 50 50 51 51 52 53 53 52 51 50 49 48 47
47 48 48 47 47 47 47 47 47 48 49 50 50 51 51 51 50 50 50 50 50 51 51 51 52 52 52 52 52 52 52 52 53 53 54 54 53 52 50 49 48 47
48 48 48 48 48 48 48 49 49 50 51 51 51 51 51 50 50 50 50 50 51 52 52 53 53 53 53 53 53 54 54 54 53 53 52 53 53 52 51 50 49 48
50 50 50 49 49 49 50 50 51 52 52 52 52 51 51 51 51 51 51 52 52 53 53 54 54 55 55 55 55 55 55 55 54 54 53 53 53 53 52 51 51 50
51 51 51 51 51 51 51 52 52 53 53 53 52 52 52 52 52 52 53 53 53 54 54 55 56 56 57 57 57 57 57 57 57 57 57 56 55 54 54 53 53 53
52 52 52 52 52 52 53 53 53 54 53 53 53 52 52 53 53 53 53 54 54 55 56 57 57 58 58 58 59 59 60 60 60 61 60 60 58 57 56 55 55 55
54 54 54 54 54 54 54 54 54 54 54 53 53 53 54 54 54 54 54 55 56 57 58 58 59 60 60 61 61 61 62 62 63 63 62 61 60 59 58 57 57 57
55 55 55 55 55 54 54 54 54 54 54 54 55 55 55 54 55 55 56 57 58 58 59 60 60 61 62 63 63 63 64 64 64 63 63 62 61 60 60 59 58 58
55 55 55 55 55 55 55 55 55 55 55 55 55 55 56 56 57 57 58 59 59 60 61 62 62 63 63 64 65 65 66 65 64 63 63 62 62 61 61 60 59 59
54 55 55 55 55 55 55 55 56 56 56 56 56 57 57 58 58 59 59 60 61 62 63 64 64 64 65 65 66 66 67 66 66 65 64 64 63 63 62 61 60 60
53 53 54 54 54 55 55 56 56 57 57 57 58 58 59 60 60 60 61 62 63 64 65 66 66 66 66 67 67 67 68 68 67 66 66 65 65 64 64 63 63 62
54 53 53 54 55 55 56 56 57 57 58 59 59 60 60 61 61 62 63 64 65 66 67 67 68 68 68 69 69 69 69 69 69 68 68 67 67 66 65 65 65 64
56 55 55 55 56 56 56 57 58 58 59 60 61 61 62 62 63 64 65 66 67 68 68 69 70 70 71 71 72 72 72 71 71 70 70 69 68 67 66 66 65 65
58 58 58 58 58 58 58 59 59 60 61 62 62 63 63 64 65 66 67 68 68 69 70 71 72 73 74 74 75 75 75 74 73 72 72 71 70 68 68 67 66 66
58 58 59 60 60 60 61 61 61 62 62 63 63 64 65 66 67 68 68 69 70 71 72 73 74 75 76 77 78 77 77 76 75 74 73 71 71 70 69 69 68 68
57 58 59 60 60 61 61 61 62 63 63 64 64 65 66 67 68 69 70 71 72 73 74 76 77 78 79 79 79 78 77 76 75 74 73 72 72 72 72 71 70 69
54 56 57 58 60 60 61 62 63 63 63 64 65 66 67 68 69 70 72 73 74 75 77 78 79 80 81 80 80 78 77 76 75 74 75 75 75 74 74 73 72 71
53 54 55 57 58 60 61 63 63 64 64 65 66 67 68 70 71 72 74 75 76 78 79 80 81 82 81 80 79 78 77 77 77 78 78 78 78 77 76 74 72 70
55 56 56 57 58 59 61 62 63 64 65 66 68 69 70 72 73 74 75 77 78 79 81 82 82 81 80 79 78 78 78 79 80 81 81 80 79 78 76 73 71 68
58 59 59 59 59 60 61 62 63 64 66 67 69 70 72 73 74 75 77 78 80 81 82 82 81 80 79 79 79 79 80 81 82 82 81 79 78 76 75 73 70 67

ECMWFNIL_250_spd_108.txt.gz
Wind_Speed
41 42 43 43 43 44 45 45 46 46 47 47 47 47 47 47 47 47 47 47 46 45 44 43 43 42 42 42 42 43 44 43 43 43 43 42 43 43 43 44 44 44
46 47 47 46 46 47 47 47 47 47 47 48 48 47 47 47 47 47 47 47 46 45 44 43 43 42 42 42 44 44 45 44 44 44 44 44 44 44 45 45 45 45
51 50 49 48 48 48 48 47 47 48 48 48 48 48 48 48 48 48 47 47 47 46 45 44 43 43 44 44 46 46 46 46 46 46 46 46 46 47 47 47 46 46
48 47 47 47 47 47 47 47 47 48 48 49 49 49 49 49 48 48 48 48 47 46 46 45 45 45 46 47 48 48 48 48 48 49 49 49 49 49 49 48 48 47
44 44 44 45 45 46 47 47 47 48 49 49 50 49 49 49 49 48 48 48 48 47 46 46 46 47 47 48 49 49 49 49 50 50 50 50 50 50 50 50 50 49
42 42 42 44 45 46 47 48 48 49 50 50 51 50 50 49 49 49 49 49 48 47 47 47 48 48 49 49 50 50 50 50 50 50 51 51 51 50 50 50 50 50
39 40 42 44 46 47 48 49 50 50 51 51 52 51 51 51 50 50 49 49 49 49 49 49 49 50 51 51 51 51 52 52 52 52 52 52 51 51 51 51 51 51
39 41 43 45 47 49 50 51 52 52 52 52 52 52 52 51 51 51 50 50 50 50 51 51 51 52 53 53 53 53 54 54 54 54 53 53 53 53 54 54 53 53
43 45 47 48 49 50 51 52 52 53 53 52 52 52 52 52 52 52 52 52 52 52 52 53 53 54 54 54 55 55 55 55 55 55 55 55 55 55 56 56 56 56
49 51 52 52 52 52 53 53 53 53 53 52 52 52 53 53 53 53 53 53 53 54 54 54 55 56 56 56 56 57 57 57 57 57 57 57 57 57 58 58 58 59
52 53 53 53 53 54 54 54 53 54 54 54 54 54 54 54 54 54 55 55 55 56 56 56 57 57 57 58 58 58 58 58 59 59 59 59 59 60 60 61 61 61
51 51 51 51 52 52 53 53 53 54 55 56 57 57 56 56 56 57 57 57 57 57 58 58 58 58 59 59 59 59 59 60 60 61 61 61 61 62 63 63 63 62
51 52 52 52 53 53 53 53 54 55 56 57 58 58 58 58 58 58 58 58 58 58 58 58 59 59 59 60 60 60 61 62 62 62 63 63 64 65 65 64 63 63
54 55 56 57 57 57 56 55 55 56 57 57 58 58 58 58 58 59 58 58 58 58 58 58 59 60 61 61 62 62 63 63 64 64 65 66 66 66 65 65 65 65
57 58 59 60 60 59 58 58 58 58 58 58 57 57 58 58 58 58 58 58 58 59 59 59 60 61 62 63 64 64 64 65 65 66 67 67 67 67 67 67 67 67
59 59 60 60 60 59 59 58 58 59 59 59 59 59 59 59 59 58 58 59 59 59 60 61 62 63 63 64 65 65 66 66 67 68 68 69 69 70 71 70 70 69
60 60 60 60 60 59 58 58 58 59 60 60 60 61 61 61 61 60 60 60 60 61 62 63 63 64 65 65 66 66 67 68 68 69 70 71 72 73 73 74 73 73
60 60 60 59 59 58 58 58 59 59 60 60 61 61 62 62 62 62 63 63 63 64 64 65 65 65 66 66 67 67 68 69 70 71 73 74 74 75 75 76 77 77
60 60 59 59 59 59 59 59 59 60 60 60 60 60 61 62 62 63 63 64 64 65 65 66 66 66 67 67 68 69 70 71 72 74 75 75 76 77 77 78 79 79
60 61 61 61 61 61 60 59 58 58 57 58 58 58 59 60 60 61 62 63 64 65 65 66 67 67 68 69 70 71 72 74 75 75 76 77 77 78 79 80 80 80
59 61 62 63 64 62 60 58 57 56 56 57 57 57 58 58 59 60 60 61 63 64 65 67 68 69 70 71 72 73 74 75 76 77 78 79 79 80 80 80 79 78
59 61 63 65 65 62 60 58 57 56 57 58 58 59 59 59 59 60 61 62 63 63 65 66 67 68 70 71 72 74 75 76 77 79 80 80 81 81 80 79 78 77
59 61 64 65 65 63 62 61 60 60 60 61 61 61 60 60 61 62 62 63 63 64 65 65 66 68 70 72 73 75 77 78 80 81 82 82 81 80 79 78 78 77
60 62 63 64 65 64 64 64 63 63 63 64 64 63 63 63 64 64 64 65 65 65 66 67 68 70 72 74 75 77 79 81 82 83 82 82 81 80 80 81 80 79
60 61 62 64 64 65 65 65 65 65 66 66 66 66 65 66 66 66 66 66 66 67 67 69 70 72 74 76 78 80 81 82 82 82 82 81 82 83 84 84 82 79
60 61 62 63 64 64 65 65 66 66 67 68 68 67 67 67 67 67 67 67 67 68 69 70 72 74 76 78 80 81 82 82 82 81 82 83 85 86 85 83 80 78

ECMWFNIL_250_spd_111.txt.gz
Wind_Speed
46 45 45 45 45 45 45 45 45 45 46 48 48 48 49 49 49 49 49 48 49 49 49 48 48 48 48 47 46 45 45 44 44 45 45 45 46 46 46 46 45 46
44 44 44 45 45 45 46 46 46 47 48 47 47 47 47 46 47 47 48 49 50 50 49 49 49 49 49 48 47 47 47 46 45 46 46 47 47 48 47 47 47 47
45 45 45 45 45 45 46 46 47 47 46 45 45 46 46 46 48 49 51 52 52 52 51 51 50 50 49 49 49 48 48 47 47 47 48 49 49 49 49 49 48 48
48 47 46 45 44 44 45 46 46 46 46 47 47 48 49 50 51 53 54 55 55 54 52 51 51 51 51 50 50 49 49 49 48 49 49 50 50 50 50 50 50 49
48 47 46 44 44 46 47 47 48 48 49 50 50 52 52 53 54 55 56 56 55 54 53 53 54 53 52 52 51 51 50 50 50 51 51 52 53 52 52 52 51 51
48 48 49 49 50 50 50 50 49 49 49 50 51 51 52 53 55 56 56 56 55 55 55 56 56 55 55 54 53 52 52 52 53 53 54 54 54 54 54 54 53 53
51 53 53 53 52 51 49 48 47 47 48 48 49 51 53 54 55 56 55 55 55 56 57 58 58 59 58 57 56 55 55 55 55 56 56 56 56 56 56 56 55 55
53 53 52 50 49 48 47 47 47 48 48 49 51 52 53 54 54 55 55 56 57 58 59 61 61 61 61 60 59 58 58 58 58 58 58 58 58 58 58 57 57 57
49 48 47 47 48 48 48 48 49 50 50 51 51 52 52 53 54 56 57 58 60 61 62 62 63 63 62 62 61 61 61 61 61 61 61 61 61 60 60 59 58 58
48 48 48 49 50 50 50 51 51 51 51 51 51 52 53 54 56 58 60 62 63 63 64 64 64 63 62 62 62 62 62 62 63 63 63 62 62 61 61 60 60 60
51 50 50 51 51 51 52 52 52 52 52 52 53 54 55 57 60 62 63 65 65 65 65 65 64 63 62 61 62 62 62 63 63 63 63 63 62 62 62 61 61 61
55 54 53 53 52 52 52 53 53 54 55 55 56 57 59 61 63 64 66 66 66 67 66 65 63 62 61 61 62 62 63 63 63 64 64 63 63 63 63 63 63 63
55 55 54 53 53 53 54 55 56 57 58 59 60 61 63 64 65 66 67 67 67 67 66 63 62 61 61 61 62 63 63 64 64 64 64 64 64 64 64 65 65 65
54 54 54 55 55 56 58 59 61 62 63 63 63 64 65 66 66 66 67 67 67 66 63 62 61 61 61 61 62 62 63 63 64 64 64 65 65 65 66 66 66 66
56 57 59 60 61 62 64 65 66 67 67 66 66 66 67 67 66 66 67 67 65 63 61 61 60 61 61 61 61 62 62 63 63 64 65 65 66 66 67 67 67 67
59 60 63 64 66 67 68 68 68 68 67 67 67 68 68 67 67 67 66 64 62 60 60 60 60 60 60 60 61 61 62 62 63 64 65 65 66 67 67 68 68 68
62 63 65 66 67 68 68 68 68 67 67 68 68 69 68 67 67 66 63 61 59 58 59 60 60 60 60 60 61 61 62 63 64 65 65 66 67 68 68 69 69 69
63 63 64 64 65 65 66 66 66 66 67 67 68 69 68 67 66 64 61 59 58 58 60 61 61 61 62 62 63 64 64 65 66 66 67 67 68 69 69 69 70 70
64 64 64 64 64 64 65 65 66 66 67 68 70 70 69 66 65 63 61 60 59 60 62 63 63 64 64 64 65 66 66 67 67 67 68 68 69 69 69 70 70 71
65 66 66 65 65 65 65 65 65 66 67 68 70 70 67 65 64 63 62 61 62 63 64 65 66 66 66 66 67 68 68 68 68 68 68 69 69 70 70 71 72 73
65 65 65 65 65 65 65 65 65 65 65 66 68 67 65 64 64 64 64 64 65 66 67 67 68 68 68 69 70 70 70 69 69 69 70 70 70 71 72 72 73 74
65 66 66 65 65 64 64 64 63 63 63 64 66 66 66 65 65 66 66 67 68 68 69 69 70 70 71 72 72 72 71 71 71 71 71 71 72 73 74 74 75 74
67 67 67 66 66 65 64 63 62 62 62 63 65 66 66 67 67 67 68 68 69 70 71 71 72 73 74 74 74 73 73 72 72 72 73 74 75 75 76 76 76 75
68 69 68 66 66 65 64 63 63 62 62 63 64 65 67 68 68 68 68 69 70 71 72 73 74 75 76 75 75 74 74 73 74 75 76 76 77 77 76 76 76 77
68 69 69 67 66 65 64 64 63 63 63 63 64 66 68 69 69 69 69 70 71 72 73 74 75 76 76 75 75 74 74 75 76 77 78 78 78 78 77 78 79 81
66 67 68 68 67 66 65 64 64 64 63 64 66 67 68 69 69 69 70 71 72 73 74 76 76 76 76 75 75 75 75 76 77 78 79 79 79 79 80 81 83 82

ECMWFNIL_250_spd_114.txt.gz
Wind_Speed
50 52 53 53 52 50 50 50 50 50 51 51 52 52 52 53 53 54 54 54 53 53 53 54 54 55 57 59 61 61 60 57 53 52 54 55 56 56 56 55 54 53
53 54 54 54 53 53 52 51 51 52 53 53 53 53 53 53 53 53 53 53 53 53 54 54 55 57 59 61 62 61 60 58 56 56 58 59 60 60 59 58 56 54
55 56 56 55 55 54 53 52 53 53 54 54 54 53 53 52 52 53 53 54 54 54 54 55 57 59 60 61 60 60 60 59 59 60 61 62 63 63 62 61 58 55
56 56 57 57 56 56 55 54 54 54 54 54 54 54 54 55 55 56 56 55 55 55 56 57 59 60 60 59 59 60 61 62 62 64 65 65 66 65 65 63 59 57
58 58 58 58 58 57 56 56 56 55 55 55 56 57 57 58 59 58 57 56 56 57 58 60 60 59 59 60 61 64 65 66 66 67 67 67 67 67 66 64 61 58
61 61 60 60 59 59 58 58 57 57 57 58 58 59 60 59 58 58 57 57 58 59 60 60 60 60 61 64 66 68 68 68 69 69 68 69 69 68 67 65 62 59
64 64 63 62 62 61 60 59 58 58 59 59 59 58 58 58 57 57 57 59 60 61 62 62 63 64 66 68 69 70 70 70 69 69 69 70 69 68 67 65 62 60
65 65 64 63 63 61 60 59 58 58 57 57 57 57 57 57 58 59 60 62 63 64 65 65 66 67 68 70 71 71 71 71 70 70 70 70 69 68 67 64 62 61
65 64 63 62 61 59 58 57 56 56 56 57 58 59 60 61 63 64 65 66 66 65 66 66 68 69 71 72 72 72 72 72 71 71 70 70 69 68 66 63 62 61
65 65 64 63 62 61 60 60 60 60 60 61 63 64 65 66 66 66 66 65 64 65 67 69 71 72 73 73 73 72 72 71 71 70 70 69 68 66 64 62 62 62
67 67 67 67 67 66 66 66 66 65 66 66 66 67 67 66 65 64 63 64 65 68 71 73 73 74 73 73 71 71 71 70 70 69 69 67 66 64 63 62 62 62
67 67 67 68 68 68 68 68 67 67 67 66 66 66 65 65 65 65 66 68 70 73 74 74 73 73 72 71 70 70 70 69 69 68 68 66 64 63 62 62 63 63
67 66 66 66 66 66 65 65 65 65 64 64 65 65 66 66 67 68 70 71 73 74 73 73 72 71 70 70 70 69 68 67 67 67 67 66 64 63 63 64 65 65
66 66 66 64 63 64 63 63 64 64 64 64 65 65 66 67 68 69 70 71 73 73 73 72 71 70 70 70 70 68 67 67 67 67 67 66 65 65 65 66 67 68
64 63 63 61 61 62 62 62 63 63 63 63 63 65 66 67 68 69 71 72 74 74 72 71 70 70 71 71 70 69 68 68 68 68 68 67 67 67 68 69 69 70
58 58 58 58 58 59 60 61 62 63 63 64 66 67 68 69 70 71 73 74 75 74 72 71 71 72 72 72 71 70 69 69 69 69 69 69 69 70 70 71 71 71
55 55 56 57 58 59 61 63 64 66 67 68 69 70 70 71 72 73 74 75 75 74 72 72 73 73 73 72 71 70 69 70 70 71 71 71 72 73 73 73 73 72
52 53 54 56 57 59 61 63 66 67 68 69 70 70 71 72 73 73 73 74 74 74 74 74 74 73 73 72 71 70 71 71 72 73 74 74 74 75 75 75 75 75
50 51 53 54 55 57 59 61 63 65 66 68 68 69 70 70 70 71 72 73 74 74 74 74 74 73 73 72 71 72 73 74 75 75 75 76 77 77 77 77 77 76
48 49 50 52 53 55 57 59 61 63 64 65 66 67 68 69 70 71 71 72 73 74 74 74 74 74 73 73 73 73 75 75 76 77 77 78 78 79 79 80 79 77
49 49 50 51 53 55 57 60 62 63 64 66 67 68 69 70 71 71 72 73 73 74 75 74 74 74 73 74 75 76 76 77 78 79 79 80 81 81 82 81 79 77
53 53 53 54 55 57 60 62 64 65 66 67 69 70 71 72 73 73 74 74 75 75 75 74 74 74 75 75 76 77 78 78 80 80 81 82 83 83 83 81 79 77
55 56 56 57 59 61 63 66 67 68 69 70 71 72 73 73 74 75 75 76 76 76 75 75 75 75 76 77 77 78 79 80 81 82 84 84 84 83 82 80 78 77
55 56 58 60 62 64 67 69 70 71 71 72 72 73 74 75 76 77 77 77 77 77 76 75 75 75 76 77 78 79 81 82 83 85 85 85 83 81 80 79 78 77
56 58 60 63 65 66 68 70 72 73 73 74 74 75 76 77 78 78 78 77 76 75 75 74 75 75 76 77 79 81 82 84 85 85 84 82 80 79 79 78 77 77
59 61 63 64 65 67 68 70 72 73 75 75 76 77 77 78 79 78 76 75 74 74 74 74 75 76 77 79 81 83 84 85 84 83 81 79 79 78 78 78 77 78

ECMWFNIL_250_spd_117.txt.gz
Wind_Speed
44 45 45 46 47 47 47 45 43 43 46 50 54 57 59 60 61 62 62 62 60 59 57 55 55 55 56 58 59 59 59 59 60 62 64 66 67 68 68 68 68 69
43 44 45 46 46 47 47 47 46 48 51 55 58 59 61 62 63 64 63 61 60 58 57 58 58 60 61 61 62 61 61 62 64 67 68 69 69 69 69 69 71 72
41 43 44 45 46 47 47 49 50 53 56 58 59 61 62 64 64 64 63 61 61 60 61 62 62 63 63 63 63 64 65 67 69 70 70 69 69 70 71 73 73 73
41 42 44 46 47 48 49 51 53 55 57 59 61 62 63 64 64 64 64 64 64 64 65 64 64 64 65 65 66 68 70 71 71 70 69 69 71 72 73 74 73 72
46 45 45 46 48 50 52 54 56 57 59 61 62 63 64 65 66 66 66 66 66 66 66 65 65 66 67 69 71 72 72 71 70 69 70 71 72 73 73 73 71 70
50 50 50 50 51 53 55 57 58 60 61 63 64 65 66 67 67 67 67 67 67 67 67 67 68 70 72 73 73 72 71 70 70 70 71 72 72 73 73 71 70 70
53 54 55 56 57 58 59 60 62 63 64 65 66 66 67 67 67 67 68 68 68 69 70 71 73 74 73 72 72 72 71 71 70 70 71 72 73 73 72 71 71 71
55 56 57 58 59 60 61 62 63 64 65 65 66 66 67 67 68 68 69 70 71 72 73 74 74 73 72 71 71 72 71 70 69 70 72 73 73 72 71 71 71 72
58 59 59 60 61 61 62 62 63 64 64 65 65 66 67 68 69 71 72 73 74 74 74 73 71 71 71 71 71 70 69 69 70 72 73 74 73 72 71 71 72 73
60 60 61 62 63 63 64 64 65 65 66 67 68 69 70 71 72 73 74 74 74 73 71 70 70 70 70 70 69 69 69 71 73 74 75 74 73 72 72 73 73 73
62 62 63 63 64 64 65 66 66 67 68 69 70 71 72 72 72 72 72 71 70 69 69 69 69 69 69 69 70 71 72 74 75 75 74 73 73 73 74 74 74 74
63 64 65 65 65 66 66 67 67 68 68 69 69 70 69 69 69 69 68 67 67 67 67 68 68 68 70 72 73 73 74 74 74 73 73 73 74 75 75 75 75 75
64 65 66 67 68 68 68 68 68 69 68 68 68 68 67 66 66 66 66 66 66 67 67 68 69 70 72 73 73 73 73 72 72 73 74 74 75 76 77 77 77 76
64 65 65 66 67 67 68 67 67 67 66 65 65 65 64 64 64 63 64 65 65 66 67 68 69 70 71 72 72 72 72 72 73 74 75 76 77 78 79 79 78 77
63 64 64 63 63 63 63 63 63 62 62 61 60 60 60 61 61 61 61 62 62 64 64 65 66 67 68 70 71 72 73 74 76 76 78 79 80 81 81 80 79 78
61 61 61 60 59 58 58 58 58 58 58 57 57 57 57 57 58 58 59 60 61 62 63 64 65 67 69 71 72 74 76 77 77 79 80 81 82 82 81 80 79 79
55 55 55 55 54 54 53 53 53 53 54 54 54 55 55 56 56 57 58 59 60 61 62 64 66 68 70 72 74 76 77 78 80 81 82 83 82 82 80 80 79 79
49 50 50 50 51 50 50 50 50 50 51 51 52 53 54 54 55 57 58 59 60 62 64 67 69 71 73 74 76 77 79 80 82 83 84 84 83 82 81 80 80 80
47 48 48 49 49 50 50 50 50 50 51 52 53 53 54 55 57 59 61 62 64 66 68 70 72 73 75 76 78 80 81 83 84 85 86 85 83 81 80 80 80 81
49 49 49 48 48 49 49 50 51 52 53 54 55 56 57 59 61 63 64 66 68 69 71 72 74 75 77 78 80 82 84 85 86 87 86 84 82 80 80 80 81 82
51 50 49 48 48 48 49 50 51 53 54 56 57 59 60 62 64 65 66 68 69 71 72 74 75 78 80 82 83 84 86 87 87 85 83 81 80 80 80 81 82 84
52 51 50 49 49 49 50 52 53 55 56 58 59 61 63 64 66 67 68 70 71 73 75 77 79 81 83 84 85 86 87 86 84 81 80 79 79 80 81 82 83 84
53 51 49 49 50 51 53 54 56 57 58 60 61 64 66 67 68 69 71 72 74 76 78 80 81 83 84 85 86 85 84 82 79 78 78 78 79 80 82 83 84 83
54 52 51 51 52 53 53 54 56 58 60 62 65 67 69 69 70 72 73 75 76 78 80 81 83 84 85 84 83 81 79 77 76 76 77 78 80 81 82 83 81 79
51 52 52 53 53 54 55 57 59 61 63 65 68 69 70 70 72 74 75 77 79 80 82 83 83 83 82 80 78 76 75 74 75 76 78 79 81 82 81 80 77 76
53 54 55 56 57 58 60 61 62 64 65 67 68 69 70 72 74 76 77 79 80 81 82 82 81 79 77 75 74 73 73 74 75 77 79 80 81 80 78 76 75 74

ECMWFNIL_250_spd_120.txt.gz
Wind_Speed
51 49 49 48 46 46 46 46 46 46 46 46 46 47 49 50 50 51 51 51 51 52 54 57 60 62 64 66 67 68 69 70 71 72 72 72 71 72 72 72 71 71
53 51 50 49 47 45 45 46 45 45 45 46 46 47 48 49 50 51 51 52 53 55 57 59 61 64 66 67 68 70 71 72 73 73 73 72 73 73 73 72 72 72
50 49 49 48 47 45 44 44 44 44 45 45 46 46 47 48 50 51 52 54 56 58 60 61 63 65 66 68 69 71 72 73 73 73 73 74 74 73 72 72 72 71
45 46 46 46 47 46 44 43 43 43 44 45 46 47 48 49 50 52 53 55 57 59 61 63 64 66 68 69 71 72 73 73 74 74 74 74 73 72 72 72 71 70
43 43 44 45 45 45 45 44 44 44 44 45 46 48 49 51 52 53 55 57 59 61 63 65 66 68 69 71 72 73 73 74 75 74 73 72 72 71 71 71 70 70
44 44 45 45 46 46 47 47 47 47 48 48 49 51 52 53 55 56 58 60 62 64 65 67 68 69 71 72 73 74 74 74 74 73 72 71 70 70 70 70 70 70
47 48 49 48 48 48 49 49 50 50 51 52 53 54 56 57 58 59 61 62 64 66 67 68 70 71 72 73 74 74 74 73 71 71 70 69 69 69 69 69 69 68
48 49 50 51 51 51 51 52 52 53 54 55 56 57 58 59 60 62 63 65 66 68 69 70 71 72 72 73 72 72 71 70 69 69 68 67 67 67 67 67 67 66
48 48 49 50 51 52 53 53 54 54 55 56 57 59 60 61 62 63 64 66 67 68 69 70 70 70 70 69 69 68 67 67 67 66 66 66 66 66 66 66 66 68
48 48 48 49 50 51 53 54 55 56 57 58 59 60 61 62 63 64 64 65 66 67 68 68 68 67 67 66 65 65 65 64 64 64 64 64 65 65 66 67 69 71
50 50 51 51 52 53 54 55 57 58 59 61 62 63 63 64 64 65 65 66 66 66 66 66 65 64 64 64 64 63 63 63 63 63 63 64 65 66 68 71 73 74
52 53 54 55 56 57 58 59 60 61 62 63 63 64 65 65 65 65 65 65 65 64 64 63 62 62 61 61 61 61 61 61 62 63 65 66 68 70 73 74 75 76
54 55 56 57 58 59 60 61 62 63 63 63 64 64 64 64 63 63 63 62 62 61 60 59 59 58 58 59 59 60 61 62 64 66 68 70 72 73 74 75 77 78
55 56 57 58 59 60 61 61 62 62 62 62 61 61 61 61 60 60 60 59 58 57 57 56 56 57 57 58 59 61 63 65 68 69 71 72 73 74 76 77 79 81
54 55 56 57 58 59 59 59 59 59 59 58 58 57 57 57 57 57 56 55 55 55 55 56 56 57 58 60 61 64 66 68 70 71 72 74 75 76 78 80 82 83
51 52 52 53 54 55 55 56 56 56 55 54 54 54 54 54 54 54 54 54 54 55 56 56 57 58 60 61 64 66 69 70 71 73 74 76 78 79 82 84 85 84
48 49 49 50 51 52 52 52 52 52 52 52 52 53 53 53 54 54 54 54 55 55 56 57 59 61 62 64 67 69 71 72 74 75 77 79 81 84 85 86 85 83
48 48 49 50 51 51 50 50 50 50 51 51 52 53 53 54 54 54 55 55 56 57 59 60 62 63 65 67 71 73 74 75 77 78 81 83 85 86 86 85 83 81
48 48 49 50 51 51 50 50 50 51 51 52 53 54 54 54 54 55 56 57 59 60 61 62 64 66 68 71 73 75 76 78 80 82 84 85 86 86 85 83 80 79
47 48 49 51 52 52 51 51 52 52 53 54 55 55 55 55 56 57 58 60 61 62 63 64 67 69 72 74 75 76 78 81 83 84 86 86 86 84 82 80 78 76
46 47 50 52 54 53 52 53 54 54 54 55 56 57 57 58 59 60 61 62 62 63 65 68 70 72 74 76 77 78 81 82 84 85 86 85 83 81 79 77 76 75
47 49 52 54 56 55 55 56 56 56 56 57 58 58 59 59 60 62 63 64 65 67 69 71 72 74 75 77 78 80 82 83 84 85 85 83 81 79 77 75 75 75
47 49 52 54 54 55 54 54 55 56 57 57 57 58 59 61 63 65 66 67 68 70 71 72 73 75 76 77 79 80 82 83 84 84 83 80 78 76 75 75 75 76
46 48 50 51 51 51 51 52 55 57 56 57 58 61 63 66 67 68 68 69 70 71 71 72 73 75 76 78 79 80 82 83 83 82 80 78 76 75 74 74 75 76
48 50 51 52 50 52 54 57 60 60 60 62 64 66 67 68 69 69 70 70 71 71 72 73 74 75 77 78 79 80 82 82 81 80 78 76 74 73 74 75 75 76
53 54 56 56 57 59 62 63 64 64 64 65 66 67 68 68 69 69 70 70 71 71 73 74 75 76 77 78 79 81 81 80 79 77 75 73 72 73 74 75 75 74

ECMWFNIL_250_spd_123.txt.gz
Wind_Speed
48 48 48 48 48 48 49 50 52 52 53 52 51 50 49 47 47 47 47 48 49 50 51 52 53 53 54 54 54 55 56 57 59 61 63 65 67 68 70 71 73 74
47 47 47 48 48 49 49 50 52 53 53 52 52 51 50 49 49 48 49 49 50 51 51 52 52 53 53 54 55 56 57 59 61 63 65 67 68 70 71 73 73 74
46 47 47 47 48 48 49 50 51 52 52 52 51 50 50 49 49 49 50 50 50 51 51 51 51 52 53 54 55 57 58 60 62 64 66 68 70 71 72 73 73 73
45 46 46 46 46 46 47 48 49 50 51 52 51 51 50 49 49 49 49 49 49 50 50 51 51 52 54 55 57 59 61 63 65 66 68 70 71 72 72 72 72 72
44 44 44 44 44 44 44 45 46 47 49 50 50 49 49 48 48 48 48 49 49 50 51 52 53 54 56 58 60 61 63 65 67 68 69 70 71 71 71 70 70 69
42 42 43 43 43 43 43 44 45 46 47 48 48 47 47 47 48 49 50 50 51 52 53 54 55 57 59 61 62 64 66 67 69 69 70 69 69 69 68 68 67 66
40 41 41 42 43 43 44 45 46 48 48 48 48 48 48 49 50 51 52 53 54 55 56 57 59 60 62 64 65 66 68 68 69 68 68 67 67 66 65 64 63 63
38 39 40 41 43 44 46 48 49 50 50 50 50 50 51 52 53 54 55 56 57 58 59 60 62 63 64 65 66 66 66 66 66 65 65 64 63 62 61 61 61 62
37 37 39 40 42 44 46 48 49 50 50 51 51 52 52 53 54 55 56 57 58 59 60 61 62 63 64 64 64 64 64 64 63 62 62 61 60 60 60 61 62 64
38 38 39 40 41 43 45 47 48 49 50 51 51 52 53 54 55 56 57 58 59 60 61 61 62 63 63 63 62 62 62 61 60 59 59 59 59 60 61 63 65 67
40 40 41 42 44 45 47 48 50 51 51 52 53 54 55 56 57 58 59 60 60 61 61 62 62 63 62 61 61 60 59 58 58 58 58 59 61 63 64 66 68 71
41 42 44 45 46 48 50 51 52 53 54 55 56 57 58 58 59 60 60 61 61 61 61 61 61 61 60 59 58 57 57 57 58 59 60 62 64 66 68 69 71 74
43 44 45 47 48 50 51 52 53 55 56 56 57 58 58 59 59 59 59 59 59 59 59 59 59 58 57 57 56 56 57 58 60 62 64 65 67 68 70 72 75 77
45 46 47 48 49 51 52 53 54 55 56 57 57 57 57 57 57 57 58 58 58 58 58 58 57 57 56 56 56 57 59 61 63 65 66 68 69 71 73 75 78 80
47 48 48 49 50 51 52 53 54 54 55 55 55 56 56 56 56 57 57 57 57 57 57 57 56 56 57 57 59 60 62 63 65 66 68 70 72 74 76 78 80 81
47 49 50 50 51 51 52 52 53 53 53 54 54 55 54 54 55 55 56 56 56 56 56 56 57 58 59 60 61 61 63 65 67 69 71 73 75 76 78 80 82 83
47 48 49 49 50 50 50 51 51 51 52 52 52 52 52 52 53 53 54 54 55 55 56 58 59 60 60 61 61 63 66 68 70 72 73 75 76 78 80 82 83 85
46 46 47 48 48 48 49 49 49 50 50 50 50 50 50 51 52 53 54 55 56 57 58 59 60 60 61 62 65 67 70 71 72 73 75 76 78 79 82 83 85 86
45 46 46 46 46 46 47 48 48 48 48 49 50 50 51 52 54 55 56 57 58 58 59 60 60 61 63 65 68 70 71 72 73 74 75 77 79 81 83 85 85 85
45 45 45 44 45 45 46 48 48 49 51 52 52 53 54 55 57 58 58 59 59 60 61 62 62 63 65 67 69 70 71 72 73 75 76 78 80 83 84 85 85 84
41 43 44 44 43 44 46 47 50 52 54 55 55 56 57 58 59 60 60 61 62 62 63 63 64 65 67 68 69 70 71 72 74 76 78 80 82 83 84 84 84 83
39 42 44 43 43 44 46 48 51 53 55 56 57 58 58 59 60 61 62 62 63 64 64 64 65 66 67 68 69 71 72 74 76 77 79 81 82 83 84 83 82 81
39 40 43 44 44 44 45 47 50 53 55 56 57 58 58 59 61 62 63 64 64 64 65 66 66 67 68 69 70 72 74 75 77 78 80 81 83 83 83 82 80 79
38 40 41 42 41 42 44 47 51 54 56 56 56 58 60 61 62 63 65 65 65 66 67 67 68 69 70 71 72 73 75 76 77 79 80 82 82 82 81 80 78 76
37 39 40 41 43 46 49 52 54 55 57 58 59 60 61 63 65 66 66 66 67 67 68 68 69 70 71 72 73 74 75 76 78 80 81 81 81 80 79 78 75 72
40 42 42 44 47 50 52 55 56 56 58 61 63 64 65 66 67 67 67 67 68 68 68 69 69 70 71 72 73 74 76 77 79 80 80 80 80 78 77 74 71 69

ECMWFNIL_250_spd_126.txt.gz
Wind_Speed
41 42 43 46 49 51 53 53 53 53 51 50 49 49 49 49 49 48 47 47 46 46 46 46 46 46 47 48 48 49 50 51 52 53 53 54 55 56 57 59 61 63
42 44 45 47 49 50 50 51 52 51 50 49 49 49 48 48 47 47 46 46 46 46 46 46 46 46 47 48 49 49 50 51 52 53 53 54 55 57 59 61 63 65
45 45 46 47 48 48 47 48 49 49 49 49 49 47 47 47 46 46 46 45 45 45 45 45 45 46 47 47 48 48 49 50 51 53 54 55 57 59 61 63 65 66
47 47 46 47 48 49 49 49 49 49 49 48 46 46 45 45 45 44 44 44 43 43 43 43 44 44 45 46 47 48 49 51 52 54 56 58 60 62 64 65 65 65
45 46 47 48 49 50 50 49 48 47 45 44 43 43 42 42 42 41 41 41 41 40 41 42 43 44 46 47 48 49 51 53 55 57 59 61 62 63 64 64 64 64
39 42 44 46 48 48 47 46 44 42 41 40 40 40 40 40 40 39 39 39 40 41 42 43 45 46 48 49 50 52 54 56 58 60 61 62 62 62 63 63 63 62
37 39 41 42 43 42 42 41 40 39 39 39 39 39 40 40 40 40 40 41 42 43 45 46 48 49 50 51 53 55 56 58 59 60 61 61 61 62 62 62 61 61
37 37 38 38 38 38 38 37 37 37 38 39 39 40 40 40 41 41 42 43 45 46 47 48 49 50 52 54 55 56 58 59 59 60 60 61 61 61 61 60 61 61
38 38 37 37 36 36 36 36 36 36 37 38 39 39 39 40 41 42 44 45 46 47 49 50 51 52 54 55 56 57 58 59 60 60 60 60 60 60 60 60 60 60
39 38 38 37 37 36 36 36 36 37 38 39 39 40 41 42 44 45 46 47 49 50 51 52 53 54 55 57 58 58 59 59 59 59 58 59 59 59 59 59 60 61
38 38 38 38 38 38 38 38 39 39 40 41 42 43 44 46 47 48 49 50 51 52 53 54 55 56 57 58 58 58 57 57 57 57 57 58 58 58 59 60 63 66
38 38 39 39 39 40 40 40 41 42 42 43 45 46 47 48 49 50 51 52 53 54 54 55 56 56 56 56 56 55 55 55 56 56 57 57 58 59 61 64 66 68
39 39 40 40 41 42 42 43 43 44 45 46 47 48 49 49 50 51 51 52 53 53 53 53 54 54 54 54 54 54 55 55 56 56 58 59 60 61 63 65 68 69
40 41 42 43 43 44 44 44 45 45 46 47 48 49 49 49 50 50 50 51 50 50 51 51 51 52 52 53 53 54 55 56 56 58 59 60 61 63 65 67 69 71
42 42 43 44 44 44 44 45 45 46 46 47 48 48 48 48 48 48 48 48 48 48 49 50 50 51 52 53 55 56 56 57 58 59 60 61 62 64 67 69 71 73
41 42 42 43 43 43 43 43 44 45 45 46 46 46 46 46 46 46 45 46 46 47 48 50 51 52 54 55 56 56 57 58 59 60 61 63 65 67 69 71 73 76
40 40 41 41 41 41 41 42 43 44 44 45 45 45 45 45 44 44 44 46 47 48 50 51 53 54 56 56 56 56 58 60 61 62 63 65 67 69 71 73 76 78
39 39 39 39 39 40 41 43 43 43 43 44 44 45 44 43 42 43 45 47 48 50 52 53 54 55 55 55 56 58 60 62 63 64 66 67 69 71 73 75 78 80
38 38 38 38 39 40 41 42 43 43 43 43 43 43 42 42 43 45 48 49 50 52 53 53 54 54 55 57 59 61 62 64 65 66 67 69 71 73 75 77 79 81
36 37 37 37 37 37 38 39 41 42 40 39 40 40 41 43 46 49 50 52 52 53 53 54 54 55 57 59 61 63 65 66 67 68 69 71 73 75 77 79 81 82
34 34 34 34 34 35 37 40 41 41 39 39 40 41 44 47 51 52 52 53 53 53 54 55 56 57 59 61 63 65 66 67 68 70 71 73 75 77 78 80 81 82
34 34 34 34 35 36 39 41 40 39 41 41 42 43 44 47 52 54 54 54 55 56 57 57 58 59 61 64 65 66 67 68 69 71 73 74 76 78 79 80 81 82
36 35 34 34 35 35 37 38 35 37 41 42 41 42 44 48 54 57 57 57 58 58 58 58 59 62 64 65 66 66 68 69 71 72 74 76 77 78 79 79 80 81
34 34 32 32 33 34 34 34 34 37 42 42 41 45 50 53 57 58 58 60 60 59 59 61 63 64 65 65 66 67 69 70 72 74 75 76 77 77 78 79 80 80
37 38 36 34 34 36 36 35 35 39 43 43 44 49 54 57 58 59 60 61 62 62 63 64 65 65 65 66 67 68 70 71 73 74 75 76 76 76 77 78 78 78
42 44 42 40 40 42 42 39 38 41 44 45 48 52 55 58 60 62 62 62 62 63 64 64 65 65 66 67 68 70 71 72 73 74 75 75 75 76 76 77 76 75

ECMWFNIL_250_spd_129.txt.gz
Wind_Speed
31 33 34 32 30 32 35 38 38 37 38 39 40 42 44 46 48 50 52 53 55 56 57 57 55 54 53 51 49 47 46 46 47 47 48 48 48 49 49 50 51 53
32 33 34 33 32 34 38 39 39 41 42 43 44 45 46 49 51 53 55 56 57 56 55 55 54 52 50 48 47 46 46 46 46 46 47 47 48 49 50 51 53 55
33 34 35 37 37 37 38 39 41 43 45 46 47 48 49 52 53 55 56 54 53 53 53 53 51 49 47 46 46 45 45 45 44 45 46 47 49 51 52 54 55 57
34 34 35 38 40 40 40 41 43 45 47 48 49 50 52 53 54 54 53 52 52 53 53 51 48 46 45 44 44 43 43 43 44 45 48 50 51 52 54 55 56 57
34 35 37 37 38 40 41 43 45 46 48 49 50 51 52 53 52 52 52 52 53 52 49 46 44 44 43 43 42 42 42 44 46 48 50 51 52 54 55 56 57 57
32 32 35 37 39 40 41 42 44 45 47 48 50 51 51 51 51 52 52 52 50 47 45 44 43 43 42 42 42 43 45 46 48 50 51 53 54 55 56 56 56 56
34 32 32 35 37 40 42 43 43 45 47 49 50 51 51 52 52 52 51 49 46 45 44 44 43 43 43 43 44 45 47 48 50 51 53 54 55 55 56 56 55 55
40 40 39 39 39 40 42 43 43 45 47 49 50 51 51 51 51 49 47 45 44 44 44 43 43 43 44 45 46 48 49 51 52 53 54 55 55 55 55 55 55 55
40 42 42 42 40 38 39 39 41 42 44 45 45 45 46 46 45 44 43 43 43 43 43 44 44 45 46 47 49 50 51 53 53 54 54 55 54 54 54 54 55 55
41 41 41 41 40 39 39 40 41 42 42 42 41 41 42 43 43 42 42 43 44 44 45 45 46 48 49 50 51 52 53 53 54 54 54 53 53 53 54 54 55 56
45 44 44 43 42 42 43 43 43 43 43 43 42 42 43 43 44 44 45 46 47 47 47 48 49 50 50 51 52 53 53 53 53 53 52 53 53 54 54 54 56 57
47 47 46 45 45 44 44 43 43 44 43 43 43 44 45 45 46 47 48 48 48 49 49 49 50 50 51 51 52 52 52 52 52 52 52 53 54 53 54 55 57 59
46 46 45 45 44 43 43 42 42 43 43 44 44 45 46 47 48 49 49 49 49 49 49 49 49 50 50 50 51 51 51 51 51 51 53 53 53 53 55 57 59 60
44 43 43 43 42 41 41 41 42 43 44 45 46 47 48 49 49 50 50 49 49 48 48 48 48 49 49 50 50 50 50 50 51 52 53 53 54 55 57 59 60 61
41 41 41 41 41 41 41 42 43 44 46 47 48 48 49 49 49 49 49 48 47 47 47 47 47 48 49 50 50 50 50 50 52 53 53 54 54 57 59 60 61 63
39 39 40 40 41 41 42 44 45 46 47 48 49 49 49 49 48 48 47 46 46 46 46 46 47 49 50 50 49 49 50 51 53 53 53 54 56 58 60 61 63 65
38 38 39 40 41 42 43 44 45 46 47 47 48 48 48 47 46 46 45 45 45 45 45 47 49 50 50 50 50 50 52 52 53 53 54 56 58 60 62 63 65 68
37 38 39 40 41 42 43 44 44 45 45 45 45 45 45 45 45 44 43 44 44 45 47 49 50 51 50 51 51 52 52 53 53 54 56 58 60 62 64 65 67 69
37 38 38 39 40 41 41 42 43 43 44 44 44 44 43 43 43 42 42 43 45 47 49 51 52 52 52 52 52 53 53 53 54 56 58 60 62 64 65 67 69 71
36 36 36 37 38 39 40 41 42 43 43 42 42 42 42 42 41 41 42 44 46 48 49 51 53 54 54 55 55 54 54 55 56 58 60 62 64 65 66 68 70 72
34 34 34 36 37 39 40 40 41 41 40 40 40 41 43 43 43 43 44 45 47 47 47 49 54 56 57 58 58 57 56 57 58 60 63 65 66 66 68 70 71 72
32 33 34 35 37 38 38 39 38 37 36 37 40 42 44 46 45 44 45 46 46 46 46 50 55 58 59 61 62 61 60 61 62 64 66 66 67 68 70 71 72 73
31 32 34 35 35 35 35 35 35 34 36 39 40 39 42 45 45 44 45 46 46 45 47 52 57 60 62 63 64 64 64 64 66 67 68 68 69 70 71 72 72 73
30 31 32 32 33 33 33 32 33 35 37 40 40 39 39 40 40 41 44 45 45 47 50 55 59 62 63 63 64 67 67 68 69 69 69 69 70 71 72 72 72 72
30 30 30 31 32 33 33 32 35 38 39 41 43 44 43 42 41 42 45 45 47 50 53 58 61 62 63 64 67 69 70 70 70 70 70 71 71 71 71 71 71 71
30 29 30 33 36 38 38 37 39 42 42 43 45 47 47 46 44 44 45 46 49 52 55 57 59 62 64 67 69 71 71 71 70 70 71 71 71 70 70 69 70 71